GFSSE_con_sbcape_000.txt.gz
CAPE
125 332 885 1333 1573 1665 1743 1717 2173 2189 2138 2155 1983 1866 1625 1224 946 895 709 795 861 1009 682 396 543 882 928 996 788 1027 1162 1393 1283 1673 1996 1271 930 1026 1010 1419 1149 1368 1868
111 321 798 1214 1509 1737 2002 1861 2159 2393 2423 2279 2051 1879 1556 1230 1025 1087 945 967 591 699 428 397 735 966 1041 927 803 870 951 1089 1271 1315 1563 1715 1529 1341 1293 1405 1001 1359 1864
141 421 724 1082 1416 1804 2037 2182 2300 2568 2585 2448 2225 1952 1712 1426 1280 1198 1146 533 206 290 200 263 699 830 930 594 238 429 802 802 1019 1178 1513 983 867 1400 1322 897 830 1797 1789
362 733 914 1145 1528 1788 1860 2029 2103 2176 2181 2437 2189 2025 1866 1577 1516 1413 677 272 156 116 335 601 442 217 530 59 16 0 449 998 948 1044 1237 1179 850 1258 1240 777 1097 1767 1616
717 924 999 1020 1438 1852 1880 2020 2000 2029 2161 2398 2178 2071 1999 1743 1631 1285 479 361 245 281 389 526 742 353 200 37 19 0 377 599 912 985 927 767 475 1009 1362 854 1607 1415 1274
785 902 1092 1184 1439 1916 2003 1894 1960 1984 1906 2133 2410 2188 1907 1696 1355 1331 572 438 463 592 652 744 490 800 171 126 216 389 661 621 659 592 887 690 625 1170 1492 1339 1086 1382 1242
859 1130 1202 1258 1413 1631 1525 1648 1811 1913 1980 2053 2146 2244 1805 1504 1075 527 458 594 832 575 787 757 1195 555 410 415 298 416 427 386 589 724 719 447 123 1600 1574 1238 1223 1280 1192
1098 1298 1307 1446 1359 1319 1365 1345 1356 1541 1800 1980 1872 1769 1748 1540 1345 1180 1010 998 594 386 203 185 178 318 43 78 137 257 121 257 709 896 811 595 277 1519 1814 1509 1047 977 994
1241 1277 1325 1262 1105 1021 946 873 849 1203 1523 1746 1540 1306 1105 1075 1160 809 618 547 437 569 716 771 300 238 383 450 287 280 430 533 681 506 377 244 415 1137 1866 1885 1483 1208 1092
1668 1361 1200 1060 743 328 310 686 785 846 1154 1515 1254 960 647 706 626 348 238 298 230 185 98 61 136 173 316 212 170 194 218 180 115 62 88 108 720 1578 1817 1847 1548 1572 1156
1133 1594 1285 1154 906 323 133 409 788 916 1001 1319 1415 767 369 95 97 94 9 115 70 11 0 0 0 1 0 0 0 0 0 0 0 0 0 74 586 887 1492 1445 1525 1462 1271
428 581 809 1060 1030 653 502 602 396 696 648 664 840 777 238 1 0 0 2 20 0 0 0 0 0 0 0 0 0 0 0 0 0 0 0 0 503 605 806 1205 1299 1174 1232
9 18 120 349 482 253 410 527 535 447 445 394 179 116 3 0 0 0 0 0 0 0 0 0 0 0 0 0 0 0 0 0 0 0 0 13 252 502 559 1158 1245 1253 1222
0 0 10 56 92 2 4 442 315 145 199 30 1 0 0 0 0 0 0 0 0 0 0 0 0 0 0 0 0 0 0 0 0 0 0 14 40 243 571 618 825 816 975
0 0 0 0 14 0 0 0 0 0 0 0 0 0 0 0 0 0 0 0 0 0 0 0 0 0 0 0 0 0 0 0 0 0 0 0 9 65 162 343 538 688 844
0 0 0 0 0 0 0 0 0 0 0 0 0 0 0 0 0 0 0 0 0 0 0 0 0 0 0 0 0 1 4 0 0 0 0 0 0 7 52 40 162 358 504
0 0 0 0 0 0 0 0 0 0 0 0 0 0 0 0 0 0 0 0 0 0 0 0 0 0 0 0 0 0 0 0 0 0 0 0 0 0 0 26 158 113 166
0 0 0 0 0 0 0 0 0 0 0 0 0 0 0 0 0 0 0 0 0 0 0 0 0 0 0 0 0 0 0 0 0 0 0 0 0 0 10 3 77 170 209
0 0 0 0 0 0 0 0 0 0 0 0 0 0 0 0 0 0 0 0 0 0 0 0 0 0 0 0 0 0 0 0 0 0 0 0 0 0 26 22 22 43 90
0 0 0 0 0 0 0 0 0 0 0 0 0 0 0 0 0 0 0 0 0 0 0 0 0 0 0 0 0 0 0 0 0 0 0 0 0 0 34 72 33 19 6
0 0 0 0 0 0 0 0 0 0 0 0 0 0 0 0 0 0 0 0 0 0 0 0 0 0 0 0 0 0 0 0 0 0 0 0 0 1 26 38 142 96 119
0 0 0 0 0 0 0 0 0 0 0 0 0 0 0 0 0 0 0 0 0 0 0 0 0 0 0 0 0 0 0 0 0 0 0 0 0 0 0 0 1 84 77
0 0 0 0 0 0 0 0 0 0 0 0 0 0 0 0 0 0 0 0 0 0 0 0 0 0 0 0 0 0 0 0 0 0 0 0 0 0 0 0 0 14 91
0 0 0 0 0 0 0 0 0 0 0 0 0 0 0 0 0 0 0 0 0 0 0 0 0 0 0 0 0 0 0 0 0 0 0 0 0 0 0 0 0 0 35
0 0 0 0 0 0 0 0 0 0 0 0 0 0 0 0 0 0 0 0 0 0 0 0 0 0 0 0 0 0 0 0 0 0 0 0 0 0 0 0 0 0 0
0 0 0 0 0 0 0 0 0 0 0 0 0 0 0 0 0 0 0 0 0 0 0 0 0 0 0 0 0 0 0 0 0 0 0 0 0 0 0 0 0 0 0

GFSSE_con_sbcape_003.txt.gz
CAPE
60 392 1021 1418 1612 1711 1877 2157 2006 2029 2163 2064 1707 1606 1410 1275 1178 1253 1162 1188 1240 1485 772 742 767 887 1191 994 947 1178 1102 1144 1481 1879 1577 1258 753 969 1044 1218 937 1099 1439
67 430 941 1337 1792 1983 1958 2226 2298 2205 2323 1992 1879 1598 1403 1265 1269 1181 1330 644 576 652 439 614 826 1009 1285 1187 1042 1056 1124 1111 1193 1439 1925 1927 1391 1343 1073 1187 915 1214 1500
195 481 740 1232 1757 2015 2096 2354 2645 2730 2363 2013 1966 1761 1574 1369 1354 1142 1122 494 315 307 246 910 943 1275 1241 868 909 925 898 972 1348 1511 1725 1149 1033 1338 1279 1503 905 1504 1420
377 600 818 1376 1672 1839 1932 2121 2459 2618 2493 2289 2148 2024 1822 1668 1499 1472 706 521 267 158 359 273 497 1020 1036 1200 1086 891 993 957 938 1375 1378 1093 1036 1099 901 1282 1178 1132 1321
548 556 840 1380 1582 1763 1920 1978 2101 2307 2572 2375 2280 2185 1981 1760 1596 1414 802 419 276 263 319 435 583 390 303 247 197 257 632 591 668 877 749 1041 932 1244 1119 1384 1505 1621 1505
545 631 801 1256 1627 1824 1751 1765 1830 1987 2195 2422 2247 1995 1821 1636 1265 1243 585 411 486 468 446 502 566 1022 648 286 316 502 406 557 508 207 474 771 938 946 1392 1506 1478 1632 1441
665 839 853 1077 1407 1789 1635 1662 1849 1940 1983 2190 2338 2113 1857 1562 1160 484 712 815 693 752 728 892 1269 872 703 394 351 296 261 155 217 284 451 521 486 667 1381 1550 1446 1430 1383
848 1023 1018 1206 1220 1382 1620 1678 1654 1809 1878 1799 1830 1940 1708 1285 1091 905 722 819 827 675 394 380 309 257 159 34 136 187 191 43 190 436 495 426 579 1077 1141 1633 1318 1511 1431
994 1042 942 943 937 1081 990 1071 1239 1532 1746 1654 1457 1404 1313 1169 1147 781 734 679 564 694 759 543 478 254 224 512 208 230 167 248 127 166 281 371 538 882 965 1183 1327 1274 1373
1003 977 811 733 602 400 493 775 797 1135 1400 1385 1121 884 641 765 751 402 237 274 182 150 3 0 6 72 53 38 1 0 0 38 0 7 11 26 479 878 1064 1545 1490 1102 1090
1388 961 799 770 479 135 0 272 732 904 1172 1326 956 686 357 88 13 0 21 87 124 23 0 0 0 0 0 0 0 0 0 0 0 0 0 0 149 787 956 1428 1280 1136 1105
1199 1363 985 836 656 237 211 280 174 318 532 809 896 292 21 0 0 0 0 5 0 0 0 0 0 0 0 0 0 0 0 0 0 0 0 9 41 305 695 945 996 1123 948
1069 857 836 870 578 412 348 251 66 124 124 94 195 169 0 0 0 0 0 0 0 0 0 0 0 0 0 0 0 0 0 0 0 0 0 0 0 56 393 850 960 1023 904
0 0 1 23 21 0 28 188 158 112 54 34 0 0 0 0 0 0 0 0 0 0 0 0 0 0 0 0 0 0 0 0 0 0 0 0 0 0 42 313 715 877 850
0 0 0 0 0 0 0 0 0 0 32 0 0 0 0 0 0 0 0 0 0 0 0 0 0 0 0 0 0 0 0 0 0 0 0 0 0 9 83 122 396 552 660
0 0 0 0 0 0 0 0 0 0 0 0 0 0 0 0 0 0 0 0 0 0 0 0 0 0 0 0 0 0 0 0 0 0 0 0 0 0 0 53 107 126 282
0 0 0 0 0 0 0 0 0 0 0 0 0 0 0 0 0 0 0 0 0 0 0 0 0 0 0 0 0 0 0 0 0 0 0 0 0 0 0 3 51 119 106
0 0 0 0 0 0 0 0 0 0 0 0 0 0 0 0 0 0 0 0 0 0 0 0 0 0 0 0 0 0 0 0 0 0 0 0 0 0 0 9 36 58 131
0 0 0 0 0 0 0 0 0 0 0 0 0 0 0 0 0 0 0 0 0 0 0 0 0 0 0 0 0 0 0 0 0 0 0 0 0 0 0 16 79 67 88
0 0 0 0 0 0 0 0 0 0 0 0 0 0 0 0 0 0 0 0 0 0 0 0 0 0 0 0 0 0 0 0 0 0 0 0 0 0 0 0 19 54 62
0 0 0 0 0 0 0 0 0 0 0 0 0 0 0 0 0 0 0 0 0 0 0 0 0 0 0 0 0 0 0 0 0 0 0 0 0 0 0 0 0 0 2
0 0 0 0 0 0 0 0 0 0 0 0 0 0 0 0 0 0 0 0 0 0 0 0 0 0 0 0 0 0 0 0 0 0 0 0 0 0 0 0 0 0 0
0 0 0 0 0 0 0 0 0 0 0 0 0 0 0 0 0 0 0 0 0 0 0 0 0 0 0 0 0 0 0 0 0 0 0 0 0 0 0 0 0 0 0
0 0 0 0 0 0 0 0 0 0 0 0 0 0 0 0 0 0 0 0 0 0 0 0 0 0 0 0 0 0 0 0 0 0 0 0 0 0 0 0 0 0 0
0 0 0 0 0 0 0 0 0 0 0 0 0 0 0 0 0 0 0 0 0 0 0 0 0 0 0 0 0 0 0 0 0 0 0 0 0 0 0 0 0 0 0
0 0 0 0 0 0 0 0 0 0 0 0 0 0 0 0 0 0 0 0 0 0 0 0 0 0 0 0 0 0 0 0 0 0 0 0 0 0 0 0 0 0 0

GFSSE_con_sbcape_006.txt.gz
CAPE
61 329 923 1314 1554 1604 1548 1687 1700 1930 2056 1977 1808 1679 1773 1760 1586 1719 1696 1386 1749 1245 904 944 1021 1143 1282 1043 1028 1381 1351 1712 1603 1550 1549 1156 912 1136 1292 1388 1151 1070 1500
78 435 904 1367 1660 1915 1930 1892 1796 2024 2274 1949 1898 1798 1708 1614 1581 1745 935 664 637 630 570 989 1089 1168 1494 1402 1173 1104 1220 1325 1706 1927 1945 1542 1243 1232 1176 1490 1193 1079 1163
286 509 812 1328 1609 1922 2226 2269 2204 2183 2171 2134 1985 1757 1596 1346 1351 1490 1045 677 425 297 398 775 1068 1429 1654 1435 1379 1210 1010 1141 1363 1476 1880 1099 1170 1645 1264 1571 1457 1704 1399
316 464 856 1282 1532 1798 2028 2383 2537 2594 2362 2290 2168 2021 1857 1701 1653 1511 1106 852 398 347 466 648 521 1243 1347 932 994 1062 1123 989 1011 1343 1420 1032 982 1446 1223 1528 1407 1399 1397
406 463 1040 1242 1409 1711 1799 1931 2252 2557 2639 2563 2396 2267 2076 1844 1663 1633 976 397 426 538 451 606 872 843 975 686 639 571 675 878 783 455 455 917 955 1266 1062 1477 1470 1704 1591
283 369 1059 1211 1420 1700 1717 1629 1825 2078 2213 2199 2163 2140 1960 1688 1304 1221 865 590 727 765 793 887 888 1139 1238 720 481 440 673 351 229 154 204 605 990 1008 1450 1446 1189 1536 1481
334 412 796 1167 1466 1749 1638 1566 1771 1843 1989 2178 2241 2110 1922 1628 1224 469 471 850 777 993 868 711 748 557 686 471 234 340 312 167 26 173 254 350 528 1001 1104 1610 1349 1268 1438
481 576 614 979 1209 1519 1583 1492 1506 1589 1631 1673 1847 1992 1676 1316 1178 1040 950 945 865 940 933 838 736 401 265 255 512 173 94 126 246 207 337 245 371 881 1160 1514 1396 1079 1243
538 586 530 631 741 909 978 1046 1174 1400 1498 1357 1237 1364 1248 1129 972 687 586 534 404 370 154 175 224 397 363 152 55 12 17 161 0 0 76 137 348 731 976 1244 1472 1029 1294
608 524 421 339 258 197 344 639 806 1060 1309 1154 884 643 528 646 535 305 57 201 146 99 53 24 3 0 0 0 0 0 0 0 0 0 0 0 58 335 843 890 1356 1202 1240
799 554 337 296 116 0 0 199 556 844 1081 1071 767 497 168 0 0 0 2 25 83 9 0 0 0 0 0 0 0 0 0 0 0 0 0 0 29 177 510 854 1199 1216 1126
1039 845 427 376 230 4 0 5 30 111 420 683 530 152 0 0 0 0 0 0 0 0 0 0 0 0 0 0 0 0 0 0 0 0 0 0 0 27 199 501 725 849 748
808 928 773 513 319 164 37 0 0 0 0 17 203 11 0 0 0 0 0 0 0 0 0 0 0 0 0 0 0 0 0 0 0 0 0 0 0 1 32 104 308 482 636
398 838 600 449 300 57 15 15 2 0 0 0 0 0 0 0 0 0 0 0 0 0 0 0 0 0 0 0 0 0 0 0 0 0 0 0 0 0 3 78 130 282 476
51 39 2 0 0 0 0 0 0 0 0 0 0 0 0 0 0 0 0 0 0 0 0 0 0 0 0 0 0 0 0 0 0 0 0 0 0 0 0 0 87 190 212
0 0 0 0 0 0 0 0 0 0 0 0 0 0 0 0 0 0 0 0 0 0 0 0 0 0 0 0 0 0 0 0 0 0 0 0 0 0 0 0 0 11 238
0 0 0 0 0 0 0 0 0 0 0 0 0 0 0 0 0 0 0 0 0 0 0 0 0 0 0 0 0 0 0 0 0 0 0 0 0 0 0 0 0 0 6
0 0 0 0 0 0 0 0 0 0 0 0 0 0 0 0 0 0 0 0 0 0 0 0 0 0 0 0 0 0 0 0 0 0 0 0 0 0 0 0 0 9 8
0 0 0 0 0 0 0 0 0 0 0 0 0 0 0 0 0 0 0 0 0 0 0 0 0 0 0 0 0 0 0 0 0 0 0 0 0 0 0 0 0 10 0
0 0 0 0 0 0 0 0 0 0 0 0 0 0 0 0 0 0 0 0 0 0 0 0 0 0 0 0 0 0 0 0 0 0 0 0 0 0 0 0 0 0 0
0 0 0 0 0 0 0 0 0 0 0 0 0 0 0 0 0 0 0 0 0 0 0 0 0 0 0 0 0 0 0 0 0 0 0 0 0 0 0 0 0 0 0
0 0 0 0 0 0 0 0 0 0 0 0 0 0 0 0 0 0 0 0 0 0 0 0 0 0 0 0 0 0 0 0 0 0 0 0 0 0 0 0 0 0 0
0 0 0 0 0 0 0 0 0 0 0 0 0 0 0 0 0 0 0 0 0 0 0 0 0 0 0 0 0 0 0 0 0 0 0 0 0 0 0 0 0 0 0
0 0 0 0 0 0 0 0 0 0 0 0 0 0 0 0 0 0 0 0 0 0 0 0 0 0 0 0 0 0 0 0 0 0 0 0 0 0 0 0 0 0 0
0 0 0 0 0 0 0 0 0 0 0 0 0 0 0 0 0 0 0 0 0 0 0 0 0 0 0 0 0 0 0 0 0 0 0 0 0 0 0 0 0 0 0
0 0 0 0 0 0 0 0 0 0 0 0 0 0 0 0 0 0 0 0 0 0 0 0 0 0 0 0 0 0 0 0 0 0 0 0 0 0 0 0 0 0 0

GFSSE_con_sbcape_012.txt.gz
CAPE
229 710 700 1056 1284 1385 1242 1206 1271 1360 1656 1665 1765 2018 2006 1707 1409 1210 1082 858 754 608 790 886 968 1261 1412 1527 1412 1187 1316 1539 1399 1239 1402 1403 1458 1546 1683 1925 1648 1349 1495
341 795 744 1107 1483 1516 1444 1367 1400 1561 1720 1677 1707 1700 1969 1559 1318 1062 997 828 805 814 821 867 833 1331 1673 1757 1600 1456 1437 1618 1698 1726 1544 1335 1053 1419 1607 1641 1524 1525 1711
378 838 1062 1099 1503 1673 1731 1687 1788 1781 1801 1876 1798 1532 1472 1605 1479 1298 1209 981 745 737 715 914 1048 1627 1480 1077 904 987 1050 1092 1326 1403 1564 800 627 1524 1586 1586 1515 1607 1803
385 784 1083 1038 1465 1952 1909 2006 2143 2038 1965 1845 1747 1655 1589 1618 1568 1516 1002 643 741 827 864 914 1206 1376 1324 1002 662 718 844 769 950 909 1079 981 602 1588 1771 1700 1604 1587 1681
289 583 949 996 1270 1651 1840 2010 2170 2174 2150 2071 2067 2009 1887 1689 1439 1232 849 760 962 1092 1239 1320 1488 1473 1200 901 655 611 828 639 588 595 1202 1153 991 1185 1415 1618 1694 1545 1544
107 342 674 871 1109 1304 1348 1552 1685 1751 1781 1867 1912 1872 1727 1476 1154 520 608 858 900 1113 1049 1061 936 691 636 516 299 317 463 552 396 866 1125 1126 1021 1089 1112 1525 1546 1578 1480
131 300 366 730 919 1151 1128 1182 1325 1483 1592 1694 1707 1593 1536 1042 850 837 705 896 962 973 846 925 765 554 457 747 663 573 422 346 640 889 857 993 1317 1108 1043 1334 1643 1531 1537
173 330 295 555 862 1081 1097 1060 1153 1145 1133 1239 1430 1501 1261 1063 875 811 688 573 486 332 366 420 677 635 398 187 36 54 253 332 754 1074 1074 1032 661 841 997 1120 1427 1274 1506
111 205 405 441 602 697 618 714 854 957 875 810 879 860 792 739 475 334 272 247 179 115 62 48 57 39 4 0 0 0 0 1 886 847 705 704 268 527 847 807 745 995 1210
420 405 638 799 663 696 619 303 484 661 769 597 462 245 213 311 111 13 0 5 21 2 0 0 0 0 0 0 0 0 0 0 238 522 550 332 40 297 453 642 463 299 608
767 996 1096 1049 953 764 507 462 162 373 667 555 470 155 234 458 426 99 0 0 0 0 0 0 0 0 0 0 0 0 0 0 8 12 62 0 0 92 219 336 421 352 429
1124 1309 1472 1559 1379 1040 227 695 709 621 692 961 1047 1167 830 852 641 53 0 0 0 0 0 0 0 0 0 0 0 0 0 0 0 0 6 0 0 28 122 171 236 317 406
1034 1393 1550 1892 1819 1431 562 536 409 401 539 769 1329 1438 1038 975 734 522 382 39 2 0 0 0 0 0 0 0 0 0 0 0 0 0 0 0 0 0 0 0 28 221 348
834 1398 1770 1906 2023 1883 951 508 442 493 486 654 759 1419 1261 932 677 572 217 12 0 0 0 0 0 0 0 0 0 0 0 0 0 0 0 0 0 0 0 0 0 0 157
1282 1694 2094 2236 2192 1469 1160 506 780 859 526 790 777 669 1192 751 501 286 54 0 0 0 0 0 0 0 0 0 0 0 0 0 0 0 0 0 0 0 0 0 0 0 0
1363 1616 2143 2386 2123 729 434 614 454 473 384 485 229 196 720 824 229 60 3 0 0 0 0 0 0 0 0 0 0 0 0 0 0 0 0 0 0 0 0 0 0 0 0
1022 1169 1836 2001 1026 516 279 138 27 8 33 7 13 77 224 322 96 87 29 1 0 0 0 0 0 0 0 0 0 0 0 0 0 0 0 0 0 0 0 0 0 0 0
241 562 1163 895 398 325 67 35 8 4 15 10 12 23 38 56 79 83 43 28 25 31 0 0 0 0 0 0 0 0 0 0 0 0 0 0 0 0 0 0 0 0 0
1 132 704 709 195 75 38 27 33 47 51 11 14 3 1 19 31 64 28 23 59 46 4 0 0 0 0 0 0 0 0 0 0 0 0 0 0 0 0 0 0 0 0
3 142 461 244 54 29 3 0 0 0 0 0 0 0 0 0 0 0 0 6 29 37 20 2 7 0 0 0 0 0 0 0 0 0 0 0 0 0 0 0 0 0 0
0 14 16 2 0 0 0 0 0 0 0 0 0 0 0 0 0 0 0 0 2 2 15 31 24 19 12 5 0 0 0 0 0 0 0 0 0 0 0 0 0 0 0
0 0 0 0 0 0 0 0 0 0 0 0 0 0 0 0 0 0 0 0 0 0 0 16 35 49 37 16 3 0 2 6 16 0 0 0 0 0 0 0 0 0 0
0 0 0 0 0 0 0 0 0 0 0 0 0 0 0 0 0 0 0 0 0 0 0 0 0 13 34 60 118 21 14 38 72 55 5 0 0 0 0 0 0 0 0
0 0 0 0 0 0 0 0 0 0 0 0 0 0 0 0 0 0 0 0 0 0 0 0 0 3 14 21 72 159 102 43 62 101 13 6 0 0 0 0 0 0 0
0 0 0 0 0 0 0 0 0 0 0 0 0 0 0 0 0 0 0 0 0 0 0 0 0 3 12 30 32 47 30 51 44 4 77 9 4 1 0 0 0 0 0
0 0 0 0 0 0 0 0 0 0 0 0 0 0 0 0 0 0 0 0 0 0 1 2 6 12 12 8 12 13 4 0 1 4 20 26 71 4 12 6 1 1 2

GFSSE_con_sbcape_015.txt.gz
CAPE
501 623 857 1045 1122 1268 1095 1045 1138 1484 1666 1745 1770 1660 1495 1338 1234 1110 1030 792 855 936 971 1051 988 1263 1478 1773 1643 1516 1499 1560 1752 1439 1274 1057 1303 1510 1691 1782 1655 1065 1204
559 774 869 1185 1306 1434 1281 1284 1460 1464 1629 1569 1532 1594 1451 1240 1137 1057 1021 935 907 947 943 1047 1030 1905 1880 1470 1401 1363 1407 1459 1616 1848 1686 1277 1194 1449 1630 1587 1805 1074 958
722 772 972 1237 1565 1446 1409 1422 1595 1540 1579 1594 1437 1431 1529 1386 1347 1274 1018 821 883 881 897 1016 1308 1499 1396 1135 889 872 1038 931 1163 1240 1533 477 1014 1585 1716 1557 1468 1533 1259
663 870 1067 1128 1674 1828 1887 1896 1861 1739 1583 1495 1497 1498 1507 1485 1510 1198 800 807 925 1055 1242 1275 1200 1445 1168 915 765 789 948 913 892 1108 811 942 897 1914 1772 1815 1603 1638 1626
395 736 900 1001 1355 1727 1862 1958 2002 1904 1815 1840 1839 1778 1690 1506 1317 956 746 873 987 1156 1178 1204 1289 1280 1234 1029 725 555 646 824 848 783 965 1438 1297 1618 1468 1587 1673 1879 1932
177 418 634 916 1141 1330 1354 1450 1536 1523 1642 1730 1746 1685 1593 1337 692 461 697 848 1026 1068 1048 1000 769 546 416 414 513 574 400 528 812 584 944 1440 1125 1553 1216 1365 1494 1679 1643
11 86 406 689 949 955 891 997 1142 1234 1352 1438 1448 1466 1206 902 872 786 818 815 619 483 552 714 839 812 781 636 563 560 656 652 472 764 838 958 1113 1352 1347 1464 1498 1675 1715
36 90 70 438 739 839 751 815 861 846 894 1035 1264 1241 994 750 605 539 492 380 310 219 203 261 340 259 174 67 7 4 60 202 708 878 955 804 951 963 1210 1266 1184 1124 1263
24 92 145 195 351 592 578 659 728 675 611 577 588 595 622 454 265 162 135 126 103 60 25 5 7 3 0 0 0 0 0 0 156 547 488 491 460 663 759 939 893 823 745
66 310 402 413 354 544 643 415 515 582 566 404 288 145 179 324 157 30 5 15 1 0 0 0 0 0 0 0 0 0 0 0 24 61 257 63 152 327 501 627 717 605 350
345 616 562 572 409 241 85 325 104 403 586 482 441 226 266 524 366 257 0 0 0 0 0 0 0 0 0 0 0 0 0 0 0 0 52 13 35 147 327 320 380 535 487
534 622 812 1071 725 353 2 213 261 170 430 511 633 827 582 650 514 188 3 0 0 0 0 0 0 0 0 0 0 0 0 0 0 0 5 0 0 0 45 157 242 344 380
541 379 707 1768 1324 610 221 51 117 136 211 363 682 882 622 681 565 380 237 118 81 4 13 2 5 6 1 0 0 0 0 0 0 0 0 0 0 0 0 0 0 47 273
281 396 657 1683 1855 1119 354 81 119 121 284 235 536 519 439 326 295 214 21 2 4 4 1 4 2 5 4 0 0 0 0 0 0 0 0 0 0 0 0 0 0 0 28
271 446 648 1351 2323 1024 537 133 206 300 296 441 290 192 219 182 135 7 0 0 0 2 4 2 0 0 0 0 0 0 0 0 0 0 0 0 0 0 0 0 0 0 0
412 519 695 1240 2282 998 107 166 215 270 224 179 27 29 58 141 127 61 37 16 1 0 0 0 0 0 0 0 0 0 0 0 0 0 0 0 0 0 0 0 0 0 0
366 465 909 1516 2047 788 161 79 34 4 1 0 0 10 29 71 74 92 57 65 47 66 114 36 6 7 6 2 0 0 0 0 0 0 0 0 0 0 0 0 0 0 0
218 209 497 1439 1682 722 41 27 15 4 5 14 19 20 24 50 52 82 45 59 117 127 44 62 6 6 9 7 7 0 0 0 0 0 0 0 0 0 0 0 0 0 0
13 20 297 1397 1161 363 71 39 50 46 66 35 36 11 0 4 0 23 31 62 197 106 175 126 91 96 43 22 7 14 5 0 0 0 0 0 0 0 0 0 0 0 0
3 129 493 1135 557 154 56 29 2 0 0 2 0 0 0 1 0 0 2 58 60 7 44 86 225 119 199 147 15 13 63 6 1 10 1 0 0 1 0 0 0 0 0
82 286 460 212 4 0 0 0 0 0 1 1 10 4 3 0 0 0 0 0 1 0 21 95 113 149 125 240 229 192 137 102 68 7 4 3 3 4 11 0 3 0 0
0 0 0 0 0 0 0 0 0 0 1 3 16 0 0 0 0 0 0 0 0 0 5 37 90 81 118 200 261 272 212 114 161 132 69 20 16 1 9 24 21 0 0
0 0 0 0 0 0 0 0 0 0 0 0 0 0 0 0 0 0 0 0 0 0 0 21 32 63 47 72 257 285 171 120 206 236 338 183 177 80 5 1 14 0 0
0 0 0 0 0 0 0 0 0 0 0 0 0 0 0 0 0 0 0 0 2 1 6 15 11 93 107 58 108 60 282 262 170 159 226 247 98 93 197 51 18 0 0
0 0 0 0 0 0 0 0 0 0 0 0 0 0 0 0 0 0 0 0 0 0 3 9 8 19 21 27 29 28 8 6 17 1 39 152 55 21 7 84 36 14 9
0 0 0 0 0 0 0 0 0 0 0 0 0 0 0 0 0 0 0 0 6 10 22 23 16 5 9 8 7 6 8 9 3 5 1 14 13 75 27 13 24 40 23

GFSSE_con_sbcape_018.txt.gz
CAPE
479 539 1000 1152 1418 1221 1195 1252 1344 1501 1602 1734 1564 1425 1238 1160 1209 1016 1120 1196 1227 1072 1132 1210 1124 1814 1767 1572 1468 1429 1438 1672 1908 2033 1838 1371 1188 1317 1583 1903 1519 802 1247
628 702 985 1340 1452 1342 1310 1419 1552 1516 1554 1597 1566 1483 1366 1264 1201 1171 953 973 1016 998 1081 1270 1354 1526 1435 1185 1022 1034 1213 1353 1435 1605 1756 1352 1573 1374 1369 1811 1361 531 758
577 758 929 1276 1428 1450 1570 1665 1547 1611 1557 1490 1565 1566 1425 1282 1226 989 861 895 992 1152 1252 1179 1399 1504 1247 996 819 791 910 1230 1258 1322 1496 778 585 1628 1499 1622 1849 1935 1441
813 843 1067 1255 1491 1644 1781 1792 1627 1510 1425 1573 1510 1365 1316 1344 1168 869 761 919 1019 1131 1174 1259 1400 1353 1210 1049 837 689 700 916 1076 1111 413 384 1090 1079 1495 1572 1656 1789 1781
664 736 881 1076 1327 1580 1684 1767 1740 1739 1767 1790 1769 1574 1410 1231 742 560 684 820 963 979 972 879 737 582 564 511 541 525 490 688 863 536 299 587 838 907 909 1369 1600 1853 1669
380 523 553 799 1068 1278 1395 1490 1451 1465 1575 1616 1625 1384 1152 700 465 564 774 824 648 566 656 729 687 626 660 617 589 595 635 700 650 92 234 540 781 1098 1005 1158 1513 1496 1310
151 326 387 626 887 1002 1046 972 1158 1229 1295 1341 1327 1044 821 709 645 594 490 359 296 237 293 504 537 415 273 135 67 77 211 289 244 318 422 768 917 1181 1251 1399 1407 1201 1319
34 38 68 668 830 810 901 907 873 887 972 1191 1213 911 651 467 385 363 291 223 131 77 49 47 61 70 40 2 0 0 0 12 2 84 801 683 1066 1045 1013 1154 1340 1028 945
0 0 24 49 379 541 543 616 633 648 611 666 663 588 507 372 279 172 120 82 33 2 0 0 0 0 0 0 0 0 0 0 0 0 289 288 920 771 781 827 835 907 815
34 116 203 288 267 271 123 417 513 530 449 390 297 204 269 278 215 77 114 20 0 0 0 0 0 0 0 0 0 0 0 0 0 0 128 172 517 599 573 517 635 750 770
113 491 394 279 311 451 340 243 434 605 491 360 350 186 111 297 222 105 0 0 0 0 0 0 0 0 0 0 0 0 0 0 0 0 0 91 62 101 269 399 389 464 613
455 473 730 727 518 235 1 193 586 580 442 557 727 792 715 672 489 148 59 0 2 0 4 0 0 0 0 0 0 0 0 0 0 0 0 0 0 0 0 42 139 225 403
307 414 873 1496 1031 588 507 13 414 417 482 1032 1340 684 864 550 869 409 308 99 0 8 16 0 2 0 17 0 0 0 0 0 0 0 0 0 0 0 0 0 0 0 122
389 245 1236 1579 1606 898 522 267 315 433 342 585 534 697 533 367 418 165 58 0 0 0 1 8 0 20 3 13 0 0 0 0 0 0 0 0 0 0 0 0 0 0 0
165 409 577 1640 2033 1398 682 646 629 578 804 497 486 454 369 250 352 222 81 25 0 0 0 0 0 0 0 0 0 0 0 0 0 0 0 0 0 0 0 0 0 0 0
345 652 1068 1402 2334 1289 318 325 529 711 743 634 182 46 96 160 271 184 77 65 21 0 0 0 0 0 0 0 0 0 0 0 0 0 0 0 0 0 0 0 0 0 0
390 405 853 355 2083 1113 256 201 196 95 1 35 60 37 42 71 89 129 93 69 78 96 77 26 1 0 0 0 0 0 0 0 0 0 0 0 0 0 0 0 0 0 0
290 70 421 1029 1903 1087 507 145 79 81 63 44 53 85 32 37 87 100 92 97 119 130 86 79 59 21 0 0 0 0 0 0 0 0 0 0 0 0 0 0 0 0 0
38 92 160 1705 1583 1060 283 85 109 79 68 99 27 30 9 2 61 15 14 41 81 37 27 27 3 6 11 0 0 0 0 0 0 0 0 0 0 0 0 0 0 0 0
206 210 487 707 501 313 131 49 32 21 15 23 9 4 3 0 2 0 0 11 57 0 0 0 4 3 11 16 15 5 0 0 0 0 0 0 0 0 0 0 0 0 0
390 131 258 22 4 0 0 0 0 0 0 8 5 38 0 0 0 0 0 0 0 0 0 0 0 0 0 0 6 0 0 11 11 0 0 0 0 0 0 0 0 0 0
0 0 0 0 0 0 0 0 0 0 7 2 9 1 3 0 0 0 0 0 0 0 0 0 0 0 0 1 26 15 6 0 0 13 34 0 0 0 0 0 0 0 0
0 0 0 0 0 0 0 0 0 0 0 0 0 0 0 0 0 0 0 0 0 0 0 0 0 0 0 0 0 48 27 3 3 0 0 8 12 24 20 1 0 0 0
0 0 0 0 0 0 0 0 0 0 0 0 0 0 0 0 0 0 0 0 0 0 0 0 3 3 4 0 0 0 0 0 1 0 0 3 37 84 83 22 0 0 0
0 0 0 0 0 0 0 0 0 0 0 0 0 0 0 0 0 0 0 0 0 0 0 20 5 0 0 0 0 0 0 0 0 0 0 0 0 0 0 0 0 0 0
0 0 0 0 0 0 0 0 0 1 0 0 0 0 0 0 0 0 0 0 2 11 0 0 0 0 0 0 1 2 1 3 1 2 3 0 1 0 0 0 0 0 0

GFSSE_con_sbcape_021.txt.gz
CAPE
388 652 976 1047 972 967 1067 1136 1180 1308 1409 1377 1151 1038 1083 1045 1100 1119 1157 1211 1226 1048 1098 1250 1568 1507 1441 1270 1144 1161 1209 1214 1397 1450 1396 1496 1157 1432 1739 1366 1784 1089 1391
617 811 942 1013 1051 1154 1295 1281 1263 1392 1395 1148 1073 1170 1189 1223 1007 815 863 1004 1111 1128 1153 1259 1423 1381 1182 984 883 870 992 1305 1330 1341 1171 1163 898 1573 1501 1538 813 1339 1565
600 848 940 961 1185 1364 1338 1379 1409 1394 1241 1224 1164 1360 1328 951 777 726 771 951 972 1018 1121 1193 1285 1331 1167 1052 872 737 730 900 1198 1148 1034 267 891 1262 988 932 1489 1249 1167
743 870 937 1045 1257 1429 1360 1314 1300 1322 1278 1433 1328 1155 1102 949 720 627 672 844 811 833 912 795 750 638 606 544 547 580 616 673 881 890 170 171 738 1129 700 428 1132 1906 2131
696 854 938 1035 1201 1367 1406 1449 1472 1530 1531 1517 1520 1249 896 551 467 500 671 932 650 615 556 522 446 422 490 535 545 564 613 651 802 392 0 307 1008 237 0 1 1062 1203 1416
315 469 715 832 993 1201 1277 1272 1305 1349 1332 1345 1312 893 615 520 535 612 515 325 300 293 385 450 479 387 243 153 98 79 147 243 372 4 31 658 824 422 287 686 947 1201 1422
174 270 446 619 801 968 1009 924 1098 1132 1108 1173 1069 966 621 548 437 332 264 165 102 76 85 88 77 74 43 20 8 14 6 4 0 0 57 627 1006 1463 1271 1143 814 914 1186
32 77 277 568 617 681 751 717 702 768 939 985 942 855 459 446 441 243 148 66 19 2 0 0 0 0 0 0 1 0 0 0 0 0 235 623 1526 1367 1246 1070 1005 897 880
0 0 52 183 313 344 355 359 368 423 532 572 543 534 359 301 262 286 139 31 4 0 0 0 0 0 0 0 0 0 0 0 0 0 59 201 1248 1146 1013 1021 949 846 794
0 0 0 0 6 21 58 185 172 176 188 131 168 246 194 181 129 107 98 60 1 0 0 0 0 0 0 0 0 0 0 0 0 0 0 72 729 671 647 565 505 602 734
0 0 0 0 0 0 0 106 248 259 225 147 122 102 37 26 57 0 22 41 25 0 0 0 0 0 0 0 0 0 0 0 0 0 0 15 29 73 172 297 330 353 473
40 31 0 0 12 17 1 23 17 98 130 92 87 82 27 24 40 53 0 0 4 0 0 0 0 0 0 0 0 0 0 0 0 0 0 0 0 0 0 0 28 108 270
81 176 101 0 0 0 4 0 28 57 83 155 211 38 3 97 13 0 0 0 0 3 0 0 0 0 0 0 0 0 0 0 0 0 0 0 0 0 0 0 0 0 0
53 303 355 143 65 29 0 0 0 0 3 124 125 3 0 0 0 0 0 0 0 0 0 0 0 0 0 0 0 0 0 0 0 0 0 0 0 0 0 0 0 0 0
22 474 700 468 214 194 4 0 13 68 8 1 13 0 0 1 0 0 0 0 0 0 0 0 0 0 0 0 0 0 0 0 0 0 0 0 0 0 0 0 0 0 0
3 422 881 706 938 267 66 10 72 55 22 17 0 0 0 0 0 0 0 0 0 0 0 0 0 0 0 0 0 0 0 0 0 0 0 0 0 0 0 0 0 0 0
2 831 371 11 0 552 8 2 1 26 0 0 0 0 0 0 0 0 0 0 0 0 0 0 0 0 0 0 0 0 0 0 0 0 0 0 0 0 0 0 0 0 0
150 277 498 568 0 133 1 0 0 0 0 0 0 0 0 0 0 0 0 0 0 0 0 0 0 0 0 0 0 0 0 0 0 0 0 0 0 0 0 0 0 35 0
0 59 231 638 230 78 0 0 0 0 0 0 0 0 0 0 0 0 0 0 0 0 0 0 0 0 0 0 0 0 0 0 0 0 0 0 0 0 0 0 0 8 1
0 0 0 0 0 0 0 0 0 0 0 0 0 0 0 0 0 0 0 0 0 0 0 0 0 0 0 0 0 0 0 0 0 0 0 0 0 0 0 0 0 0 0
0 0 0 0 0 0 0 0 0 0 0 0 0 0 0 0 0 0 0 0 0 0 0 0 0 0 0 0 0 0 0 0 0 0 0 0 0 0 0 0 0 0 0
0 0 0 0 0 0 0 0 0 0 0 0 0 0 0 0 0 0 0 0 0 0 0 0 0 0 0 0 0 0 0 0 0 0 0 0 0 0 0 0 0 0 0
0 0 0 0 0 0 0 0 0 0 0 0 0 0 0 0 0 0 0 0 0 0 0 0 0 0 0 0 0 0 0 7 0 0 0 0 0 0 0 0 0 0 0
0 0 0 0 0 0 0 0 0 0 0 0 0 0 0 0 0 0 0 0 0 0 0 0 0 0 0 0 0 0 0 1 4 0 0 0 0 0 0 0 0 0 0
0 0 0 0 0 0 0 0 0 0 0 0 0 0 0 0 0 0 0 0 0 0 0 0 0 0 0 0 1 1 0 0 0 0 0 0 0 0 0 0 0 0 4
0 0 0 0 0 0 0 0 0 0 0 0 0 0 0 0 0 0 0 0 0 0 0 0 0 0 0 0 0 0 1 3 4 2 2 0 0 0 0 0 0 0 0

GFSSE_con_sbcape_024.txt.gz
CAPE
403 703 729 870 969 990 1000 1056 1114 1171 1233 1016 879 844 885 827 823 973 1037 1205 1214 991 1128 1203 1170 1113 1001 901 884 938 1046 1102 1069 1084 1257 1294 1358 1090 1399 1654 1397 1580 1593
599 674 707 917 1124 1107 1141 1159 1175 1204 1153 902 845 892 936 769 710 750 829 913 985 925 966 1067 1068 1010 930 915 805 760 771 833 998 856 1036 853 817 1132 1069 1276 817 1726 1529
689 654 717 945 1150 1254 1270 1337 1354 1315 1031 959 978 909 784 669 634 660 686 699 700 749 751 683 616 626 583 487 477 528 602 654 645 651 529 60 1335 1354 1154 1167 1150 1218 1694
698 667 825 1020 1076 1131 1165 1236 1204 1113 1046 1012 978 895 745 575 476 456 635 723 637 486 337 290 287 308 351 395 406 457 510 532 506 497 0 0 897 1288 820 870 1198 1426 1747
644 745 936 995 1040 1142 1196 1239 1253 1291 1302 1335 1203 746 500 410 438 525 462 360 264 255 261 284 290 290 192 135 99 91 87 111 168 5 0 565 838 799 947 482 850 1282 1478
507 619 732 883 1012 1141 1201 1183 1241 1229 1187 1178 956 614 435 457 427 258 213 147 81 74 78 75 68 48 32 22 11 7 0 0 1 0 0 805 490 305 369 150 1085 1417 1208
238 402 532 709 848 982 937 922 1022 1038 1051 948 930 817 500 337 261 180 90 37 14 4 2 0 0 0 0 3 1 9 8 0 0 0 43 334 318 1319 1319 1272 1428 1056 1342
157 238 383 581 678 741 803 800 764 776 763 781 824 743 419 369 276 147 66 21 0 0 0 0 0 0 0 0 0 0 0 0 0 0 0 334 865 1458 1227 973 1169 1045 1059
4 44 126 256 363 343 325 350 402 590 702 697 642 505 403 299 303 240 75 8 0 0 0 0 0 0 0 0 0 0 0 0 0 0 76 149 934 1076 1069 1047 1025 935 975
0 0 0 5 5 6 48 189 217 279 287 322 322 222 128 105 128 143 85 29 0 0 0 0 0 0 0 0 0 0 0 0 0 0 0 2 764 801 784 725 728 782 820
0 0 0 0 0 0 0 66 203 266 181 136 144 161 76 42 24 0 23 0 36 0 0 0 0 0 0 0 0 0 0 0 0 0 0 0 319 308 290 396 420 408 478
0 0 0 0 0 0 0 49 11 44 26 3 23 28 0 0 6 2 0 75 97 16 6 9 9 0 0 0 0 0 0 0 0 0 0 0 0 0 0 0 24 85 188
0 0 0 0 0 0 1 0 0 2 0 11 34 79 12 25 21 36 0 0 0 0 0 0 0 0 0 0 0 0 0 0 0 0 0 0 0 0 0 0 0 0 0
15 5 0 0 0 0 0 0 0 4 29 74 38 0 0 0 0 0 0 0 0 0 0 0 0 0 0 0 0 0 0 0 0 0 0 0 0 0 0 0 0 0 0
99 10 0 0 0 0 0 0 0 0 9 31 0 0 0 0 0 0 0 0 0 0 0 0 0 0 0 0 0 0 0 0 0 0 0 0 0 0 0 0 0 0 0
257 316 201 320 329 28 0 0 0 0 0 0 0 0 0 0 0 0 0 0 0 0 0 0 0 0 0 0 0 0 0 0 0 0 0 0 0 0 0 0 0 0 0
453 614 519 398 113 220 3 0 0 1 0 0 0 0 0 0 0 0 0 0 0 0 0 0 0 0 0 0 0 0 0 0 0 0 0 0 0 0 0 4 3 0 0
812 710 412 304 34 50 139 0 0 0 0 0 0 0 0 0 0 0 0 0 0 0 0 0 0 0 0 0 0 0 0 0 0 0 0 0 0 0 0 0 15 29 29
329 428 216 31 0 81 3 0 0 0 0 0 0 0 0 0 0 0 0 0 0 0 0 0 0 0 0 0 0 0 0 0 0 0 0 0 0 0 0 0 8 16 31
0 21 17 3 14 24 0 0 0 0 0 0 0 0 0 0 0 0 0 0 0 0 0 0 0 0 0 0 0 0 0 0 0 0 0 0 0 0 0 0 0 0 11
0 0 0 0 0 0 0 0 0 0 0 0 0 0 0 0 0 0 0 0 0 0 0 0 0 0 0 0 0 0 0 0 0 0 0 0 0 0 0 0 0 0 0
0 0 0 0 0 0 0 0 0 0 0 0 0 0 0 0 0 0 0 0 0 0 0 0 0 0 0 0 0 0 1 0 0 0 0 0 0 0 0 0 0 0 0
0 0 0 0 0 0 0 0 0 0 0 0 0 0 0 0 0 0 0 0 0 0 0 0 0 0 0 0 0 0 4 4 0 0 0 0 0 0 0 0 0 0 1
0 0 0 0 0 0 0 0 0 0 0 0 0 0 0 0 0 0 0 0 0 0 0 0 0 1 7 3 9 0 0 4 0 0 0 0 0 0 0 0 0 0 1
0 0 0 0 0 0 0 0 0 0 0 0 0 0 0 0 0 0 0 0 0 0 0 0 0 0 0 0 0 0 0 0 0 0 0 0 0 0 0 0 0 0 3
0 0 0 0 0 0 0 0 0 0 0 0 0 0 0 0 0 0 0 0 0 0 0 0 0 0 0 0 0 0 0 1 1 4 4 0 0 0 0 0 0 0 2

GFSSE_con_sbcape_027.txt.gz
CAPE
428 544 683 933 978 1025 1065 1055 1042 1026 960 799 720 686 651 644 649 704 819 1071 1131 913 897 843 797 769 766 722 640 600 593 674 696 909 1047 1092 1193 954 1504 1778 1683 1824 1496
456 497 678 918 1018 1067 1098 1104 1075 1013 876 742 708 653 632 631 642 645 646 594 555 626 648 612 576 550 482 365 317 375 403 447 447 560 661 580 893 1023 1238 1191 1510 1667 1750
529 518 724 890 1108 1205 1198 1110 1161 894 814 826 734 660 616 590 525 450 499 525 442 284 203 190 208 196 218 250 257 343 359 324 331 454 219 3 1132 1215 779 1132 1329 1723 1795
489 551 748 967 1091 1222 1227 1199 1139 923 841 826 751 687 595 443 402 474 470 319 160 132 127 127 148 140 91 34 17 15 19 20 81 38 0 0 440 1271 805 803 968 1381 1738
490 667 805 809 939 1125 1119 1122 1113 1103 1089 954 775 532 383 411 420 301 256 169 100 74 66 48 30 21 14 0 0 0 0 0 0 0 0 7 523 1024 1048 492 627 1091 1222
563 629 654 787 922 1084 1156 1127 1135 1140 1111 950 731 426 447 388 219 173 130 58 31 16 6 0 0 0 0 0 0 0 0 0 0 0 0 103 354 314 315 150 770 1480 1289
405 523 619 753 893 1049 978 981 1006 989 907 840 800 701 392 277 178 99 47 16 7 0 0 0 0 0 0 0 0 0 0 0 0 0 0 21 250 793 1103 1171 1353 1303 1443
426 378 517 691 770 849 927 911 825 830 739 753 786 732 402 335 257 96 34 3 0 0 0 0 0 0 0 0 0 0 0 0 0 0 0 51 433 1087 1160 1108 1207 1215 1245
163 153 269 367 487 541 515 498 473 520 542 577 592 593 467 374 237 169 45 14 0 0 0 0 0 0 0 0 0 0 0 0 0 0 0 0 355 605 583 605 781 938 1076
0 5 0 32 64 28 96 235 289 360 383 397 347 226 88 102 109 109 49 40 2 0 0 0 0 0 0 0 0 0 0 0 0 0 0 0 300 665 691 600 523 667 825
0 0 0 0 0 0 0 27 170 265 252 233 183 120 43 0 0 0 35 29 62 21 1 4 9 0 0 0 0 0 0 0 0 0 0 0 29 272 282 83 240 398 485
0 0 0 0 0 0 0 2 0 21 3 1 9 5 0 0 0 0 0 60 185 172 146 97 42 19 0 0 0 0 0 0 0 0 0 0 3 59 0 0 0 9 53
0 0 0 0 0 0 0 0 0 0 0 0 13 11 10 5 0 0 0 0 0 0 0 0 0 0 0 0 0 0 0 0 0 0 0 0 0 0 0 0 0 0 0
0 0 0 0 0 0 0 0 0 0 1 2 2 1 0 0 0 0 0 0 0 0 0 0 0 0 0 0 0 0 0 0 0 0 0 0 0 0 0 0 0 0 0
0 0 0 0 0 0 0 0 0 6 14 23 26 0 0 0 0 0 0 0 0 0 0 0 0 0 0 0 0 0 0 0 0 0 0 0 0 0 0 0 0 0 0
1 1 0 0 0 0 0 0 0 0 0 0 0 0 0 0 0 0 0 0 0 0 0 0 0 0 0 0 0 0 0 0 0 0 0 0 0 0 0 0 2 0 0
69 48 0 16 0 0 0 0 0 0 0 0 0 0 0 0 0 0 0 0 0 0 0 0 0 0 0 0 0 0 0 0 0 0 0 0 0 0 0 0 0 23 58
215 145 146 86 0 1 0 0 0 0 0 0 0 0 0 0 0 0 0 0 0 0 0 0 0 0 0 0 0 0 0 0 0 0 0 0 0 0 0 0 0 0 64
360 104 0 0 0 0 0 0 0 0 0 0 0 0 0 0 0 0 0 0 0 0 0 0 0 0 0 0 0 0 0 0 0 0 0 0 0 0 0 0 0 0 0
0 0 0 0 0 0 0 0 0 0 0 0 0 0 0 0 0 0 0 0 0 0 0 0 0 0 0 0 0 0 0 0 0 0 0 0 0 0 0 0 0 0 0
0 0 0 0 0 0 0 0 0 0 0 0 0 0 0 0 0 0 0 0 0 0 0 0 0 0 0 0 0 0 0 0 0 0 0 0 0 0 0 0 0 0 0
0 0 0 0 0 0 0 0 0 0 0 0 0 0 0 0 0 0 0 0 0 0 0 0 0 0 0 0 0 0 0 0 0 0 0 0 0 0 0 0 0 0 0
0 0 0 0 0 0 0 0 0 0 0 0 0 0 0 0 0 0 0 0 0 0 0 0 0 0 0 0 0 0 0 0 0 0 0 0 0 0 0 0 0 0 0
0 0 0 0 0 0 0 0 0 0 0 0 0 0 0 0 0 0 0 0 0 0 0 0 0 0 0 0 0 0 0 0 25 1 0 0 0 0 0 0 0 0 0
0 0 0 0 0 0 0 0 0 0 0 0 0 0 0 0 0 0 0 0 0 0 0 0 0 0 0 0 0 0 0 0 0 9 0 0 0 0 0 0 0 0 0
0 0 0 0 0 0 0 0 0 0 0 0 0 0 0 0 0 0 0 0 0 0 0 0 0 0 0 0 0 0 0 16 13 32 13 0 2 0 0 0 0 0 0

GFSSE_con_sbcape_030.txt.gz
CAPE
375 443 817 1070 1114 1131 1007 949 889 871 837 683 624 581 585 583 639 654 688 864 624 511 503 458 410 321 226 181 234 281 296 320 362 406 578 705 866 1065 1576 1895 1921 1705 1778
420 431 779 1000 1151 1121 1049 1020 940 871 784 616 573 562 542 548 527 429 424 435 383 229 135 125 104 118 121 135 177 187 160 157 257 377 324 480 991 1005 1087 1303 1568 1764 1750
445 525 721 920 1094 1093 1048 977 998 794 711 636 578 544 532 438 353 410 371 186 103 88 63 78 60 15 1 0 0 0 0 0 17 77 136 0 171 1134 722 1045 1499 1438 1728
461 581 734 984 1076 1140 1108 1060 886 778 719 637 581 546 394 362 353 252 158 134 81 20 7 0 0 0 0 0 0 0 0 0 0 0 0 0 10 1058 954 517 813 1235 1475
518 611 840 913 1001 1092 1052 1013 966 951 851 724 592 384 361 332 190 125 86 83 24 3 0 0 0 0 0 0 0 0 0 0 0 0 0 0 297 436 1058 458 63 878 1226
634 602 636 760 870 1029 1069 1024 958 956 902 730 578 377 323 198 112 54 43 23 4 0 0 0 0 0 0 0 0 0 0 0 0 0 0 0 127 685 599 889 1052 955 872
452 517 542 679 843 1016 963 920 980 899 786 696 657 584 271 148 80 31 14 0 0 0 0 0 0 0 0 0 0 0 0 0 0 0 0 0 19 1029 1134 1323 1146 1296 1198
415 473 527 701 841 926 977 950 834 737 685 715 742 646 365 297 194 31 0 0 0 0 0 0 0 0 0 0 0 0 0 0 0 0 0 0 212 777 542 1067 1218 1159 1220
281 311 383 538 662 730 706 598 566 528 533 574 577 499 439 251 147 59 27 12 0 0 21 76 64 33 58 11 0 0 0 0 0 0 0 0 145 491 442 474 714 766 885
89 96 143 228 243 176 257 318 328 348 340 376 383 256 118 49 15 19 0 15 80 118 130 216 176 131 105 64 0 0 0 0 0 0 0 0 1 28 142 361 247 256 344
0 0 0 0 0 0 0 116 308 360 299 285 224 102 18 0 0 0 0 76 164 256 208 173 199 64 27 0 0 0 0 0 0 0 0 0 0 0 62 63 227 78 70
0 0 0 0 0 0 0 1 0 22 26 19 18 13 0 0 0 0 0 12 30 0 0 0 0 0 0 0 0 0 0 0 0 0 0 0 0 0 0 0 99 40 0
0 0 0 0 0 0 0 0 0 0 0 0 0 0 0 0 0 0 0 0 0 0 0 0 0 0 0 0 0 0 0 0 0 0 0 0 0 0 0 0 27 25 3
0 0 0 0 0 0 0 0 0 0 0 0 5 27 0 0 0 0 0 0 0 0 0 0 0 0 0 0 0 0 0 0 0 0 0 0 0 0 0 0 0 85 29
0 0 0 0 0 0 0 0 0 0 5 0 13 0 0 0 0 0 0 0 0 0 0 0 0 0 0 0 0 0 0 0 0 0 0 0 0 0 0 0 0 0 50
0 0 0 0 0 0 0 0 0 0 0 0 0 0 0 0 0 0 0 0 0 0 0 0 0 0 0 0 0 0 0 0 0 0 0 0 0 0 0 0 0 0 0
0 0 0 0 0 0 0 0 0 0 0 0 0 0 0 0 0 0 0 0 0 0 0 0 0 0 0 0 0 0 0 0 0 0 0 0 0 0 0 0 0 0 0
0 5 16 0 0 0 0 0 0 0 0 0 0 0 0 0 0 0 0 0 0 0 0 0 0 0 0 0 0 0 0 0 0 0 0 0 0 0 0 0 0 0 0
7 0 0 0 0 0 0 0 0 0 0 0 0 0 0 0 0 0 0 0 0 0 0 0 0 0 0 0 0 0 0 0 0 0 0 0 0 0 0 0 0 0 0
0 0 0 1 0 0 0 0 0 0 0 0 0 0 0 0 0 0 0 0 0 0 0 0 0 0 0 0 0 0 0 0 0 0 0 0 0 0 0 0 0 0 0
0 0 0 0 0 0 0 0 0 0 0 0 0 0 0 0 0 0 0 0 0 0 0 0 0 0 0 0 0 0 0 0 0 0 0 0 0 0 0 0 0 0 0
0 0 0 0 0 0 0 0 0 0 0 0 0 0 0 0 0 0 0 0 0 0 0 0 0 0 0 0 0 0 0 0 0 0 0 0 0 0 0 0 0 0 0
0 0 0 0 0 0 0 0 0 0 0 0 0 0 0 0 0 0 0 0 0 0 0 0 0 0 0 0 0 0 0 0 0 0 0 0 0 0 0 0 0 0 0
0 0 0 0 0 0 0 0 0 0 0 0 0 0 0 0 0 0 0 0 0 0 0 0 0 0 0 0 0 0 0 0 7 9 9 8 0 0 0 0 0 0 0
0 0 0 0 0 0 0 0 0 0 0 0 0 0 0 0 0 0 0 0 0 0 0 0 0 0 0 0 0 0 0 0 0 19 10 4 0 0 0 0 0 0 0
0 0 0 0 0 0 0 0 0 0 0 0 0 0 0 0 0 0 0 0 0 0 0 0 0 0 0 0 0 0 0 1 3 23 7 0 0 0 0 0 0 0 0

GFSSE_con_sbcape_033.txt.gz
CAPE
407 644 670 705 1219 1075 955 878 809 792 818 753 632 641 725 625 634 699 705 703 404 228 135 102 96 104 127 144 128 82 74 84 193 310 333 671 971 903 1124 1245 1449 1298 1599
570 781 686 760 1160 1092 1035 954 883 879 791 543 514 535 534 461 392 398 360 236 94 37 37 29 3 1 0 0 0 0 0 11 15 66 263 166 903 971 691 1046 1507 1114 1457
651 815 763 782 1139 1147 1048 1043 1044 827 608 542 513 500 391 323 355 235 107 233 54 0 0 0 0 0 0 0 0 0 0 0 0 0 0 292 402 1037 803 875 1464 1301 1414
721 852 826 847 1100 1155 1114 1086 1019 735 620 564 536 376 312 307 208 120 102 243 84 0 0 0 0 0 0 0 0 0 0 0 0 0 184 415 636 831 931 440 160 732 916
882 923 994 967 1055 1188 1110 962 969 885 800 734 584 357 332 202 96 74 58 147 14 0 0 0 0 0 0 0 0 0 0 0 0 6 146 654 844 712 760 906 718 743 1143
909 982 889 919 1027 1164 1142 1079 1008 921 809 705 586 446 229 109 23 29 23 28 0 0 0 0 0 0 0 0 0 0 0 0 0 1 179 498 792 1008 895 1445 1166 1004 1030
779 1011 1089 804 961 1141 1025 928 989 880 729 689 683 563 325 48 12 0 0 0 0 0 0 0 0 0 0 5 0 0 0 0 0 0 0 0 336 664 521 583 1054 1057 885
627 901 929 748 857 968 1051 1037 860 699 671 697 712 588 396 225 143 0 0 0 0 0 0 0 0 0 3 0 0 0 0 0 0 0 0 0 4 79 159 365 978 843 684
547 683 790 779 844 838 872 709 559 538 565 610 601 528 370 225 164 163 144 90 37 55 59 39 36 56 25 7 0 0 0 0 0 0 0 0 0 0 0 95 582 522 463
455 722 747 775 760 788 693 470 392 388 395 395 396 247 88 49 58 138 1 141 193 167 133 106 122 52 0 0 0 0 0 0 0 0 0 0 0 0 0 0 25 87 173
463 489 431 488 501 439 378 382 306 341 303 291 261 58 31 98 90 69 22 113 132 7 3 0 0 0 0 0 0 0 0 0 0 0 0 0 0 0 0 0 155 264 91
425 249 165 210 185 102 47 301 327 284 247 278 240 279 173 171 153 118 32 0 0 0 0 0 0 0 0 0 0 0 0 0 0 0 0 0 0 0 0 0 106 111 66
117 66 27 55 22 2 12 110 74 189 172 168 200 166 193 158 170 224 20 0 0 0 0 0 0 0 0 0 0 0 0 0 0 0 0 0 0 0 0 0 0 22 180
0 0 0 0 0 0 0 0 0 64 130 236 300 370 291 97 0 0 0 0 0 0 0 0 0 0 0 0 0 0 0 0 0 0 0 0 0 0 0 0 0 0 0
0 0 1 0 0 0 0 0 2 40 161 184 261 20 0 0 0 0 0 0 0 0 0 0 0 0 0 0 0 0 0 0 0 0 0 0 0 0 0 0 0 0 0
0 0 0 3 0 0 0 1 11 72 119 144 1 0 0 0 0 0 0 0 0 0 0 0 0 0 0 0 0 0 0 0 0 0 0 0 0 0 0 0 0 0 0
0 0 39 8 0 0 0 0 0 0 0 0 0 0 0 0 0 0 0 0 0 0 0 0 0 0 0 0 0 0 0 0 0 0 0 0 0 0 0 0 0 0 0
45 236 68 0 0 0 0 0 0 0 0 0 0 0 0 0 0 0 0 0 0 0 0 0 0 0 0 0 0 0 0 0 0 0 0 0 0 0 0 0 0 0 0
246 92 1 0 0 0 0 0 0 0 0 0 0 0 0 0 0 0 0 0 0 0 0 0 0 0 0 0 0 0 0 0 0 0 0 0 0 0 0 0 0 0 0
113 16 2 4 1 0 1 0 0 0 0 0 0 0 0 0 0 0 0 0 0 0 0 0 0 0 0 0 0 0 0 0 0 0 0 0 0 0 0 0 0 0 0
5 0 0 0 1 0 0 0 0 0 0 0 0 0 0 0 0 0 0 0 0 0 0 0 0 0 0 0 0 0 0 0 0 0 0 0 0 0 0 0 0 0 0
1 0 0 0 0 0 0 0 0 0 0 0 0 0 0 0 0 0 0 0 0 0 0 0 0 0 0 0 0 0 0 0 0 0 0 0 0 0 0 0 0 0 0
0 0 0 0 0 0 0 0 0 0 0 0 0 0 0 0 0 0 0 0 0 0 0 0 0 0 0 0 0 0 0 0 3 0 0 0 0 1 3 6 3 4 2
0 0 0 0 0 0 0 0 0 0 0 0 0 0 0 0 0 0 0 0 0 0 0 0 0 0 0 0 0 0 6 20 10 4 9 27 30 16 4 1 3 8 10
0 0 0 0 0 0 0 0 0 0 0 0 0 0 0 0 0 0 0 0 0 0 0 0 0 2 4 3 3 5 11 15 22 33 18 9 17 22 40 7 14 26 24
0 0 0 0 0 0 0 0 0 0 0 0 0 0 0 0 0 0 0 0 0 0 0 0 12 24 37 23 15 19 25 19 14 29 32 18 12 7 24 35 15 0 35

GFSSE_con_sbcape_036.txt.gz
CAPE
568 625 796 933 1141 1068 934 865 822 822 834 662 603 637 642 596 520 521 437 419 277 65 90 72 17 3 0 0 0 0 2 9 21 88 323 449 1040 837 747 1015 1379 869 1382
633 714 685 912 1052 1077 991 975 938 909 815 580 565 551 494 398 380 266 279 289 67 1 0 0 0 0 0 0 0 0 0 0 0 12 112 340 1120 1127 631 776 1445 991 1333
796 668 687 912 1124 1116 1018 943 1004 707 592 548 517 448 326 328 181 103 134 204 8 0 0 0 0 0 0 0 0 0 0 0 0 0 168 326 778 1042 561 650 621 815 786
698 763 729 789 1023 1178 1135 1148 1024 714 588 542 426 303 278 137 84 61 34 146 30 0 0 0 0 0 0 0 0 0 0 0 0 77 216 511 495 893 940 715 1060 725 695
795 862 1079 964 1110 1222 1219 1169 1026 896 842 727 526 280 156 56 21 14 10 68 26 0 0 0 0 0 0 0 0 0 0 0 5 28 170 655 770 806 892 643 566 643 656
956 955 859 954 1056 1233 1242 1168 1002 892 841 656 614 370 113 12 0 0 13 97 4 0 0 0 0 0 0 0 0 0 0 0 0 0 0 95 394 533 560 657 790 524 871
897 1219 1269 784 1064 1122 1199 994 909 806 743 737 637 496 227 3 0 0 1 0 0 0 0 0 0 0 0 0 0 0 0 0 0 0 0 0 0 0 49 421 564 364 175
1099 1039 1129 871 1060 1113 1138 1067 833 703 715 732 673 566 289 144 120 0 0 0 0 0 0 0 0 19 0 0 0 0 0 0 0 0 0 0 0 0 0 14 877 716 148
1035 1113 993 1024 929 876 861 725 576 578 638 656 631 559 398 292 258 173 134 70 78 81 69 42 0 0 0 0 0 0 0 0 0 0 0 0 0 0 0 0 121 356 231
1187 980 636 640 628 623 639 543 433 447 475 487 473 289 169 169 193 51 212 164 115 44 42 0 0 0 0 0 0 0 0 0 0 0 0 0 0 0 0 0 0 22 167
987 592 536 509 501 365 234 367 287 348 367 330 267 142 97 244 221 130 23 52 0 0 0 0 0 0 0 0 0 0 0 0 0 0 0 0 0 0 0 0 15 220 311
573 514 531 452 376 285 47 176 156 87 304 512 461 481 460 606 506 285 36 0 0 0 0 0 0 0 0 0 0 0 0 0 0 0 0 0 0 0 0 0 0 4 186
331 233 213 305 228 70 30 153 197 480 642 716 743 711 829 800 857 686 111 18 5 0 0 0 0 0 0 0 0 0 0 0 0 0 0 0 0 0 0 0 0 0 0
173 109 74 93 173 136 83 201 409 508 666 786 913 1030 1072 882 445 169 31 0 0 0 0 0 0 0 0 0 0 0 0 0 0 0 0 0 0 0 0 0 2 2 2
88 139 143 87 48 114 190 300 431 639 756 885 960 745 519 407 236 25 0 0 0 0 0 0 0 0 0 0 0 0 0 0 0 0 0 0 0 0 0 0 0 0 0
118 212 322 250 238 181 363 515 574 586 637 747 471 224 80 212 95 0 0 0 0 0 0 0 0 0 0 0 0 0 0 0 0 0 0 0 0 0 0 0 0 0 0
194 319 436 548 476 340 141 118 191 64 54 89 28 1 4 4 0 0 0 0 0 0 0 0 0 0 0 0 0 0 0 0 0 0 0 0 0 0 0 0 0 0 0
318 518 447 176 82 22 9 2 1 0 0 0 0 0 0 0 0 0 0 0 0 0 0 0 0 0 0 0 0 0 0 0 0 0 0 0 0 0 0 0 0 0 0
358 690 397 289 77 25 2 0 0 0 0 0 0 0 0 0 0 0 0 0 0 0 0 0 0 0 0 0 0 0 0 0 0 0 0 0 0 0 0 0 0 0 0
677 649 433 451 20 1 0 0 0 0 0 0 0 0 0 0 0 0 0 0 0 0 0 0 0 0 0 0 0 0 0 0 0 0 0 0 0 0 0 0 0 0 0
689 494 535 114 2 0 1 0 0 0 0 0 0 0 0 0 0 0 0 0 0 0 0 0 0 0 0 0 0 0 0 0 9 2 0 0 0 0 0 0 0 2 0
572 681 340 222 95 13 10 0 0 0 0 0 0 0 0 0 0 0 0 0 0 0 0 0 0 0 0 1 4 0 0 0 0 12 0 1 1 0 0 3 7 7 12
612 621 583 664 405 48 0 0 0 0 0 0 0 0 0 0 0 0 0 0 0 0 0 0 0 1 2 0 10 10 6 1 5 7 15 20 7 6 7 5 10 14 24
744 734 542 207 38 1 0 0 0 3 3 0 0 0 0 0 0 0 0 0 0 0 1 5 3 7 16 24 25 21 34 38 34 27 26 22 24 3 6 9 11 12 16
157 120 6 0 0 0 0 0 0 0 0 0 0 0 0 0 0 0 0 0 0 9 22 33 30 44 42 40 59 40 30 21 17 13 34 30 20 24 23 20 22 26 32
0 0 0 0 0 0 0 0 0 0 0 0 0 0 0 0 0 1 8 10 28 47 66 83 81 60 66 72 53 31 23 24 28 20 29 40 23 12 30 22 28 51 35

GFSSE_con_sbcape_039.txt.gz
CAPE
474 318 734 969 969 885 822 788 778 772 811 663 617 632 590 487 416 406 369 331 154 22 1 0 0 0 0 0 0 0 0 2 31 126 236 860 1000 679 473 762 857 593 1247
493 413 634 929 975 890 844 842 830 839 754 614 578 496 462 458 340 320 313 217 9 0 0 0 0 0 0 0 0 0 3 5 20 89 307 818 810 635 633 505 1118 624 1001
616 476 495 892 1029 973 880 878 924 671 596 530 446 357 318 168 129 131 212 174 5 0 0 0 0 0 0 0 0 0 0 0 31 137 771 542 659 939 589 1213 1148 870 791
654 544 646 744 1026 1117 1104 996 840 610 540 459 342 314 165 107 68 19 5 119 13 0 0 0 0 0 0 0 0 0 0 2 71 249 146 294 457 785 487 691 813 264 365
678 653 895 804 1015 1198 1171 1039 918 802 707 493 465 171 71 20 0 0 21 154 45 0 0 0 0 0 0 0 0 0 0 22 37 15 54 71 134 382 554 446 304 251 235
710 910 582 757 990 1173 1179 1009 731 671 647 614 465 249 15 0 0 0 131 178 0 0 0 0 0 0 0 0 0 0 0 0 0 0 4 2 0 0 49 509 408 171 301
653 839 920 691 963 1117 1136 840 738 656 701 658 529 322 88 0 0 0 11 34 0 0 0 0 0 0 0 0 0 0 0 0 0 0 0 0 0 0 0 0 327 209 7
478 793 875 824 1008 1175 1123 870 737 684 731 677 563 349 107 64 85 11 20 23 23 18 13 0 0 0 0 0 0 0 0 0 0 0 0 1 0 0 0 0 217 349 26
750 877 841 1006 941 822 716 575 497 589 631 658 634 450 337 340 352 311 208 115 94 126 64 5 0 0 0 0 0 0 0 0 0 0 0 0 0 0 0 0 9 90 189
1043 873 753 663 603 611 573 412 413 468 491 500 374 253 180 141 95 266 339 93 26 29 0 0 0 0 0 0 0 0 0 0 0 0 3 0 0 0 0 0 0 0 30
641 465 432 385 440 323 215 313 335 480 450 340 155 131 47 70 123 200 20 0 0 0 0 0 0 0 0 0 0 0 0 0 0 0 0 0 0 0 0 0 0 0 0
382 369 428 426 406 258 25 77 88 129 148 305 269 284 560 371 498 237 17 0 0 0 0 0 0 0 0 0 0 0 0 0 0 0 0 0 0 0 0 0 1 1 1
356 340 308 336 286 107 178 91 135 315 556 641 653 704 884 580 612 554 302 93 94 0 18 0 0 0 0 0 0 0 0 0 0 0 0 0 0 0 0 0 1 3 4
221 147 137 148 163 86 70 179 327 505 611 701 831 895 838 765 718 492 180 88 57 9 6 0 1 0 0 0 0 0 0 0 0 0 0 0 0 0 0 0 0 0 0
145 65 11 29 128 313 346 577 580 766 1180 964 1002 1007 893 676 672 327 158 38 8 0 0 0 0 0 0 0 0 0 0 0 0 0 0 0 0 0 0 0 0 0 0
97 190 104 99 230 336 687 722 967 1192 1048 879 697 452 328 425 635 212 53 0 0 0 0 0 0 0 0 0 0 0 0 0 0 0 0 0 0 0 0 0 0 0 0
214 404 498 551 566 593 526 423 178 119 132 247 161 106 142 162 70 3 0 0 0 0 0 0 0 0 0 0 0 0 0 0 0 0 0 0 0 0 0 0 0 0 0
568 577 648 596 488 232 68 19 6 4 1 0 1 4 0 0 0 0 0 0 0 0 0 0 0 0 0 0 0 0 0 0 0 0 0 0 0 0 0 1 0 0 0
727 808 592 513 213 0 0 0 1 2 0 0 0 0 0 0 0 0 0 0 0 0 0 0 0 0 0 0 0 0 0 0 0 0 0 1 0 0 2 2 6 1 0
778 808 710 514 337 4 0 0 0 0 0 0 0 0 0 0 0 0 0 0 0 0 0 0 0 0 0 0 0 0 0 0 0 5 4 0 0 0 4 6 6 6 42
1092 842 636 450 184 19 0 0 0 0 0 0 0 0 0 0 0 0 0 0 0 0 0 0 0 0 0 0 0 0 0 0 0 0 0 2 1 1 6 10 14 7 8
1082 863 822 535 171 449 0 20 16 0 0 0 0 0 0 0 0 0 0 0 0 0 0 0 0 1 1 1 0 4 2 0 0 0 2 8 6 9 7 13 9 12 15
863 721 948 586 601 279 204 7 1 0 0 0 0 0 0 0 0 0 0 0 0 0 0 3 9 12 11 15 13 9 10 8 9 4 7 14 35 18 20 5 7 7 15
952 1039 724 463 351 91 1 0 0 2 8 9 4 10 0 0 0 0 0 0 1 3 9 18 20 31 45 31 28 20 37 28 26 17 24 25 20 41 66 28 2 2 8
930 726 469 309 45 1 0 0 1 20 23 12 1 12 3 5 4 0 1 5 7 16 27 66 93 78 79 59 49 57 76 53 42 56 57 41 34 61 89 63 40 31 21
413 324 49 6 7 0 0 2 13 18 1 6 17 3 2 1 1 5 8 13 18 18 36 49 63 50 60 70 64 73 62 48 32 48 51 40 45 19 46 63 82 63 67

GFSSE_con_sbcape_042.txt.gz
CAPE
202 322 793 961 1001 917 828 753 724 705 775 816 744 622 532 387 344 319 279 141 29 0 0 0 0 0 0 0 9 14 19 23 35 206 836 711 514 514 428 913 671 490 1260
192 325 729 864 879 855 812 793 773 780 763 501 476 530 366 352 308 264 185 131 22 0 0 0 0 0 0 0 0 0 6 125 198 341 624 561 623 518 583 866 891 878 1184
289 391 557 759 881 911 984 967 897 791 492 351 306 353 295 273 263 245 172 109 18 0 0 0 0 0 0 0 0 0 16 98 138 137 338 333 377 417 467 838 588 609 434
402 287 416 753 978 1134 1037 945 821 644 435 451 295 223 256 148 56 0 154 167 19 0 0 0 0 0 0 0 0 0 30 85 112 181 183 143 85 500 388 422 291 4 196
309 491 567 665 862 1087 1024 967 805 663 532 441 265 162 17 0 0 0 225 149 130 0 0 0 0 0 0 0 0 0 0 5 42 59 0 0 0 17 252 379 80 4 126
722 520 388 575 787 1021 967 998 818 616 502 355 235 184 16 0 39 60 239 205 39 0 0 0 0 0 0 0 13 14 0 8 12 0 0 0 0 0 0 70 614 374 243
365 320 351 510 742 937 972 827 690 636 522 386 273 181 150 32 27 55 219 185 59 0 0 0 0 0 0 14 0 0 13 19 0 0 0 0 0 4 0 0 218 334 144
140 249 383 698 791 907 870 725 621 565 497 426 300 223 240 150 173 177 256 250 141 43 0 0 0 0 0 0 0 0 0 0 0 0 5 0 49 33 10 3 247 229 239
144 266 526 670 782 576 425 417 473 495 506 483 386 328 334 338 301 379 361 224 154 108 0 0 0 0 0 0 0 0 0 0 0 0 0 0 0 0 0 0 1 48 215
194 229 451 698 590 438 277 324 348 374 382 337 258 192 142 132 236 377 220 108 51 0 0 0 0 0 0 0 0 0 0 0 0 0 0 0 0 0 0 0 1 3 5
186 384 463 480 445 346 283 310 362 433 358 228 162 145 30 4 43 153 33 8 0 0 0 0 0 0 0 0 0 0 0 0 0 0 0 0 0 0 0 0 11 12 18
185 261 349 397 389 151 44 142 113 140 61 42 72 41 65 421 127 71 0 0 0 0 0 0 0 0 0 0 0 0 0 0 0 0 0 0 0 0 0 0 4 8 10
237 239 222 309 250 54 33 65 56 75 185 540 559 511 698 739 439 168 0 0 1 0 11 0 7 0 0 0 0 0 0 0 0 0 0 0 0 0 0 0 0 2 2
172 196 218 172 276 230 86 143 303 492 680 722 776 687 714 690 718 411 171 177 64 9 0 0 0 0 0 0 0 0 0 0 0 0 0 0 0 0 0 0 0 0 1
49 80 81 136 332 315 581 675 543 520 621 560 857 523 349 602 589 357 127 16 0 0 0 0 0 0 0 0 0 0 0 0 0 0 0 0 0 0 0 0 0 0 0
41 56 50 124 400 578 695 642 507 567 624 501 381 320 361 396 496 223 0 0 0 0 0 0 0 0 0 0 0 0 0 0 0 0 0 0 0 0 0 0 0 0 0
29 10 101 291 644 428 299 53 9 11 29 30 43 82 62 86 0 0 0 0 0 0 0 0 0 0 0 0 0 0 0 0 0 0 0 0 1 1 0 0 0 0 0
210 200 323 516 449 229 49 0 0 0 0 11 2 0 0 0 0 0 0 0 0 0 0 0 0 0 0 0 0 0 0 0 0 0 0 0 0 0 13 13 7 0 0
357 551 620 351 41 0 0 0 0 1 0 0 0 0 0 0 0 0 0 0 0 0 0 0 0 0 0 0 0 0 0 0 0 0 0 0 0 0 0 3 40 49 4
653 534 406 99 1 0 1 2 1 0 0 0 0 0 0 0 0 0 0 0 0 0 0 0 0 0 0 0 0 0 0 0 0 0 0 2 0 0 0 0 0 0 39
803 438 339 164 44 0 0 0 0 0 0 0 0 0 0 0 0 0 0 0 0 0 0 0 0 0 0 0 0 0 0 0 0 0 0 0 0 0 0 0 0 0 0
999 794 413 260 104 20 0 0 0 0 0 0 0 0 0 0 0 0 0 0 0 0 0 0 0 0 0 0 0 0 0 0 0 0 0 0 0 0 0 0 0 0 0
1149 635 534 308 118 171 0 27 0 0 0 0 0 0 0 0 0 0 0 0 0 0 0 0 0 2 0 0 0 4 0 0 0 0 0 0 0 0 0 0 1 0 0
1127 639 730 545 354 405 149 0 0 0 0 0 0 0 0 0 0 0 0 0 0 0 0 0 0 0 2 1 5 3 0 0 0 0 0 0 0 0 0 0 0 0 0
702 854 884 688 217 39 0 0 0 15 7 3 0 0 0 0 0 0 0 2 3 3 1 1 7 5 11 21 15 1 4 0 0 0 0 0 0 0 0 0 4 0 0
942 991 696 309 50 0 0 7 4 14 1 0 0 0 0 0 0 0 0 0 0 0 0 0 0 0 0 17 21 16 9 9 2 1 0 0 0 0 0 0 0 0 0

GFSSE_con_sbcape_045.txt.gz
CAPE
317 699 893 1026 953 958 794 711 696 713 732 624 445 357 320 268 156 92 33 0 0 0 0 0 0 0 0 0 0 0 0 5 261 724 771 483 534 320 255 646 637 439 758
417 750 821 933 946 912 853 824 782 715 569 319 326 317 261 205 137 92 40 0 10 0 0 0 0 0 0 0 0 0 8 83 61 505 576 405 404 411 202 264 523 400 731
596 701 796 704 837 924 988 946 819 655 367 155 200 286 194 137 67 42 53 50 57 0 0 0 0 0 0 0 0 0 29 52 76 59 540 95 132 316 203 364 202 109 3
565 597 623 664 862 990 919 822 656 451 256 266 248 181 117 34 1 2 68 112 68 0 0 0 0 0 0 0 0 0 19 65 321 316 0 0 7 169 224 90 36 0 0
347 488 688 748 805 864 877 785 564 450 321 235 161 83 0 9 16 18 183 130 90 0 0 0 0 0 0 0 0 0 0 32 0 0 0 0 0 9 41 75 8 0 0
354 437 482 635 639 957 975 682 542 358 220 163 127 127 23 54 48 43 188 146 15 0 0 0 0 0 0 0 0 0 0 47 0 0 0 11 4 52 43 43 146 47 69
261 314 269 362 565 957 829 657 451 331 231 181 200 205 169 53 42 55 222 166 58 3 0 0 0 0 0 0 0 0 0 26 0 0 0 0 30 73 52 67 83 124 114
139 170 150 310 624 764 660 545 401 300 221 201 249 236 229 192 216 154 233 209 108 38 0 0 0 0 0 0 0 0 0 28 0 0 0 0 56 17 16 0 18 187 127
8 93 130 298 444 455 370 313 262 285 238 241 242 239 238 243 299 363 346 208 87 3 0 0 0 0 0 0 0 0 0 2 0 0 0 0 11 0 0 0 3 13 108
70 106 174 293 317 239 227 234 219 230 209 188 173 165 156 201 254 161 81 128 62 0 0 0 0 0 0 0 0 0 0 0 0 0 0 0 0 0 0 0 4 10 14
101 181 171 255 230 174 174 236 204 228 128 100 99 73 21 6 9 39 0 0 0 0 0 0 0 0 0 0 0 0 0 0 0 0 0 0 0 0 0 0 0 6 12
106 158 203 294 125 86 139 71 80 77 4 0 0 0 0 0 1 0 0 0 0 0 0 0 0 0 0 0 0 0 0 0 0 0 0 0 0 0 0 0 0 2 5
160 92 296 285 67 0 7 0 0 0 0 0 0 0 0 47 3 0 0 0 0 0 0 0 0 0 0 0 0 0 0 0 0 0 0 0 0 0 0 0 0 0 0
175 79 35 10 0 0 0 0 0 0 35 124 254 175 182 185 21 17 0 3 0 0 0 0 0 0 0 0 0 0 0 0 0 0 0 0 0 0 0 0 0 0 0
82 38 0 0 0 0 9 70 177 232 229 253 101 40 43 92 7 0 0 0 0 0 0 0 0 0 0 0 0 0 0 0 0 0 0 0 0 0 0 0 0 0 0
9 0 0 0 0 187 131 131 208 162 86 13 9 7 7 0 0 0 0 0 0 0 0 0 0 0 0 0 0 0 0 0 0 0 0 0 0 0 0 0 0 0 0
0 0 0 66 175 5 0 0 0 0 0 0 0 0 0 0 0 0 0 0 0 0 0 0 0 0 0 0 0 0 0 0 0 0 0 0 0 0 0 0 0 0 0
0 0 33 214 1 0 0 0 0 0 0 0 0 0 0 0 0 0 0 0 0 0 0 0 0 0 0 0 0 0 0 0 0 0 0 0 0 0 5 5 0 0 0
2 115 118 0 0 0 0 0 0 0 0 0 0 0 0 0 0 0 0 0 0 0 0 0 0 0 0 0 0 0 0 0 0 0 0 0 0 0 0 3 0 0 0
177 75 0 0 0 0 0 0 0 0 0 0 0 0 0 0 0 0 0 0 0 0 0 0 0 0 0 0 0 0 0 0 0 0 0 0 0 0 0 0 0 0 0
200 36 0 0 0 0 0 0 0 0 0 0 0 0 0 0 0 0 0 0 0 0 0 0 0 0 0 0 0 0 0 0 0 0 0 0 0 0 0 0 0 0 0
255 67 0 0 0 0 0 0 0 0 0 0 0 0 0 0 0 0 0 0 0 0 0 0 0 0 0 0 0 0 0 0 0 0 0 0 0 0 0 0 0 0 0
275 179 5 0 0 0 0 0 0 0 0 0 0 0 0 0 0 0 0 0 0 0 0 0 0 0 0 0 0 0 0 0 0 0 0 0 0 0 0 0 0 0 0
314 200 81 22 0 0 0 0 0 0 0 0 0 0 0 0 0 0 0 0 0 0 0 0 0 0 0 0 0 0 0 0 0 0 0 0 0 0 0 0 0 0 0
329 230 165 61 12 10 2 0 0 0 0 0 0 0 0 0 0 0 0 0 0 0 0 0 0 0 0 0 0 0 0 0 0 0 0 0 0 0 0 0 0 0 0
454 320 259 165 107 0 0 0 0 0 0 0 0 0 0 0 0 0 0 0 0 0 0 0 0 0 0 0 0 0 0 4 1 1 0 0 0 0 0 0 0 0 0

GFSSE_con_sbcape_048.txt.gz
CAPE
599 712 892 1077 1007 849 716 687 700 629 481 307 232 234 112 70 27 0 0 42 7 0 0 0 0 0 0 0 0 0 0 273 542 396 437 450 259 81 33 205 247 219 560
613 701 820 971 933 875 838 775 705 552 291 161 163 167 142 92 46 39 79 75 17 0 0 0 0 0 0 0 0 1 3 113 580 547 334 296 274 164 56 15 156 28 39
775 700 757 784 863 916 968 880 702 413 176 83 100 135 135 81 43 126 125 93 13 0 0 0 0 0 0 0 9 403 232 219 515 242 47 0 0 58 0 0 31 0 0
782 656 604 667 809 902 896 793 576 240 136 214 143 58 133 37 21 32 71 71 44 0 0 0 0 0 0 0 0 32 81 110 0 0 0 0 0 13 0 0 0 0 0
576 497 580 611 749 903 809 651 434 317 271 221 162 82 40 29 36 21 133 104 69 0 0 0 0 0 0 0 0 17 8 0 0 0 0 0 0 9 28 25 0 0 0
583 529 522 615 769 797 755 581 391 273 211 169 225 237 122 76 56 57 203 126 32 0 0 0 0 0 0 0 0 0 0 0 0 0 0 0 0 14 22 38 38 3 4
539 454 387 530 659 723 728 487 329 260 190 230 277 260 228 61 60 92 232 167 77 0 0 0 0 0 0 0 0 0 0 0 0 0 0 0 0 0 0 0 1 50 94
70 206 315 316 376 456 494 381 287 256 204 246 271 240 231 214 180 168 199 179 75 0 0 0 0 0 0 0 0 0 0 0 0 0 0 0 1 0 1 0 3 18 20
108 42 12 50 271 389 330 278 229 228 206 237 238 215 232 237 272 322 302 176 43 1 0 0 0 0 0 0 0 0 0 0 0 0 0 0 20 1 1 0 2 3 6
37 8 0 53 237 341 326 257 209 215 182 186 164 151 167 190 201 196 183 144 48 0 0 0 0 0 0 0 0 0 0 0 0 0 0 0 0 0 1 0 0 3 3
1 0 2 115 118 185 183 179 192 182 146 142 149 111 25 18 5 0 2 23 4 0 0 0 0 0 0 0 0 0 0 0 0 0 0 0 0 0 0 0 0 0 2
24 12 88 126 160 106 121 89 39 31 8 0 3 0 0 0 6 0 0 14 0 0 0 0 0 0 0 0 0 0 0 0 0 0 0 0 0 0 0 0 0 0 0
37 169 147 141 36 0 16 6 0 0 0 0 0 0 0 0 0 0 0 0 0 0 0 0 0 0 0 0 0 0 0 0 0 0 0 0 0 0 0 0 0 0 0
112 172 265 81 4 0 0 0 0 0 0 2 9 13 2 0 0 0 0 0 0 0 0 0 0 0 0 0 0 0 0 0 0 0 0 0 0 0 0 0 0 0 0
139 149 266 53 0 1 0 0 0 7 118 74 2 5 18 0 0 0 0 0 0 0 0 0 0 0 0 0 0 0 0 0 0 0 0 0 0 0 0 0 0 0 0
93 35 93 1 0 0 2 26 70 119 32 0 0 0 0 0 0 0 0 0 0 0 0 0 0 0 0 0 0 0 0 0 0 0 0 0 0 0 0 0 0 0 0
35 2 0 0 32 18 21 56 2 0 0 0 0 0 0 0 0 0 0 0 0 0 0 0 0 0 0 0 0 0 0 0 0 0 0 0 0 9 0 0 0 0 0
13 0 107 89 0 0 0 0 0 0 0 0 0 0 0 0 0 0 0 0 0 0 0 0 0 0 0 0 0 0 0 0 0 0 0 0 0 0 0 3 0 0 0
0 25 51 0 0 0 0 0 0 0 0 0 0 0 0 0 0 0 0 0 0 0 0 0 0 0 0 0 0 0 0 0 0 0 0 0 0 0 0 0 0 0 0
0 120 1 0 0 0 0 0 0 0 0 0 0 0 0 0 0 0 0 0 0 0 0 0 0 0 0 0 0 0 0 0 0 0 0 0 0 0 0 0 0 0 0
53 26 0 0 0 0 0 0 0 0 0 0 0 0 0 0 0 0 0 0 0 0 0 0 0 0 0 0 0 0 0 0 0 0 0 0 0 0 0 0 0 0 0
74 22 0 0 0 0 0 0 0 0 0 0 0 0 0 0 0 0 0 0 0 0 0 0 0 0 0 0 0 0 0 0 0 0 0 0 0 0 0 0 0 0 0
94 6 0 0 0 0 0 0 0 0 0 0 0 0 0 0 0 0 0 0 0 0 0 0 0 0 0 0 0 0 0 0 0 0 0 0 0 0 0 0 0 0 0
74 11 0 0 0 0 0 0 0 0 0 0 0 0 0 0 0 0 0 0 0 0 0 0 0 0 0 0 0 0 0 0 0 0 0 0 0 0 0 0 0 0 0
30 0 0 0 0 0 0 0 0 0 0 0 0 0 0 0 0 0 0 0 0 0 0 0 0 0 0 0 0 0 0 0 0 0 0 0 0 0 0 0 0 0 0
91 2 0 0 0 0 0 0 0 0 0 0 0 0 0 0 0 0 0 0 0 0 0 0 0 0 0 0 0 0 0 0 0 1 4 0 0 0 0 0 0 0 0

GFSSE_con_sbcape_051.txt.gz
CAPE
620 853 974 1041 853 780 730 645 535 360 305 171 50 38 43 60 94 82 61 14 0 0 0 0 0 0 0 0 0 199 370 375 390 524 362 174 119 46 19 3 0 0 163
761 851 951 947 852 792 797 682 465 328 187 26 51 78 94 130 138 134 84 3 0 0 0 0 0 0 71 182 14 71 316 474 468 353 86 60 36 35 9 0 39 0 1
834 945 923 792 812 848 851 686 452 229 46 16 13 111 148 202 146 139 86 45 38 0 0 0 0 1 73 185 308 353 330 63 39 26 0 0 0 0 0 0 0 0 0
929 903 782 702 757 840 740 557 354 146 82 79 113 66 146 106 61 84 142 98 66 22 0 0 0 0 0 44 71 31 26 9 6 0 0 0 0 22 1 8 1 1 0
908 720 544 570 709 795 673 442 306 248 208 208 230 121 86 51 34 58 183 113 69 17 0 0 0 0 0 0 0 0 0 0 0 0 0 0 0 0 2 5 2 3 7
795 587 354 405 653 764 635 493 408 266 209 235 255 252 124 63 74 104 180 122 88 0 0 0 0 0 0 0 0 0 0 0 0 0 0 0 0 4 2 5 13 25 26
536 532 228 374 614 708 631 499 355 256 277 320 326 289 254 179 93 169 217 166 99 14 0 0 0 0 0 0 0 0 0 0 0 0 0 0 0 3 3 3 6 9 13
7 278 199 328 364 281 439 373 292 284 351 355 319 290 262 244 230 226 236 181 105 40 5 0 0 0 0 0 0 0 0 0 0 0 0 0 2 2 2 0 0 0 0
4 2 3 38 184 353 291 289 301 320 346 339 304 282 279 250 262 273 271 193 101 44 0 0 0 0 0 0 0 0 0 0 0 0 0 0 7 4 0 0 0 0 0
2 7 10 95 118 155 185 251 282 328 354 320 319 281 238 255 280 279 217 161 79 2 0 3 0 0 0 0 0 0 0 0 0 0 0 0 0 3 2 0 0 0 0
2 0 0 9 108 107 148 222 268 320 266 224 205 183 76 23 17 0 45 81 1 0 3 0 0 0 0 0 0 0 0 0 0 0 0 5 0 5 0 0 0 0 0
0 0 0 0 49 129 184 157 80 108 70 54 30 17 0 1 0 0 11 23 1 0 0 0 0 0 0 0 0 0 0 0 0 0 0 0 0 0 2 0 0 0 0
0 0 0 0 45 117 120 64 19 20 14 8 7 0 6 8 0 0 0 0 0 0 0 0 0 0 0 0 0 0 0 0 0 0 0 0 0 0 1 0 0 0 0
4 18 104 95 78 19 11 8 2 1 0 0 0 0 0 0 0 0 0 0 0 0 0 0 0 0 0 0 0 0 0 0 0 0 0 0 0 0 0 0 0 2 0
58 141 183 56 27 0 0 0 0 0 0 9 17 20 0 0 0 0 0 0 0 0 0 0 0 0 0 0 0 0 0 0 0 0 0 0 0 0 0 0 0 3 0
120 146 192 35 1 0 0 0 0 9 30 0 0 2 0 0 0 0 0 0 0 0 0 0 0 0 0 0 0 0 0 0 0 0 0 0 0 5 0 0 0 0 0
168 133 241 45 0 0 0 0 5 7 0 0 0 0 0 0 0 0 0 0 0 0 0 0 0 0 0 0 0 0 0 0 0 0 0 0 0 0 0 0 0 0 0
84 94 89 6 6 0 0 0 0 0 0 0 0 0 0 0 0 0 0 0 0 0 0 0 0 0 0 0 0 0 0 0 0 0 0 0 0 0 0 0 0 0 0
2 1 15 0 0 0 0 0 0 0 0 0 0 0 0 0 0 0 0 0 0 0 0 0 0 0 0 0 0 0 0 0 0 0 0 0 0 0 0 0 0 0 0
0 59 20 0 0 0 0 0 0 0 0 0 0 0 0 0 0 0 0 0 0 0 0 0 0 0 0 0 0 0 0 0 0 0 0 0 0 0 0 0 0 0 0
0 4 0 0 0 0 0 0 0 0 0 0 0 0 0 0 0 0 0 0 0 0 0 0 0 0 0 0 0 0 0 0 0 0 0 0 0 0 0 0 0 0 0
0 0 0 0 0 0 0 0 0 0 0 0 0 0 0 0 0 0 0 0 0 0 0 0 0 0 0 0 0 0 0 0 0 0 0 0 0 0 0 0 0 0 0
4 3 0 0 0 0 0 0 0 0 0 0 0 0 0 0 0 0 0 0 0 0 0 0 0 0 0 0 0 0 0 0 0 0 0 0 0 0 0 0 0 0 0
21 24 20 0 0 0 0 0 0 0 0 0 0 0 0 0 0 0 0 0 0 0 0 0 0 0 0 0 0 0 0 0 0 0 0 0 0 0 0 0 0 0 0
25 2 0 0 0 0 0 0 0 0 0 0 0 0 0 0 0 0 0 0 0 0 0 0 0 0 0 0 0 0 0 0 0 0 0 0 0 0 0 0 0 0 0
3 0 0 0 0 0 0 0 0 0 0 0 0 0 0 0 0 0 0 0 0 0 0 0 0 0 0 0 0 0 0 0 0 0 0 0 3 0 0 0 0 0 0

GFSSE_con_sbcape_057.txt.gz
CAPE
837 737 880 1008 880 706 550 512 433 304 213 139 113 103 99 96 67 80 107 111 136 87 69 101 345 401 153 80 39 95 29 0 0 1 0 0 0 0 0 0 0 0 0
912 802 778 975 914 721 588 472 297 159 139 158 175 160 136 113 89 101 119 202 277 268 305 178 351 323 148 0 0 0 0 0 0 0 0 0 1 2 1 0 0 0 0
970 765 810 875 890 748 654 413 252 176 138 136 241 229 153 129 145 130 152 235 656 461 428 231 465 342 0 0 0 0 0 0 0 0 0 0 1 5 7 7 7 5 2
946 803 783 843 779 674 459 280 226 182 220 282 314 244 206 192 171 154 125 197 657 753 491 366 564 52 0 25 56 0 0 0 0 0 0 0 4 10 10 13 17 19 16
955 759 748 682 601 504 323 226 204 250 293 328 293 276 301 227 184 173 108 100 245 467 339 352 96 0 5 36 6 0 0 0 0 0 1 4 9 15 12 14 13 13 18
757 736 432 486 470 396 318 281 263 269 291 294 226 270 310 276 201 153 114 113 127 168 31 0 0 0 0 0 0 0 0 0 0 0 0 5 11 10 4 3 7 11 14
60 510 522 395 410 456 453 334 284 261 304 305 273 286 289 269 236 174 150 133 80 64 66 4 2 0 0 0 0 0 0 0 0 0 0 4 11 8 4 2 2 5 10
1 25 122 365 268 98 272 343 241 282 319 317 324 325 342 337 254 208 168 144 116 53 10 0 0 0 0 0 0 0 0 0 0 0 0 5 7 7 3 0 0 1 3
1 0 3 21 23 30 206 391 293 336 357 326 325 320 349 287 205 175 149 150 102 48 13 0 0 0 0 0 0 0 0 0 0 0 0 3 10 8 3 0 0 0 0
9 11 7 4 1 0 126 459 366 334 353 344 309 282 258 266 262 227 135 153 143 94 9 0 0 0 0 0 0 0 0 0 0 0 0 3 10 13 6 1 0 0 0
10 4 8 1 0 2 90 270 456 411 328 303 273 217 105 46 33 1 110 112 25 0 0 0 0 0 0 0 0 0 0 0 0 0 0 5 0 5 5 3 0 0 0
14 10 3 2 0 0 0 19 247 283 231 213 159 120 63 59 37 2 45 6 0 0 0 0 0 0 0 0 0 0 0 0 0 0 0 0 0 4 7 6 4 0 0
5 0 0 0 0 23 21 90 201 176 140 133 81 83 53 92 44 11 0 0 0 0 0 0 0 0 0 0 0 0 0 0 0 0 0 0 0 4 5 4 7 9 1
4 0 1 29 64 59 96 138 150 129 96 68 80 108 46 16 1 0 0 0 0 0 0 0 0 0 0 0 0 0 0 0 0 0 0 0 0 0 4 0 9 1 5
0 0 0 25 131 115 92 99 96 89 64 79 81 137 19 0 0 0 0 0 0 0 0 0 0 0 0 0 0 0 0 0 0 0 0 0 0 0 2 1 5 1 2
0 0 2 32 127 166 88 64 46 41 34 18 25 119 51 0 0 0 0 0 0 0 0 0 0 0 0 0 0 0 0 0 0 0 0 0 0 0 0 0 0 0 0
0 0 0 18 144 173 60 18 11 9 12 17 29 81 143 0 0 0 0 0 0 0 0 0 0 0 0 0 0 0 0 0 0 0 0 0 0 0 0 0 0 0 0
0 2 100 144 149 156 48 14 6 6 17 100 106 188 67 0 0 0 0 0 0 0 0 0 0 0 0 0 0 0 0 0 0 0 0 0 0 0 0 0 0 0 0
25 70 241 311 207 103 16 0 5 26 125 126 15 4 0 0 0 0 0 0 0 0 0 0 0 0 0 0 0 0 0 0 0 0 0 0 0 0 0 0 0 0 0
95 167 323 300 175 26 0 0 9 33 55 1 0 0 0 0 0 0 0 0 0 0 0 0 0 0 0 0 0 0 0 0 0 0 0 0 0 0 0 0 0 0 0
230 215 285 232 95 1 0 3 2 2 4 1 0 0 0 0 0 0 0 0 0 0 0 0 0 0 0 0 0 0 0 0 0 0 0 0 0 0 0 0 0 0 0
204 266 217 213 76 42 27 7 1 1 3 0 0 0 0 0 0 0 0 0 0 0 0 0 0 0 0 0 0 0 0 0 0 0 0 0 0 0 0 0 0 0 0
190 248 236 203 87 30 17 0 0 0 0 0 0 0 0 0 0 0 0 0 0 0 0 0 0 0 0 0 0 0 0 0 0 0 0 0 0 0 0 0 0 0 0
220 183 244 203 94 23 0 0 0 3 6 0 0 0 0 0 0 0 0 0 0 0 0 0 0 0 0 0 0 0 0 0 0 0 0 0 0 0 2 0 0 0 0
255 124 194 180 87 24 0 0 0 0 2 0 0 0 0 0 0 0 0 0 0 0 0 0 0 0 0 0 0 0 0 0 0 0 0 0 2 4 2 0 3 0 0
240 155 188 153 90 33 1 1 0 0 0 0 0 0 0 0 0 0 0 0 0 0 0 0 0 0 0 0 0 0 0 0 0 0 0 0 2 3 13 9 4 0 0

GFSSE_con_sbcape_063.txt.gz
CAPE
1109 973 1222 1501 1492 1370 1208 1025 846 671 540 431 352 334 327 345 398 438 690 765 898 831 344 230 202 89 22 0 0 0 0 107 22 0 0 6 8 1 0 18 23 9 7
1142 943 1109 1426 1445 1395 1246 997 764 543 472 427 379 327 283 369 371 477 689 887 987 705 128 44 0 0 0 0 0 0 0 0 71 135 71 0 11 14 12 12 28 22 14
1477 914 1199 1192 1296 1285 1166 900 644 552 525 486 399 313 367 407 507 592 694 849 946 599 13 0 0 0 0 0 0 0 0 0 0 2 98 0 7 17 28 27 31 29 34
1370 852 1144 980 1080 1177 935 674 577 600 543 450 360 407 490 606 872 964 848 852 933 486 0 0 0 0 0 0 0 0 0 0 0 40 12 0 0 19 19 11 6 8 20
1309 550 1203 772 872 884 663 555 535 536 431 383 410 561 626 1014 1110 1130 1017 872 859 325 26 29 1 0 0 0 0 0 0 0 22 6 0 0 0 4 3 4 10 8 5
1417 457 435 513 549 563 550 587 550 486 371 374 460 592 741 1071 1106 997 916 789 776 315 44 0 0 0 0 0 0 0 0 0 36 9 2 0 0 2 4 5 8 7 8
160 0 193 331 339 428 561 594 553 469 463 463 512 490 582 663 768 883 918 713 351 229 10 0 0 0 0 0 0 0 0 0 1 5 1 0 0 0 1 1 2 6 5
34 2 33 58 31 100 204 277 347 435 472 479 451 413 432 371 395 488 381 276 244 175 82 0 0 0 0 0 0 0 0 0 0 8 5 1 1 1 2 1 6 3 3
6 4 1 4 0 0 20 66 178 281 381 452 416 349 325 284 262 290 340 326 256 188 92 0 0 0 0 0 0 0 0 0 0 0 1 0 4 2 3 2 4 5 5
4 4 1 2 0 0 0 0 65 296 425 374 337 309 252 257 228 236 230 231 168 80 3 0 0 0 0 0 0 0 0 0 0 0 0 2 6 9 3 4 4 5 5
14 7 9 1 1 0 1 3 50 226 269 274 291 246 159 124 59 77 180 213 192 60 0 0 0 0 0 0 0 0 0 0 0 0 0 13 10 11 9 1 1 3 2
8 15 9 7 10 5 1 1 46 105 201 190 187 188 148 148 133 128 129 129 43 0 0 0 0 0 0 0 0 0 0 0 0 0 0 0 9 12 9 9 1 0 0
11 10 8 15 10 6 11 0 62 106 146 171 238 235 246 221 182 155 38 0 0 0 0 0 0 0 0 0 0 0 0 0 0 0 0 0 0 10 10 5 5 1 0
8 5 7 10 10 0 7 62 82 151 198 212 186 388 402 279 327 160 4 0 0 0 0 0 0 0 0 0 0 0 0 0 0 0 0 0 0 4 2 11 5 4 1
7 7 3 0 7 26 16 2 10 95 146 216 179 328 392 381 446 155 136 0 0 0 0 0 0 0 0 0 0 0 0 0 0 0 0 0 0 4 0 0 5 0 0
3 1 6 21 10 1 14 66 110 118 78 185 182 280 500 420 432 112 132 1 0 0 0 0 0 0 0 0 0 0 0 0 0 0 0 0 0 0 0 0 0 0 0
0 13 27 45 99 121 127 201 168 131 81 135 128 287 294 360 385 275 77 10 0 0 0 0 0 0 0 0 0 0 0 0 0 0 0 0 0 0 0 0 0 0 0
10 0 2 13 122 178 211 226 110 58 106 195 183 202 323 214 222 169 87 27 5 0 0 0 0 0 0 0 0 0 0 0 0 0 0 0 0 0 0 0 0 0 0
6 10 40 63 89 79 65 107 128 378 137 25 99 290 492 242 288 179 60 12 0 0 0 0 0 0 0 0 0 0 0 0 0 0 0 0 0 0 0 0 0 0 0
65 66 37 17 59 100 265 112 10 66 14 61 131 248 524 696 532 286 101 17 0 0 0 0 0 0 0 0 0 0 0 0 0 0 0 0 0 0 0 0 0 0 0
69 48 26 12 14 149 163 63 23 32 41 54 209 384 579 656 581 474 293 54 0 0 0 0 0 0 0 0 0 0 0 0 0 0 0 0 0 0 0 0 0 0 0
63 61 59 9 18 235 290 212 5 0 1 26 80 412 599 640 475 372 332 45 0 0 0 0 0 0 0 0 0 0 0 0 0 0 0 0 0 0 0 0 0 0 0
168 176 246 277 242 298 291 238 26 5 26 78 123 332 700 656 344 304 270 32 0 0 0 0 0 0 0 0 0 0 0 0 0 0 0 0 0 0 0 0 2 0 0
494 345 314 378 416 487 497 388 188 23 2 50 154 246 377 348 190 150 56 4 0 0 0 0 0 1 0 8 0 0 0 0 0 0 0 0 0 0 5 4 3 0 0
863 709 721 490 486 589 633 622 513 248 61 87 161 345 402 485 233 78 1 0 0 0 0 0 5 1 0 0 0 0 0 0 0 0 0 0 0 0 4 8 2 1 0
966 1211 960 780 655 718 816 862 894 672 549 149 257 617 619 394 103 10 0 0 0 0 0 0 14 3 0 0 0 0 0 0 0 0 0 0 0 0 0 0 0 0 0

GFSSE_con_sbcape_066.txt.gz
CAPE
1016 1176 1436 1475 1423 1341 1222 1058 886 703 652 633 587 572 545 537 534 652 901 884 859 663 112 72 0 0 0 0 0 0 88 143 52 26 14 15 12 17 15 34 21 5 14
157 1393 1553 1476 1454 1412 1292 1109 901 713 673 662 632 570 573 635 894 992 993 815 586 257 8 0 0 0 0 0 0 0 0 167 101 79 5 15 28 40 47 29 42 5 41
0 1012 1555 1498 1534 1544 1392 1139 927 816 745 739 621 617 640 808 959 1061 961 570 364 175 2 0 0 0 0 0 0 0 5 26 26 50 8 0 8 23 24 15 28 24 35
21 1063 1712 1327 1406 1473 1252 965 813 770 723 585 575 609 648 791 946 1100 872 391 296 227 0 0 0 0 0 0 0 0 13 43 56 29 0 0 0 18 17 12 10 15 21
1380 1392 1735 1238 1224 1326 1051 851 754 678 506 493 579 732 808 952 1043 1091 794 292 348 273 43 0 0 0 0 0 0 0 0 12 2 0 0 0 0 5 5 7 10 13 13
1362 1084 791 1001 966 933 823 786 682 506 443 537 673 951 1230 1266 1169 1056 575 369 420 237 12 0 0 0 0 0 0 0 3 11 0 0 0 0 0 6 5 7 7 7 8
348 488 1 1 538 695 812 706 512 488 533 656 880 1131 1206 1299 1042 948 513 365 293 167 0 0 0 0 0 0 0 0 0 3 0 0 0 0 0 4 6 5 3 4 5
18 1 0 0 7 217 389 301 298 407 453 540 708 847 1009 1041 906 680 365 255 180 119 38 0 0 0 0 0 0 0 0 0 0 0 0 0 0 3 5 7 7 4 3
20 1 0 0 5 12 40 65 116 246 293 379 428 405 425 388 337 337 278 237 184 124 52 1 0 0 0 0 0 0 0 0 0 0 0 0 1 3 5 5 6 6 7
37 9 3 0 0 0 0 18 111 233 211 236 240 181 184 229 277 273 251 220 189 109 22 5 0 0 0 0 0 0 0 0 0 0 0 0 4 6 5 6 4 3 3
3 2 7 3 2 0 0 0 3 337 269 209 174 174 82 110 78 79 172 163 131 74 35 0 0 0 0 0 0 0 0 0 0 0 0 15 7 7 4 4 2 1 2
7 5 4 2 2 1 4 0 0 50 111 116 86 65 61 41 117 120 161 127 88 51 6 0 0 0 0 0 0 0 0 0 0 0 0 5 8 8 6 1 0 0 0
8 9 6 5 0 0 2 0 5 32 88 100 131 129 100 147 109 75 43 15 0 0 0 0 0 0 0 0 0 0 0 0 0 0 0 0 10 10 7 5 1 0 0
4 9 6 2 2 0 1 2 13 25 68 77 216 175 181 169 140 59 19 4 0 0 0 0 0 0 0 0 0 0 0 0 0 0 0 0 0 3 13 6 2 1 0
7 7 3 6 3 7 0 29 50 59 77 150 228 260 219 182 141 84 75 3 0 0 0 0 0 0 0 0 0 0 0 0 0 0 0 0 0 3 0 6 0 0 0
6 3 3 4 12 1 14 27 41 80 157 188 267 362 421 230 250 107 176 7 0 0 0 0 0 0 0 0 0 0 0 0 0 0 0 0 0 0 0 0 0 0 0
2 2 1 7 0 5 0 2 40 49 145 194 230 386 409 411 363 277 118 87 1 0 0 0 0 0 0 0 0 0 0 0 0 0 0 0 0 0 0 0 0 0 0
1 7 0 1 8 35 63 23 111 88 84 156 214 240 347 323 273 267 117 54 1 0 0 0 0 0 0 0 0 0 0 0 0 0 0 0 0 0 0 0 0 0 0
0 0 0 0 4 93 147 121 136 120 138 93 159 271 274 232 212 195 152 29 0 0 0 0 0 0 0 0 0 0 0 0 0 0 0 0 0 0 0 0 0 0 0
0 0 0 0 6 54 153 206 134 68 78 70 73 163 183 69 258 245 57 40 0 0 0 0 0 0 0 0 0 0 0 0 0 0 0 0 0 0 0 0 0 0 0
0 0 0 6 85 108 25 31 4 64 12 0 0 33 345 411 436 288 70 63 0 0 0 0 0 0 0 0 0 0 0 0 0 0 0 0 0 0 0 0 0 0 0
7 51 59 58 120 76 21 0 0 4 5 0 10 44 345 409 442 392 316 116 0 0 0 0 0 0 0 0 0 0 0 0 0 0 0 0 0 0 0 0 0 0 0
3 22 27 37 33 90 80 20 1 3 0 0 8 111 461 503 408 306 250 295 0 0 0 0 0 0 0 0 0 0 0 0 0 0 0 0 0 0 0 0 0 0 0
35 48 42 3 0 51 203 180 84 0 0 0 0 63 501 522 400 313 260 168 0 0 0 0 0 0 0 0 0 0 0 0 0 0 0 0 0 0 0 0 0 0 0
161 110 164 214 125 137 185 245 217 49 7 0 44 56 443 340 206 151 170 125 0 0 0 0 0 0 0 0 0 0 0 0 0 0 0 0 0 0 0 0 0 0 0
425 426 252 333 307 329 413 345 441 176 105 13 55 97 383 303 206 190 53 0 0 0 0 0 0 0 0 0 0 0 0 0 0 0 0 0 0 0 0 0 0 0 0

GFSSE_con_sbcape_069.txt.gz
CAPE
1309 1627 1455 1584 1652 1445 1243 1099 890 797 788 789 724 613 669 698 939 972 823 492 370 187 3 0 0 0 0 0 0 30 58 47 41 30 40 34 29 26 21 18 23 19 34
4 822 1143 1605 1741 1555 1346 1099 897 816 889 871 779 645 700 1026 1073 969 744 481 219 2 0 0 0 0 0 0 13 74 77 64 39 11 8 17 13 30 20 17 33 22 34
5 5 95 642 1767 1720 1406 1113 1007 981 970 892 785 790 1073 1147 1014 765 523 255 158 2 0 0 0 0 0 0 10 37 26 31 27 0 0 0 4 19 19 18 16 18 25
113 16 8 3 478 1690 1380 1073 1024 1110 1011 927 852 1064 1191 1141 805 507 282 185 196 5 0 0 0 0 0 0 2 15 7 0 0 0 0 0 0 16 17 15 14 13 17
48 4 1 68 840 1523 1240 944 960 923 856 834 860 1105 1262 1143 650 438 273 215 173 0 0 0 0 0 0 0 0 0 0 0 0 0 0 0 0 10 13 9 9 15 23
844 433 566 727 830 1206 1145 979 850 714 695 721 839 1089 1315 1154 589 455 334 257 180 0 0 0 0 0 0 0 0 0 0 0 0 0 0 0 0 11 6 6 6 15 21
220 63 0 3 74 2 1007 962 663 614 646 712 910 1030 1134 938 561 455 318 179 96 0 0 0 0 0 0 0 0 0 0 0 0 0 0 0 0 10 11 9 11 17 17
47 3 0 9 0 1 36 559 487 563 651 918 1006 1066 1022 697 485 403 209 96 79 39 0 0 0 0 0 0 0 0 0 0 0 0 0 0 2 8 10 9 8 12 13
5 4 0 0 2 1 71 28 163 260 677 841 861 813 740 353 285 212 131 109 93 42 0 0 0 0 0 0 0 0 0 0 0 0 0 0 2 5 10 7 7 10 10
18 4 0 1 0 0 0 3 61 112 238 373 405 292 178 144 139 110 82 103 75 32 0 0 0 0 0 0 0 0 0 0 0 0 0 0 1 3 5 4 5 6 12
4 7 3 1 1 1 2 3 38 158 270 220 183 91 60 29 22 26 77 83 86 45 26 0 0 0 0 0 0 0 0 0 0 0 0 3 3 3 4 2 2 2 4
4 5 3 1 0 0 4 2 10 81 64 77 53 6 6 7 23 41 75 76 84 61 32 1 0 0 0 0 0 0 0 0 0 0 0 5 1 2 1 0 0 0 0
4 6 6 3 5 0 0 0 0 31 78 58 24 0 8 10 23 24 14 9 1 1 0 0 0 0 0 0 0 0 0 0 0 0 0 3 5 4 0 0 0 0 0
3 3 2 1 2 0 0 0 0 47 93 47 6 36 9 6 4 1 0 0 0 0 0 0 0 0 0 0 0 0 0 0 0 0 0 0 10 4 5 5 2 1 0
6 8 8 3 0 0 0 0 14 45 34 54 69 74 36 20 0 1 0 0 0 0 0 0 0 0 0 0 0 0 0 0 0 0 0 0 0 3 14 5 1 1 0
5 5 4 5 2 1 0 0 1 16 25 96 82 81 80 46 3 1 0 0 0 0 0 0 0 0 0 0 0 0 0 0 0 0 0 0 0 0 0 0 0 0 0
2 1 2 5 0 0 0 0 0 17 60 95 126 141 97 77 7 12 0 0 0 0 0 0 0 0 0 0 0 0 0 0 0 0 0 0 0 0 0 0 0 0 0
3 2 5 10 0 0 0 0 0 8 39 84 100 108 125 149 45 4 0 0 0 0 0 0 0 0 0 0 0 0 0 0 0 0 0 0 0 0 0 0 0 0 0
0 0 0 0 0 0 0 2 4 3 15 6 24 41 73 111 35 45 0 0 0 0 0 0 0 0 0 0 0 0 0 0 0 0 0 0 0 0 0 0 0 0 0
0 0 0 0 0 0 0 0 9 0 1 0 0 5 28 31 85 26 4 0 0 0 0 0 0 0 0 0 0 0 0 0 0 0 0 0 0 0 0 0 0 0 0
0 0 0 0 0 0 0 0 7 0 0 0 0 0 0 0 67 8 0 0 0 0 0 0 0 0 0 0 0 0 0 0 0 0 0 0 0 0 0 0 0 0 0
0 0 0 0 0 0 0 0 0 0 0 0 0 0 17 10 43 29 0 0 0 0 0 0 0 0 0 0 0 0 0 0 0 0 0 0 0 0 0 0 0 0 0
0 0 0 0 0 0 0 0 0 0 0 0 0 0 73 129 157 164 5 4 0 0 0 0 0 0 0 0 0 0 0 0 0 0 0 0 0 0 0 0 0 0 0
0 0 0 0 0 0 0 0 0 0 0 0 0 0 109 142 165 131 118 47 0 0 0 0 0 0 0 0 0 0 0 0 0 0 0 0 0 0 0 0 0 0 0
0 0 0 0 0 0 0 0 0 0 0 0 0 0 94 122 108 129 50 34 0 0 0 0 0 0 0 0 0 0 0 0 0 0 0 0 0 0 0 0 0 0 0
0 0 0 0 0 0 0 3 11 0 0 0 0 0 36 124 92 68 81 19 0 0 0 0 0 0 0 0 0 0 0 0 0 0 0 0 0 0 0 0 0 0 0

GFSSE_con_sbcape_072.txt.gz
CAPE
1675 1509 1658 1819 1677 1577 1384 1111 1067 1030 984 1141 1103 1109 1039 886 705 590 475 321 235 50 2 10 60 35 13 17 17 28 43 47 43 46 35 20 27 25 31 30 31 17 20
1415 1606 1717 1793 1668 1622 1285 1165 1054 1011 965 1049 1043 1216 1133 947 680 548 376 245 96 6 0 5 12 18 24 31 50 34 1 19 11 19 16 24 24 24 29 27 32 31 47
441 1251 1704 1615 1593 1517 1225 1279 1184 1117 1036 1026 1163 1284 1232 986 775 507 290 167 30 0 0 2 5 6 15 2 0 23 0 0 0 6 6 0 4 26 23 13 32 52 54
289 47 549 287 570 502 1228 1211 1227 1224 1018 1167 1418 1385 1186 955 688 454 299 96 29 0 0 0 0 0 0 0 0 0 0 0 0 0 0 0 1 19 16 15 33 37 44
138 21 18 282 70 916 1032 1049 1227 1098 923 1269 1470 1357 1067 854 645 504 218 75 15 0 0 0 0 0 0 0 0 0 0 0 0 0 0 0 0 12 18 22 14 19 10
702 141 0 128 108 255 749 947 1059 975 931 1188 1355 1167 993 820 745 462 191 71 2 0 0 0 0 0 0 0 0 0 0 0 0 0 0 0 0 13 12 17 16 12 19
349 131 437 41 32 16 16 54 856 819 933 1182 1272 872 782 760 652 386 176 39 0 0 0 0 0 0 0 0 0 0 0 0 0 0 0 0 0 12 16 20 16 16 15
18 57 61 19 10 16 0 2 477 590 779 1052 1034 699 655 635 446 284 119 15 0 0 0 0 0 0 0 0 0 0 0 0 0 0 0 0 9 13 14 17 16 14 20
2 22 3 1 2 0 0 8 110 159 652 894 749 538 482 360 190 131 53 9 0 0 0 0 0 0 0 0 0 0 0 0 0 0 0 0 8 11 11 11 13 13 12
2 2 4 5 0 0 0 0 11 75 355 523 444 350 252 133 77 50 0 0 0 0 0 0 0 0 0 0 0 0 0 0 0 0 0 0 3 6 7 6 8 6 5
3 1 8 8 3 1 2 3 0 10 143 339 282 184 58 0 0 0 3 0 5 0 0 0 0 0 0 0 0 0 0 0 0 0 0 2 2 4 4 4 6 7 7
5 2 3 5 1 1 4 3 1 1 23 84 50 30 6 0 0 0 35 43 38 2 0 0 0 0 0 0 0 0 0 0 0 0 0 5 2 3 2 2 1 1 5
4 4 1 0 4 0 2 0 0 3 14 13 27 32 38 15 4 10 15 8 1 0 0 0 0 0 0 0 0 0 0 0 0 0 0 6 3 3 2 0 1 1 0
6 6 5 4 0 2 0 0 4 13 14 0 5 6 2 0 0 0 0 0 0 0 0 0 0 0 0 0 0 0 0 0 0 0 0 1 6 3 3 0 0 0 0
2 4 5 2 0 0 0 0 0 4 5 1 28 9 0 0 0 0 0 0 0 0 0 0 0 0 0 0 0 0 0 0 0 0 0 0 5 0 1 3 3 2 0
5 6 4 3 0 0 0 0 0 0 0 20 37 4 0 0 0 0 0 0 0 0 0 0 0 0 0 0 0 0 0 0 0 0 0 0 0 1 4 2 0 0 0
6 10 3 5 7 2 0 0 0 0 0 10 39 27 0 0 0 0 0 0 0 0 0 0 0 0 0 0 0 0 0 0 0 0 0 0 0 0 0 0 0 0 0
4 6 6 9 4 0 0 0 0 0 0 21 51 30 21 0 0 0 0 0 0 0 0 0 0 0 0 0 0 0 0 0 0 0 0 0 0 0 0 0 0 0 0
1 4 11 2 0 0 0 0 0 0 0 30 38 44 29 14 0 0 0 0 0 0 0 0 0 0 0 0 0 0 0 0 0 0 0 0 0 0 0 0 0 0 0
1 0 3 0 0 0 0 0 0 0 7 12 17 24 33 24 10 0 0 0 0 0 0 0 0 0 0 0 0 0 0 0 0 0 0 0 0 0 0 0 0 0 0
0 0 2 0 0 0 0 0 0 0 0 0 1 16 7 0 0 0 0 0 0 0 0 0 0 0 0 0 0 0 0 0 0 0 0 0 0 0 0 0 0 0 0
0 0 0 0 0 0 0 0 0 0 0 0 0 0 0 0 0 0 0 0 0 0 0 0 0 0 0 0 0 0 0 0 0 0 0 0 0 0 0 0 0 0 0
0 0 0 0 0 0 0 0 0 0 0 0 0 0 0 0 0 0 0 0 0 0 0 0 0 0 0 0 0 0 0 0 0 0 0 0 0 0 0 0 0 0 0
0 0 0 0 0 0 0 0 0 0 0 0 0 0 0 0 0 0 0 0 0 0 0 0 0 0 0 0 0 0 0 0 0 0 0 0 0 0 0 0 0 0 0
0 0 0 0 0 0 0 0 0 0 0 0 0 0 0 5 16 19 26 0 0 0 0 0 0 0 0 0 0 0 0 0 0 0 0 0 0 0 0 0 0 0 0
0 0 0 0 0 0 0 0 0 0 0 0 0 0 0 6 31 71 69 40 1 0 0 0 0 0 0 0 0 0 0 0 0 0 0 0 0 0 0 0 0 0 0

GFSSE_con_sbcape_075.txt.gz
CAPE
1544 1455 1667 1785 1641 1428 1406 1361 1339 1328 1130 1154 1171 1056 1028 947 953 772 544 341 227 253 26 24 45 15 14 15 17 14 38 46 49 21 30 31 41 25 43 26 31 7 31
976 1512 1661 1720 1685 1520 1476 1442 1387 1433 1254 1134 1084 1114 1067 989 856 652 425 283 320 273 20 17 14 17 14 13 14 4 0 14 33 36 31 28 36 19 42 76 85 48 52
976 1532 1611 1572 1698 1587 1492 1425 1402 1538 1574 1499 1314 1139 1031 921 763 552 390 308 316 278 21 22 28 37 17 14 3 2 3 4 19 9 10 0 9 31 61 53 63 57 66
557 410 745 395 820 1507 1505 1433 1364 1437 1724 1643 1451 1158 1040 861 678 483 279 158 313 287 34 25 13 5 2 11 0 1 4 1 0 0 0 0 7 32 45 36 27 38 42
414 214 398 156 100 228 578 424 618 968 1078 1623 1454 1246 1032 788 705 440 149 70 253 251 22 6 0 0 8 0 0 0 0 0 0 0 0 0 0 18 20 16 13 15 9
356 230 371 224 91 310 628 710 376 585 806 1177 1379 1163 946 850 680 408 113 33 195 191 4 0 0 0 0 0 0 0 0 0 0 0 0 0 0 30 23 25 14 20 22
279 301 107 216 136 95 141 141 577 610 814 952 1235 933 827 772 621 305 66 23 59 18 0 0 0 3 0 0 0 0 0 0 0 0 0 0 2 22 22 17 16 18 16
69 269 65 192 21 11 4 3 80 325 377 870 977 820 768 582 448 181 37 0 0 0 0 0 0 0 0 0 0 0 0 0 0 0 0 0 8 17 16 20 20 15 13
15 29 18 27 7 15 51 13 62 129 313 601 714 661 495 313 224 97 21 0 0 0 0 0 0 0 0 0 0 0 0 0 0 0 0 0 11 13 15 14 17 12 14
2 2 1 1 0 0 0 31 154 144 133 223 358 464 280 209 138 80 0 0 0 0 0 0 0 0 0 0 0 0 0 0 0 0 0 0 7 8 14 13 12 12 12
3 3 3 3 1 0 0 18 23 106 174 194 234 281 94 88 65 2 0 0 0 0 0 0 0 0 0 0 0 0 0 0 0 0 0 11 4 4 5 7 8 8 6
4 6 2 2 2 0 3 0 0 23 50 103 131 105 61 3 4 2 0 0 0 0 0 0 0 0 0 0 0 0 0 0 0 0 0 9 3 4 3 3 5 5 1
2 3 4 2 1 0 1 0 1 1 13 3 63 25 9 35 4 0 0 0 0 0 0 0 0 0 0 0 0 0 0 0 0 0 2 8 1 1 2 2 0 1 0
3 2 2 1 0 0 0 0 3 9 8 2 53 29 16 10 0 0 0 0 0 0 0 0 0 0 0 0 0 0 0 0 0 0 0 9 4 0 0 0 0 0 0
3 4 5 0 0 0 0 2 2 3 15 14 31 22 0 0 0 0 0 0 0 0 0 0 0 0 0 0 0 0 0 0 0 0 0 0 11 4 2 1 0 0 0
4 6 6 0 0 0 0 0 0 0 0 0 0 0 0 0 0 0 0 0 0 0 0 0 0 0 0 0 0 0 0 0 0 0 0 0 0 2 1 2 1 0 0
4 6 4 0 0 0 0 0 6 0 0 0 1 11 0 0 0 0 0 0 0 0 0 0 0 0 0 0 0 0 0 0 0 0 0 0 0 0 0 0 0 0 0
5 5 6 10 1 4 1 4 34 8 3 17 12 4 0 0 0 0 0 0 0 0 0 0 0 0 0 0 0 0 0 0 0 0 0 0 0 0 0 0 0 0 0
2 8 5 7 6 11 10 11 1 0 7 28 20 14 0 0 0 0 0 0 0 0 0 0 0 0 0 0 0 0 0 0 0 0 0 0 0 0 0 0 0 0 0
2 8 8 5 4 1 0 0 0 1 16 50 41 35 6 0 0 0 0 0 0 0 0 0 0 0 0 0 0 0 0 0 0 0 0 0 0 0 0 0 0 0 0
2 3 5 1 1 0 0 0 0 0 0 13 43 40 11 0 0 0 0 0 0 0 0 0 0 0 0 0 0 0 0 0 0 0 0 0 0 0 0 0 0 0 0
0 1 4 0 0 0 0 0 0 0 0 6 2 6 6 4 0 0 0 0 0 0 0 0 0 0 0 0 0 0 0 0 0 0 0 0 0 0 0 0 0 0 0
0 1 0 0 0 0 0 0 0 0 0 0 0 0 1 0 0 0 0 0 0 0 0 0 0 0 0 0 0 0 0 0 0 0 0 0 0 0 0 0 0 0 0
0 0 0 0 0 0 0 0 0 0 0 0 0 0 0 0 0 0 0 0 0 0 0 0 0 0 0 0 0 0 0 0 0 0 0 0 0 0 0 0 0 0 0
0 0 0 0 0 0 0 0 0 0 0 0 0 0 0 0 0 0 0 0 0 0 0 0 0 0 0 0 0 0 0 0 0 0 0 0 0 0 0 0 0 0 0
0 0 0 0 0 0 0 0 0 0 0 0 0 0 0 0 0 0 0 0 0 0 0 0 0 0 0 0 0 0 0 0 0 0 0 0 0 0 0 0 0 0 0

GFSSE_con_sbcape_078.txt.gz
CAPE
1080 1458 1718 1704 1647 1475 1418 1293 1596 1593 1549 1585 1481 1330 1285 1308 1226 1089 971 833 702 566 93 14 45 21 28 20 23 26 43 37 47 56 35 41 26 14 19 17 36 35 50
701 1510 1619 1650 1630 1590 1538 1349 1444 1685 1740 1714 1510 1421 1324 1344 1103 876 675 586 548 428 36 20 15 17 29 28 20 15 35 46 49 64 49 36 56 68 63 60 52 43 35
1408 1538 1338 1297 1474 1603 1236 1248 1503 1808 1842 1637 1615 1472 1415 1203 956 726 685 593 567 426 49 26 19 16 18 19 15 14 16 14 21 16 11 2 43 81 73 65 47 44 37
738 1077 735 986 1048 987 857 910 978 1779 1691 1658 1615 1458 1306 1071 804 767 650 515 544 466 61 24 30 15 9 12 9 8 2 0 0 0 0 0 30 52 41 39 32 29 23
444 528 560 523 329 335 342 180 663 1302 1518 1560 1444 1394 1272 1009 860 735 544 481 555 612 252 175 70 23 4 10 11 4 0 0 0 0 0 0 4 13 23 14 20 22 19
414 387 514 423 388 403 315 111 38 641 1147 1389 1307 1274 1137 936 709 525 453 463 524 316 20 20 32 6 2 6 6 1 0 0 0 0 0 3 2 26 18 19 20 17 12
374 226 425 267 151 130 278 96 112 167 817 959 1208 968 941 752 442 323 349 398 222 24 3 13 6 0 0 0 0 0 0 0 0 0 0 0 6 21 25 19 18 18 16
261 267 278 408 419 319 550 711 494 388 599 807 896 837 821 528 291 251 297 166 6 0 19 18 3 0 0 0 0 0 0 0 0 0 0 0 16 22 24 17 14 15 16
8 228 68 138 46 30 28 176 374 504 492 578 619 702 546 302 180 168 113 6 0 5 91 2 0 0 0 0 0 0 0 0 0 0 0 0 20 20 15 15 15 13 13
1 1 68 9 0 0 20 97 101 245 235 288 343 387 344 198 142 50 7 0 0 0 20 0 0 0 0 0 0 0 0 0 0 0 0 4 19 13 15 10 10 10 8
2 1 1 0 0 0 0 75 94 240 148 97 164 218 204 65 28 0 0 0 0 0 0 0 0 0 0 0 0 0 0 0 0 0 0 19 18 14 11 7 7 8 7
2 3 1 0 0 0 0 0 82 45 41 68 103 130 116 33 1 0 0 0 0 0 0 5 14 0 0 0 0 0 0 0 0 0 0 12 7 9 8 8 4 4 3
2 2 2 1 0 0 0 0 2 0 4 29 34 115 25 0 1 0 0 0 0 0 0 1 3 0 0 0 0 0 0 0 0 0 4 13 9 5 6 7 2 1 0
2 2 2 1 0 0 0 0 1 19 14 1 32 26 37 2 0 0 0 0 0 0 0 0 0 0 0 0 0 0 0 0 0 0 3 13 7 6 5 3 1 0 0
2 2 2 1 0 0 0 0 0 11 19 20 26 26 13 6 0 0 0 0 0 0 0 0 0 0 0 0 0 0 0 0 0 0 0 7 9 3 2 1 0 0 0
2 4 2 0 0 0 0 0 0 3 16 34 28 30 9 1 0 0 0 0 0 0 0 0 0 0 0 0 0 0 0 0 0 0 0 0 0 14 8 1 2 1 0
3 5 1 0 1 0 0 0 1 0 5 48 26 0 0 0 0 0 0 0 0 0 0 0 0 0 0 0 0 0 0 0 0 0 0 0 0 2 5 1 0 0 0
5 4 2 3 1 1 0 0 9 0 3 26 31 1 0 0 0 0 0 0 0 0 0 0 0 0 0 0 0 0 0 0 0 0 0 0 0 0 0 0 0 0 0
2 5 5 4 3 9 5 16 15 9 0 2 26 12 0 0 0 0 0 0 0 0 0 0 0 0 0 0 0 0 0 0 0 0 0 0 0 0 0 0 0 0 0
2 4 7 4 6 14 8 5 2 3 3 20 24 15 0 0 0 0 0 0 0 0 0 0 0 0 0 0 0 0 0 0 0 0 0 0 0 0 0 0 0 0 0
4 10 9 4 7 9 3 0 6 15 7 21 22 40 2 0 0 0 0 0 0 0 0 0 0 0 0 0 0 0 0 0 0 0 0 0 0 0 0 0 0 0 0
4 11 3 3 3 0 0 1 0 0 0 26 44 26 7 0 0 0 0 0 0 0 0 0 0 0 0 0 0 0 0 0 0 0 0 0 0 0 0 0 0 0 0
4 4 1 0 0 0 0 0 0 0 0 6 19 26 30 16 1 0 0 0 0 0 0 0 0 0 0 0 0 0 0 0 0 0 0 0 0 0 0 0 0 0 0
0 0 1 0 0 0 0 0 0 0 3 7 1 9 1 9 12 0 0 0 0 0 0 0 0 0 0 0 0 0 0 0 0 0 0 0 0 0 0 0 0 0 0
0 0 0 0 0 0 0 0 0 0 0 0 0 0 0 0 0 0 0 0 0 0 0 0 0 0 0 0 0 0 0 0 0 0 0 0 0 0 0 0 0 0 0
0 0 0 0 0 0 0 0 0 0 0 0 0 0 0 0 0 0 0 0 0 0 0 0 0 0 0 0 0 0 0 0 0 0 0 0 0 0 0 0 0 0 0

GFSSE_con_sbcape_081.txt.gz
CAPE
1008 1366 1623 1817 1754 1616 1618 1800 1602 1440 1584 1634 1539 1380 1210 1271 1283 1261 1224 1115 894 843 259 67 290 48 37 22 26 51 61 74 61 49 47 23 20 18 43 41 59 12 30
1123 1653 1614 1811 1814 1681 1669 1918 1819 1782 1799 1767 1533 1375 1434 1410 1378 1371 1244 1027 795 356 79 21 41 40 30 23 48 44 51 70 60 54 75 44 41 32 31 21 39 3 9
1558 1918 1793 1652 1806 1775 1771 2020 2002 2005 1987 1829 1591 1595 1607 1537 1429 1225 968 822 626 378 18 21 27 42 28 32 29 25 15 15 27 36 74 32 32 40 25 13 14 10 16
440 1612 1798 1577 1681 1671 1733 1755 1977 2117 2004 1805 1754 1712 1595 1447 1246 1119 858 654 555 403 26 20 18 30 22 18 16 4 2 0 0 12 30 20 27 39 29 27 20 28 25
450 670 1431 1311 1327 1399 1243 946 1324 1579 895 1568 1802 1737 1488 1338 1305 1120 748 587 481 327 22 26 22 11 10 18 8 5 0 0 2 9 16 14 13 22 21 21 21 17 17
730 621 659 928 1156 1280 1083 982 727 591 815 1047 1602 1606 1418 1336 1276 1009 680 487 502 437 374 25 13 8 10 9 7 1 0 0 2 5 12 12 15 23 26 20 18 18 18
743 469 445 694 919 730 631 780 630 464 569 683 1314 1397 1257 1262 1143 815 625 585 481 446 329 67 6 2 5 6 2 0 0 0 0 2 7 14 25 21 23 22 12 17 16
573 427 380 281 408 460 846 484 318 560 494 781 869 1077 1081 951 851 684 518 287 182 286 245 22 2 1 2 2 0 0 0 0 0 2 5 15 24 23 22 21 16 16 12
145 411 579 527 517 693 466 417 169 269 412 361 695 718 608 530 501 502 228 86 141 255 110 6 0 2 4 1 0 0 0 0 3 5 5 14 20 18 21 17 13 12 12
3 304 178 125 34 21 237 90 338 242 125 239 389 289 227 260 362 141 76 118 210 187 73 2 0 3 3 0 0 0 0 0 1 2 4 17 23 20 17 13 13 9 8
4 2 80 15 0 0 27 95 152 340 204 232 325 194 102 183 118 59 20 151 252 127 21 0 0 0 0 0 0 0 0 0 0 3 4 31 21 18 15 11 9 6 4
3 2 1 2 0 0 0 112 370 102 134 107 169 60 38 22 20 12 30 106 177 77 33 0 0 0 0 0 0 0 0 0 0 2 7 27 17 13 9 7 7 6 5
3 3 2 0 0 0 0 44 143 187 83 22 21 34 14 49 24 7 3 7 64 105 17 0 0 0 0 0 0 0 0 0 0 0 5 21 15 12 5 3 4 2 1
4 5 4 1 0 0 0 2 3 107 6 10 31 16 30 67 17 8 0 0 0 21 80 1 0 0 0 0 0 0 0 0 0 0 5 12 15 7 7 2 1 0 0
4 5 4 1 0 0 0 1 10 4 7 6 44 64 16 4 0 0 0 0 0 0 1 0 0 0 0 0 0 0 0 0 0 0 1 9 13 10 5 2 0 0 0
3 5 3 1 0 0 0 1 6 6 3 20 21 43 11 0 0 0 0 0 0 0 0 0 0 0 0 0 0 0 0 0 0 0 1 0 7 14 8 1 0 0 0
3 5 2 1 0 3 0 2 8 1 11 2 47 40 29 0 0 0 0 0 0 0 0 0 0 0 0 0 0 0 0 0 0 0 0 2 3 7 12 8 3 1 0
7 5 2 1 0 4 0 2 8 16 34 33 48 39 22 2 0 0 0 0 0 0 0 0 0 0 0 0 0 0 0 0 0 0 0 0 1 4 6 16 11 0 0
7 7 5 4 2 3 0 5 6 1 18 12 48 39 23 2 0 0 0 0 0 0 0 0 0 0 0 0 0 0 0 0 0 0 0 0 0 0 1 0 1 0 0
6 12 6 4 7 6 8 8 3 12 17 49 70 31 6 6 0 0 0 0 0 0 0 0 0 0 0 0 0 0 0 0 0 0 0 0 0 0 0 0 1 0 0
15 16 7 5 7 17 8 19 9 19 41 53 61 29 36 16 0 0 0 0 0 0 0 0 0 0 0 0 0 0 0 0 0 0 0 0 0 0 0 0 0 0 0
11 20 12 6 7 8 7 5 6 7 39 26 42 32 37 29 2 0 0 0 0 0 0 0 0 0 0 0 0 0 0 0 0 0 0 0 0 0 0 0 0 0 0
13 17 11 5 7 5 10 1 0 0 0 22 26 23 60 16 0 0 1 1 2 0 1 0 0 0 0 0 0 0 0 0 0 0 0 0 0 0 0 0 0 0 0
8 19 13 6 5 5 1 5 4 4 6 6 7 23 34 29 0 0 13 9 18 4 0 1 0 0 0 0 0 0 0 0 0 0 0 0 0 0 0 0 0 0 0
1 11 7 9 8 5 1 0 0 9 10 1 4 40 68 47 31 8 19 21 27 5 7 9 0 0 0 0 0 0 0 0 0 0 0 0 0 0 0 0 0 0 0
0 3 7 3 10 9 5 11 0 2 11 1 3 62 78 64 42 53 26 7 13 14 12 9 11 1 0 0 0 0 0 0 0 0 0 0 0 0 0 0 0 0 0

GFSSE_con_sbcape_084.txt.gz
CAPE
1401 1361 1587 1719 1706 1715 1971 1900 1572 1516 1620 1718 1650 1435 1277 1345 1384 1341 1202 1010 935 866 475 264 435 188 48 39 22 63 108 49 38 88 49 64 61 48 20 61 49 28 44
1513 1457 1492 1782 1817 1837 2065 1915 1690 1659 1771 1862 1676 1377 1360 1504 1572 1438 1274 1045 946 872 302 186 97 37 30 31 44 136 57 45 39 42 51 40 39 23 5 11 29 13 17
1462 1773 1717 1702 1840 1944 2167 2041 1877 1950 2036 1935 1686 1475 1658 1718 1692 1549 1326 1111 979 803 213 180 43 22 24 14 35 50 49 57 78 88 81 28 21 17 7 9 10 10 13
1135 1805 1964 1695 1813 1934 1927 1909 1917 2137 2062 1872 1703 1717 1789 1788 1761 1470 1149 804 665 681 114 137 44 32 25 13 16 12 6 14 46 61 14 17 20 18 11 10 11 14 13
1040 1260 2067 1648 1758 1914 1956 1876 1412 1218 1748 1692 1689 1918 1897 1848 1666 1367 958 666 598 519 172 92 37 34 20 16 14 9 0 0 2 41 24 17 15 15 17 14 15 12 25
1091 1152 1492 1381 1509 1839 1345 1351 755 702 960 827 1073 1206 1823 1712 1575 1222 872 737 564 519 197 25 33 28 13 11 9 0 0 0 13 7 17 16 10 18 17 9 13 17 19
885 1022 1515 1022 1285 1556 1069 720 831 1042 778 678 706 911 1259 1534 1304 1031 814 584 519 323 169 17 12 8 5 1 0 0 0 0 6 4 2 9 17 20 17 18 14 14 12
884 918 872 868 863 896 968 753 544 639 795 710 404 728 1080 1254 1111 898 776 668 568 316 92 13 13 4 2 0 0 0 0 0 0 2 4 9 26 18 20 17 13 13 13
667 931 768 886 860 323 701 381 525 618 680 495 364 479 713 877 772 841 770 625 540 208 7 5 5 5 2 0 0 0 0 1 0 4 1 10 18 23 18 18 17 17 17
234 488 674 669 913 709 628 369 184 413 353 443 438 351 399 411 526 428 366 492 295 144 4 3 3 2 1 0 0 0 0 0 4 1 1 7 21 16 17 18 15 13 13
29 173 472 406 472 213 404 406 284 292 343 242 196 253 168 195 395 208 215 283 193 76 3 0 1 1 0 0 0 0 0 0 1 3 2 27 21 16 16 14 13 13 11
336 4 20 8 13 151 290 209 175 527 234 160 95 200 96 120 165 186 250 209 143 12 0 1 2 0 0 0 0 0 0 1 2 0 5 29 22 17 16 13 8 6 5
35 6 5 2 2 1 11 167 319 1108 545 217 83 79 137 76 121 262 273 259 104 0 0 0 0 0 0 0 0 0 0 0 2 3 7 24 17 17 16 10 6 4 2
5 8 6 2 2 0 26 99 275 505 441 390 3 1 22 1 28 165 213 135 85 22 0 0 0 1 0 0 0 0 0 0 1 12 15 24 25 15 10 5 4 2 1
5 10 10 5 0 1 4 112 68 285 116 15 0 3 2 18 2 70 159 169 117 85 41 6 4 0 0 0 0 0 0 0 3 7 8 14 25 15 8 5 1 0 0
22 7 9 9 3 11 13 8 6 12 4 1 6 10 9 11 23 26 40 28 127 163 94 25 2 0 0 0 0 0 0 0 0 3 1 4 10 21 13 2 0 0 0
6 8 10 8 4 8 27 9 10 6 11 9 1 2 24 50 68 31 0 0 3 20 42 7 10 0 0 0 0 0 0 0 0 0 1 3 5 12 15 9 1 0 0
6 5 9 7 5 19 10 11 7 13 11 23 12 24 50 60 16 0 0 0 0 0 0 0 0 0 0 0 0 0 0 0 0 0 0 3 7 2 5 23 14 1 0
3 8 11 9 9 19 13 8 13 16 3 39 33 36 40 18 1 0 0 0 0 0 0 0 0 0 0 0 0 0 0 0 0 0 0 0 3 6 14 4 18 26 9
7 12 8 6 6 19 18 13 22 28 31 20 52 29 10 0 0 13 5 0 0 0 0 0 0 0 0 0 0 0 0 0 0 0 0 0 0 5 7 15 6 4 0
14 13 6 3 16 50 17 12 28 26 52 39 38 39 34 0 0 0 10 0 0 0 0 0 0 0 0 0 0 0 0 0 0 0 0 0 0 0 2 5 6 18 0
14 20 7 3 6 12 38 24 14 27 36 32 41 58 42 13 0 1 18 0 0 0 1 0 0 0 0 0 0 1 7 0 0 0 0 0 0 0 0 0 0 0 0
19 21 13 8 3 13 23 7 4 13 70 74 107 52 56 47 7 6 8 17 22 77 62 39 3 10 1 0 0 20 117 120 72 0 0 0 0 0 0 0 0 0 0
15 16 22 13 8 10 26 16 4 3 14 53 78 54 63 100 92 25 32 38 90 58 55 80 36 38 29 47 0 0 25 119 130 102 0 0 0 0 0 0 0 0 0
7 9 20 20 14 8 14 11 4 10 5 66 19 15 24 112 116 56 54 57 89 65 78 102 77 94 66 99 112 109 9 4 9 70 102 21 0 0 0 0 0 0 0
6 2 21 17 18 7 12 20 23 9 7 15 0 1 0 81 107 135 76 84 90 78 86 154 182 162 128 141 144 137 146 103 80 69 74 67 63 28 0 0 0 0 0

GFSSE_con_sbcape_087.txt.gz
CAPE
1584 1664 1524 1603 1729 2020 2037 1744 1638 1588 1649 1764 1707 1424 1286 1483 1468 1318 1148 1114 1072 981 405 323 489 534 333 90 20 293 398 310 229 254 217 59 49 33 35 175 89 35 135
1864 1864 1515 1762 1796 2025 2185 1921 1715 1671 1799 1936 1692 1466 1517 1601 1567 1372 1355 1291 1145 1031 435 374 350 294 116 48 168 199 126 95 134 160 191 35 31 28 14 18 39 13 21
1867 1845 1721 1614 1682 2064 2319 2080 1851 1838 1980 2014 1725 1603 1683 1750 1656 1510 1437 1282 1144 983 449 296 213 119 75 71 141 171 113 77 99 138 69 16 20 16 14 12 20 11 16
1782 2090 2032 1592 1757 1949 2169 1754 1822 2008 2134 1997 1704 1696 1833 1906 1715 1614 1387 1102 1077 1023 395 155 49 55 43 21 32 135 142 128 51 45 13 14 18 15 10 8 8 12 10
1637 1890 2261 1615 1688 2002 1902 1684 1595 1687 1416 1582 1612 1859 1970 2007 1814 1574 1303 1072 1022 942 392 144 75 28 8 16 19 28 26 35 38 17 15 17 22 13 12 7 9 10 20
1299 1873 1598 1445 1700 1983 1667 1313 1198 861 702 839 1300 1476 1692 1565 1660 1156 981 874 868 926 540 174 87 17 11 7 7 11 7 0 20 8 6 18 12 31 20 5 5 7 24
1252 1486 1869 1211 1367 1939 1985 1226 678 385 444 126 69 535 970 1102 1302 1078 864 781 795 744 499 161 38 2 0 0 0 0 0 0 11 6 6 8 19 18 22 19 16 14 15
1115 1333 1474 1105 871 1054 1427 917 551 496 194 156 154 601 637 748 660 755 722 654 525 283 174 80 31 1 0 0 0 0 0 0 12 9 4 10 25 21 20 17 16 14 14
874 1067 1387 1659 1010 337 764 638 522 373 332 501 254 312 249 443 416 538 685 539 417 192 66 16 13 5 0 0 0 0 0 3 10 4 5 11 25 18 18 14 15 15 15
661 913 1102 1431 1439 1056 978 214 208 291 226 221 308 175 138 197 359 399 534 477 273 128 37 13 5 0 0 0 0 0 0 1 5 4 3 12 24 22 19 14 14 14 14
529 689 887 1095 1118 897 916 691 188 192 192 176 140 83 2 168 288 395 343 252 137 57 10 10 4 1 0 0 0 0 0 11 9 4 2 30 27 25 22 18 14 13 12
535 554 546 586 805 955 563 609 481 411 340 386 192 163 122 143 249 367 335 124 74 56 15 8 2 0 0 0 0 0 7 16 22 5 7 36 21 25 19 13 12 12 11
483 306 220 64 15 510 682 464 382 636 402 236 178 117 93 117 125 342 299 238 85 4 0 0 0 0 0 0 0 2 7 9 19 5 12 33 27 21 18 12 7 7 7
276 22 31 6 2 3 1 31 504 828 676 192 55 40 111 90 88 311 314 176 21 5 0 0 0 5 0 0 0 1 1 13 21 5 10 19 33 16 14 10 7 4 2
305 3 4 9 5 3 5 34 69 370 627 159 100 37 70 47 57 99 190 158 27 31 21 2 12 0 0 0 0 0 2 10 12 2 4 16 21 20 9 9 5 2 1
182 37 1 10 9 5 1 2 110 186 291 106 36 3 2 0 32 82 185 159 207 102 67 59 32 0 0 0 0 2 4 4 12 3 3 12 22 24 15 4 1 0 0
155 97 9 10 9 4 26 10 9 68 10 9 3 2 0 0 3 31 152 194 241 220 233 152 47 0 0 0 0 0 0 1 7 11 1 4 5 10 11 14 2 0 0
138 55 2 4 4 12 16 13 9 5 5 1 4 4 0 0 0 0 86 173 237 261 164 86 40 2 0 0 0 0 0 0 3 12 12 7 1 2 2 15 13 5 0
105 29 1 5 4 16 20 13 4 4 9 4 3 2 0 0 0 3 81 89 97 118 102 91 55 39 11 0 0 0 0 0 0 0 8 11 10 4 0 0 0 5 10
66 4 13 7 5 29 16 14 8 3 3 2 4 0 0 9 21 63 52 25 7 0 45 23 33 11 9 0 0 0 0 0 0 0 1 1 5 3 9 13 0 0 11
85 5 11 9 9 31 10 14 19 23 18 1 0 0 4 37 42 50 36 43 1 2 0 9 19 24 0 0 0 0 0 0 0 0 0 0 0 0 3 2 22 4 0
87 6 8 9 8 20 16 12 5 3 10 10 6 6 21 21 37 105 140 62 20 8 8 28 64 7 0 0 0 0 0 0 0 0 0 0 0 0 1 4 6 1 1
54 2 2 10 15 27 26 17 16 29 51 56 18 3 25 27 40 68 206 83 107 84 109 173 140 65 41 1 0 81 129 140 78 0 0 0 0 0 0 0 1 0 0
228 3 21 8 12 24 37 14 10 3 9 12 2 9 58 97 42 2 57 124 98 111 156 188 163 248 221 88 15 3 77 113 112 142 27 0 0 0 0 0 0 0 0
382 6 19 15 9 16 33 11 11 0 0 0 0 17 83 111 102 41 6 146 257 223 299 343 314 196 177 180 139 91 56 50 169 74 29 69 0 0 0 0 0 0 0
351 63 20 19 13 14 16 15 4 4 3 28 18 23 42 51 51 55 70 192 205 303 310 380 343 255 322 338 210 296 198 119 53 115 102 215 142 27 4 0 0 0 2

GFSSE_con_sbcape_090.txt.gz
CAPE
1573 1145 1484 1699 1874 2058 1792 1599 1563 1355 1214 1684 1510 1347 1586 1467 1213 1034 996 902 865 886 362 328 814 609 421 477 410 616 519 413 363 431 424 227 165 125 51 227 94 27 143
1892 1424 1574 1813 1974 2204 1976 1745 1622 1658 1603 1849 1535 1430 1601 1489 1312 1281 1228 1223 1126 837 598 753 610 345 207 200 519 503 382 293 215 200 276 112 52 62 40 103 49 39 22
1955 1530 1339 1588 1964 2248 2224 1962 1787 1785 1904 1941 1599 1630 1721 1635 1505 1499 1414 1253 1186 1211 758 590 432 309 83 258 329 357 413 299 182 63 18 3 11 26 31 17 19 13 15
1824 2316 1960 1441 1742 2226 2294 2054 1888 1886 2023 1987 1741 1790 1896 1755 1679 1643 1490 1292 1172 1133 689 500 396 208 99 317 253 249 237 77 20 34 0 3 10 27 26 20 11 8 8
1737 1975 1806 1472 1604 1902 2201 2046 1984 1880 1651 1624 1775 1892 1981 1885 1825 1759 1405 1195 1255 1177 576 375 287 86 116 172 170 157 45 54 30 0 0 3 3 20 12 12 11 17 21
1502 1927 1483 1499 1678 1926 1919 2029 1907 1738 1212 840 50 12 1560 1925 1776 1579 1214 1083 1055 1007 577 249 108 46 48 56 84 80 42 39 60 0 0 14 3 32 26 17 13 13 36
1480 2005 1903 1351 1604 1913 1964 1859 1758 1226 792 308 28 1 65 1072 1189 989 1012 1040 950 901 538 94 45 38 27 11 14 0 0 0 6 0 0 0 12 20 13 8 14 8 15
1241 1895 1550 1183 1149 1499 1856 1379 1065 565 373 14 6 0 12 304 484 478 648 746 880 659 421 144 62 35 17 0 0 0 0 0 15 0 0 2 21 12 16 10 5 13 18
930 1255 1704 1292 925 751 1137 856 475 630 94 186 46 0 27 197 254 411 369 684 596 405 232 61 31 18 0 0 0 0 0 8 0 0 0 2 19 19 17 25 24 17 15
767 1081 1236 1457 1022 921 789 664 500 456 355 116 152 83 20 154 170 249 275 332 364 239 102 26 0 0 0 0 0 0 0 6 0 0 1 13 35 27 15 28 21 16 13
610 738 719 626 1240 1005 907 373 307 498 366 272 229 98 28 41 89 174 145 188 187 77 32 9 0 0 0 0 0 0 0 0 0 0 0 36 16 20 10 14 14 13 14
657 747 569 552 872 932 845 335 291 362 290 108 59 20 18 18 43 137 124 141 123 43 14 8 0 0 0 0 0 0 0 5 0 0 0 38 24 15 15 12 12 13 10
936 499 321 93 111 630 710 457 388 343 116 92 43 36 13 54 100 101 144 72 24 12 3 0 0 0 0 0 0 0 0 4 0 0 7 29 17 18 14 14 14 11 9
614 312 160 0 1 1 122 201 240 215 154 75 67 55 17 97 106 108 74 15 0 0 0 0 0 0 0 0 0 0 12 1 0 0 3 22 27 14 13 8 5 7 6
448 69 0 1 0 5 2 51 3 110 298 85 75 56 17 60 66 86 73 1 0 0 0 0 0 0 0 0 0 0 6 2 0 0 0 11 18 17 11 11 8 5 4
313 47 0 7 1 0 1 0 43 31 135 127 34 24 9 31 39 47 37 5 0 0 0 0 0 0 0 0 0 0 9 2 0 0 0 0 9 19 18 10 5 2 2
195 83 0 2 3 10 0 2 0 56 30 29 68 21 17 8 40 19 13 12 11 22 0 27 0 0 0 0 0 0 0 8 0 0 0 0 0 5 12 13 2 0 0
104 33 0 2 0 15 6 17 23 15 19 1 0 8 1 1 0 20 14 68 34 53 46 26 5 0 0 0 0 0 0 4 2 0 0 0 0 0 4 11 8 3 0
77 6 0 1 1 8 15 8 2 1 0 2 1 0 0 0 0 25 27 72 108 102 59 41 14 7 0 0 0 0 0 0 0 0 0 0 0 0 0 1 5 4 0
106 0 0 0 12 17 4 2 3 2 2 1 1 1 0 0 0 0 0 3 19 34 45 20 19 40 6 2 0 0 1 0 0 0 5 0 0 0 0 0 0 0 0
67 0 0 2 15 9 5 3 2 3 3 4 3 0 0 0 0 0 0 0 0 5 8 21 52 57 0 0 0 0 0 0 0 0 0 0 0 0 0 0 0 0 0
47 0 0 8 15 14 6 2 1 1 0 0 0 5 0 0 0 0 0 0 0 0 2 28 6 0 0 0 0 1 0 0 0 0 0 0 0 0 0 0 0 0 0
32 0 0 2 14 15 8 3 6 2 2 1 3 4 2 0 0 0 0 0 4 0 1 0 0 0 0 0 3 24 41 10 0 0 0 0 0 0 0 0 0 0 0
114 0 0 9 13 11 5 2 0 0 0 1 0 0 3 0 0 0 0 17 0 0 19 2 39 5 23 0 0 1 9 50 54 19 0 0 0 0 0 0 0 0 0
101 0 0 8 12 15 3 3 0 0 1 2 3 0 0 0 0 28 85 71 47 18 30 29 85 165 91 87 4 7 0 8 34 46 0 0 0 0 0 0 0 0 0
212 1 1 6 11 18 12 0 0 0 0 6 0 0 0 0 30 28 38 34 39 44 69 123 103 160 82 70 132 143 85 51 26 18 9 13 2 0 0 0 0 0 0

GFSSE_con_sbcape_093.txt.gz
CAPE
986 1157 1458 1946 1816 1681 1514 1405 1344 1597 1754 1628 1727 1725 1522 1408 1354 1340 1287 1174 1196 1197 815 912 1114 740 772 824 900 818 704 604 527 549 623 373 306 218 129 231 184 50 168
927 1265 1459 1778 2044 1842 1726 1609 1284 1190 1737 1654 1815 1763 1503 1364 1330 1288 1202 1114 1006 731 801 895 785 728 713 642 765 657 550 389 338 379 372 233 153 177 95 81 121 62 94
1084 1320 1527 1617 2068 2023 1921 1847 1736 1453 1799 1699 1887 1834 1639 1522 1463 1452 1356 1140 1065 1178 840 781 645 630 664 720 676 500 320 118 83 95 38 0 21 95 77 41 40 32 33
1299 1126 1199 1573 2003 2262 2033 1904 1860 1994 2147 1905 1941 1940 1774 1658 1635 1586 1325 1147 1419 1427 892 563 405 548 638 743 570 420 242 46 3 1 0 6 25 79 69 35 16 11 15
1589 1511 1199 1354 1808 2209 2151 2037 1919 2027 2059 1866 1503 157 89 1025 1857 1675 1432 1302 1358 1434 826 575 325 405 590 450 325 112 59 31 0 0 0 3 15 57 40 22 13 6 17
1621 1544 1170 1213 1539 2058 2240 2208 2060 2001 1836 440 76 45 2 0 983 1661 1365 1249 1382 1272 645 519 356 417 321 171 157 110 88 32 0 0 0 17 14 48 31 21 26 24 10
1550 1391 1366 1413 1605 1823 2114 2323 2113 1906 1659 250 84 58 51 0 2 1049 915 1253 1141 1007 794 433 230 240 210 175 76 18 16 6 0 0 0 7 17 34 21 16 21 12 16
1032 1153 1237 1327 1533 1727 1779 1692 1896 1630 965 405 180 67 10 0 0 360 578 882 945 720 484 315 190 202 132 40 2 0 0 0 0 0 0 14 32 41 36 13 9 14 17
431 954 935 1092 1092 1143 1502 1076 797 819 608 379 243 40 0 2 94 347 522 634 790 462 347 224 110 94 54 6 0 0 0 0 0 0 0 14 38 34 18 22 14 8 6
300 462 781 755 633 510 846 641 497 424 320 189 120 20 4 0 98 255 196 395 438 364 283 126 52 47 24 0 0 0 0 0 0 0 0 16 40 19 15 16 16 16 14
106 266 450 846 812 606 391 585 573 478 186 175 108 48 7 15 111 138 175 266 294 247 137 64 35 16 0 0 0 0 0 0 0 0 0 17 17 22 17 15 14 13 15
79 66 93 311 800 698 545 93 190 323 132 14 50 31 12 14 4 79 126 118 154 151 66 23 23 2 0 0 0 0 0 0 0 0 0 19 12 24 21 16 13 11 8
95 57 31 13 3 499 363 159 36 44 12 9 36 7 3 6 32 27 91 71 40 19 0 0 0 0 0 0 0 0 0 0 0 0 3 34 33 26 21 14 12 9 8
111 0 0 0 0 9 301 203 176 14 1 8 29 4 0 32 13 3 2 0 0 0 0 0 0 0 0 0 0 0 0 0 0 0 2 13 34 21 18 13 12 8 4
2 0 0 0 0 0 1 69 68 30 10 7 24 0 27 32 24 13 1 0 0 0 0 0 0 0 0 0 0 0 0 0 0 0 0 11 19 20 11 9 6 4 4
0 0 0 0 0 0 0 0 0 1 18 5 22 1 8 35 58 8 0 0 0 0 0 0 0 0 0 0 0 0 0 0 0 0 0 0 10 13 12 5 3 3 4
0 0 0 0 0 0 0 0 0 0 5 23 6 29 4 40 43 0 0 0 0 0 0 0 0 0 0 0 0 0 0 0 0 0 0 0 0 3 10 13 3 3 3
0 0 0 0 0 2 0 0 0 0 0 56 4 5 9 20 10 0 0 0 0 0 0 0 0 0 0 0 0 0 0 0 0 0 0 0 0 0 1 6 7 7 0
0 0 0 0 0 3 2 0 0 1 0 1 2 8 5 12 10 0 0 0 10 0 0 1 0 0 0 0 0 0 0 0 0 0 0 0 0 0 0 0 1 1 0
0 0 0 0 1 2 1 1 1 1 0 1 1 0 3 3 1 2 0 0 23 0 3 0 0 0 0 0 0 0 0 0 0 0 0 0 0 0 0 0 0 0 0
0 0 0 0 2 1 1 1 1 1 1 0 1 0 0 0 0 1 0 3 38 2 0 0 0 0 0 0 0 0 0 0 0 0 0 0 0 0 0 0 0 0 0
0 0 0 0 6 1 1 0 0 1 1 1 1 1 0 0 0 0 0 0 5 5 3 0 0 0 0 0 0 0 0 0 0 0 0 0 0 0 0 0 0 0 0
0 0 0 0 13 2 0 0 0 0 2 2 0 0 2 1 0 0 0 0 0 1 0 0 0 0 0 0 0 0 0 0 0 0 0 0 0 0 0 0 0 0 0
0 0 0 0 8 2 0 1 0 0 0 1 0 0 0 2 0 0 0 0 0 0 0 0 9 0 0 0 0 0 1 2 0 0 0 0 0 0 0 0 0 0 0
0 0 0 0 6 1 0 0 0 0 0 0 1 1 0 0 0 0 0 0 0 0 0 0 2 0 0 0 0 0 0 0 0 0 0 0 0 0 0 0 0 0 0
0 0 0 0 7 1 0 0 0 0 0 0 0 1 0 0 0 0 0 0 0 0 11 3 3 12 9 4 7 0 0 0 0 0 0 0 0 0 0 0 0 0 0

GFSSE_con_sbcape_099.txt.gz
CAPE
974 1243 1438 1650 1731 1594 1538 1558 1552 1580 1809 1920 1940 1863 1794 1777 1757 1771 1690 1712 1674 1579 1424 1550 1573 1499 1282 1063 998 1036 850 565 421 715 811 387 317 327 312 223 246 81 413
917 1380 1442 1705 1701 1641 1531 1704 1691 1786 1889 1988 1955 1910 1884 1869 1854 1763 1755 1685 1841 1642 1251 1366 1792 1619 1177 1076 1050 948 822 725 636 607 646 374 149 128 205 155 271 153 215
1077 1463 1462 1577 1715 1708 1737 1740 1937 2084 2036 2026 1990 1952 1972 1981 1964 1913 1755 1565 1628 1197 1243 1226 1327 1188 1071 1088 1015 926 838 717 636 588 412 69 48 125 150 132 295 159 124
1005 1440 1525 1527 1689 1808 1715 1818 2069 2142 2028 2029 1970 1976 1998 1967 1951 1927 1831 1751 1612 1315 918 1231 1183 1139 914 993 800 675 533 479 344 227 3 16 59 120 147 97 72 78 82
944 1123 1553 1550 1660 1842 1805 1754 2011 2068 2113 1989 1951 1914 1869 1906 1775 1807 1687 1661 1658 1605 1137 1290 1190 996 837 621 480 335 197 82 31 0 0 8 18 72 57 22 21 9 21
911 943 1147 1626 1667 1901 1962 1898 2002 1999 1961 1885 1705 1801 1982 1976 1858 1571 1507 1609 1669 1591 1459 1287 972 816 555 382 187 83 14 0 0 0 0 9 6 34 11 15 19 22 28
1042 725 1015 1435 1830 2014 2171 2120 2065 1932 1321 1261 1139 1303 1499 1779 1715 1528 1461 1300 1174 1320 1371 1267 925 438 386 233 100 2 0 0 0 0 0 0 4 16 18 18 15 17 20
1055 729 811 1228 1707 2157 2235 2069 1965 1540 1002 793 602 729 960 1100 1042 1129 1275 1043 1081 1236 1046 829 618 317 400 145 10 0 0 0 0 0 0 0 38 23 14 14 20 18 21
893 758 778 999 1287 1725 2102 1985 1794 1135 725 565 549 439 328 302 164 529 732 797 891 739 665 602 405 309 149 35 0 0 0 0 0 0 0 0 67 26 22 17 15 17 16
727 749 819 865 945 1295 1364 1508 1442 927 583 434 458 460 395 352 248 247 265 365 586 586 381 361 307 196 25 2 0 0 0 0 0 0 0 0 35 31 22 15 18 29 18
407 363 290 183 215 205 888 873 1047 778 496 386 506 422 204 41 37 62 153 320 405 328 258 376 215 46 0 0 0 0 0 0 0 0 0 28 27 14 20 37 24 25 18
84 113 81 44 39 36 413 520 487 670 509 361 307 114 1 0 1 44 196 357 413 290 281 285 168 3 0 0 0 0 0 0 0 0 0 40 34 20 19 29 18 12 15
7 19 34 65 38 37 146 53 219 40 2 1 0 0 0 0 0 45 44 130 167 121 127 135 8 0 0 0 0 0 0 0 0 0 3 35 39 21 19 17 14 13 13
0 0 0 51 33 15 0 1 46 103 0 1 1 0 0 1 16 93 91 21 41 68 74 29 0 0 0 0 0 0 0 0 0 0 4 22 31 16 25 24 16 15 11
0 0 0 0 5 2 1 0 0 47 5 1 1 0 0 0 40 100 100 77 96 14 10 0 0 0 0 0 0 0 0 0 0 0 1 20 25 32 20 23 19 16 12
2 0 0 0 0 1 0 0 0 0 1 1 2 1 0 1 22 47 26 62 38 1 0 0 0 0 0 0 0 0 0 0 0 0 0 6 15 26 25 17 17 13 9
6 0 0 0 0 0 1 0 1 0 0 1 1 4 3 3 1 19 13 1 0 0 0 0 0 0 0 0 0 0 0 0 0 0 0 0 0 4 13 18 17 8 7
0 0 0 0 0 0 1 1 1 1 0 0 17 4 14 5 1 0 2 0 0 0 0 0 0 0 0 0 0 0 0 0 0 0 0 0 0 0 2 10 17 11 6
0 0 0 0 0 0 0 0 0 0 11 20 12 2 11 7 0 1 1 0 0 0 0 0 0 0 0 0 0 0 0 0 0 0 0 0 0 0 0 0 1 4 7
0 0 0 0 0 0 0 0 1 2 5 4 12 7 15 17 0 1 0 0 0 0 0 0 0 0 0 0 0 0 0 0 0 0 0 0 0 0 0 0 0 0 0
0 0 0 0 1 0 0 0 1 0 0 0 17 12 5 23 0 0 0 0 0 0 0 0 0 0 0 0 0 0 0 0 0 0 0 0 0 0 0 0 0 0 0
0 0 0 0 0 0 0 0 0 0 0 0 1 1 15 30 0 0 0 0 0 0 0 0 0 0 0 0 0 0 0 0 0 0 0 0 0 0 0 0 0 0 0
0 0 0 0 0 0 0 0 1 0 0 0 0 0 1 40 2 0 0 0 0 0 0 0 0 0 0 0 0 0 0 0 0 0 0 0 0 0 0 0 0 0 0
0 0 0 0 0 0 0 0 0 0 0 0 0 0 0 0 1 1 0 0 0 0 0 0 0 1 0 0 0 0 0 0 7 0 0 0 0 0 0 0 0 0 0
0 0 0 0 0 0 0 0 0 0 0 0 0 1 1 0 2 1 0 0 0 0 0 0 0 1 0 0 0 0 7 3 0 0 0 0 0 0 0 0 0 0 0
0 0 0 0 0 0 0 0 0 0 0 0 1 1 1 1 0 1 1 0 4 20 0 0 0 0 0 1 0 6 15 19 3 19 8 0 0 0 0 0 0 0 0

GFSSE_con_sbcape_102.txt.gz
CAPE
866 976 1397 1544 1599 1562 1497 1482 1628 1782 2048 2069 1969 1917 1930 1925 1938 1885 1766 1813 1783 1775 1830 1713 1736 1754 1581 1232 1210 1145 826 843 969 963 842 602 480 500 502 471 484 281 732
869 1079 1341 1596 1647 1596 1526 1596 1687 1927 2166 2244 2111 2043 1985 1986 1952 1883 2007 1914 1928 2012 1699 1571 1872 1677 1372 1284 1216 991 785 772 650 774 808 577 496 400 445 360 531 504 716
976 1207 1292 1544 1663 1693 1707 1763 1859 2137 2290 2337 2237 2149 2127 2113 2043 1985 1958 1920 2003 2032 1695 1555 1679 1452 1206 1291 1147 1082 917 794 687 652 536 24 93 285 367 424 626 615 432
1087 1087 1287 1507 1645 1746 1797 1858 1973 2170 2311 2283 2292 2267 2247 2225 2119 2101 2088 1639 1801 2033 1851 1460 1543 1397 1299 946 958 985 902 722 542 402 22 34 76 325 303 297 294 301 227
1126 1134 1286 1474 1544 1752 1835 1962 2100 2077 2127 2178 2207 2315 2366 2351 2213 2149 1898 1633 1610 1697 1678 1436 1337 1322 1178 913 820 761 631 408 143 5 10 11 10 196 195 151 159 84 200
937 1169 1331 1417 1523 1765 1827 2070 2130 2089 1927 1973 2064 2246 2314 2352 2333 2038 1692 1452 1306 1487 1611 1327 1272 1119 824 596 508 372 209 65 0 0 0 79 1 89 34 0 93 28 76
719 774 1175 1376 1541 1849 1975 1984 2069 1986 1800 1862 1985 2042 2132 2199 1976 1622 1336 1354 1381 1432 1616 1422 1187 925 605 366 275 114 27 4 0 0 0 0 3 27 6 6 4 15 18
643 571 896 1457 1579 1844 1975 1874 1856 1631 1617 1542 1675 1884 2064 2024 1742 1530 1512 1416 1415 1330 1286 1148 770 762 437 224 79 3 0 0 0 0 0 0 51 12 17 7 16 24 19
593 502 626 1139 1676 1864 1890 1814 1695 1311 1165 968 1147 1389 1424 1304 1364 1606 1523 1333 976 915 1096 967 734 495 280 100 18 0 0 0 0 0 0 0 70 22 16 19 20 18 17
565 449 477 668 1091 1492 1588 1675 1417 1071 797 690 467 537 279 277 371 541 909 892 1071 1037 939 633 433 241 131 42 0 0 0 0 0 0 0 0 46 20 20 15 24 11 14
668 428 419 569 628 748 1167 1404 1150 960 599 572 609 432 156 103 131 160 243 438 606 470 454 297 194 77 31 8 0 0 0 0 0 0 0 25 40 20 28 13 27 24 20
978 604 245 308 218 151 550 956 892 958 583 447 381 303 93 11 10 70 81 195 473 277 241 239 49 59 0 0 0 0 0 0 0 0 0 29 51 24 34 33 18 11 24
477 291 59 0 2 3 308 500 478 508 644 376 270 78 0 0 3 26 1 74 111 156 136 150 9 0 0 0 0 0 0 0 0 0 8 43 50 21 36 27 22 25 23
0 129 40 0 0 0 9 43 175 34 110 80 34 0 0 1 0 3 19 99 109 43 120 40 0 0 0 0 0 0 0 0 0 0 3 68 39 31 16 25 27 8 20
0 0 0 0 0 0 1 0 3 23 25 3 0 0 0 0 1 1 31 35 57 33 11 0 0 0 0 0 0 0 0 0 0 0 0 27 24 40 21 13 17 17 27
0 0 0 0 0 0 0 0 0 45 17 0 0 1 0 0 3 10 32 15 22 1 0 0 0 0 0 0 0 0 0 0 0 0 0 12 20 39 28 15 17 23 15
0 0 0 0 0 0 8 0 0 0 1 1 1 0 1 0 0 20 7 15 9 1 0 0 0 0 0 0 0 0 0 0 0 0 0 1 12 16 26 33 33 17 16
0 0 0 0 0 0 0 0 0 0 1 1 1 0 2 6 1 3 1 14 14 0 0 0 0 0 0 0 0 0 0 0 0 0 0 0 0 1 14 26 32 31 17
0 0 0 0 0 0 1 0 0 1 0 1 0 1 3 10 0 0 3 0 0 0 0 0 0 0 0 0 0 0 0 0 0 0 0 0 0 0 0 18 16 14 21
0 0 0 0 0 0 0 0 0 1 0 1 1 1 7 14 0 0 0 1 0 0 0 0 0 0 0 0 0 0 0 0 0 0 0 0 0 0 0 0 0 1 5
0 0 0 0 0 0 1 1 0 0 0 0 1 15 14 16 1 1 1 1 2 0 0 0 0 0 0 0 0 0 0 0 0 0 0 0 0 0 0 0 0 0 0
0 0 0 0 0 0 1 1 0 0 0 0 11 24 15 32 1 1 0 0 0 0 0 0 0 0 0 0 0 0 0 0 0 0 0 0 0 0 0 0 0 0 0
0 1 0 0 0 1 0 0 0 0 0 0 0 2 11 41 1 2 2 0 0 0 0 0 0 0 0 0 0 0 0 0 0 0 0 0 0 0 0 0 0 0 0
0 0 0 0 0 0 0 0 0 0 0 0 0 0 0 10 3 0 0 0 0 0 0 0 0 0 0 0 0 0 0 0 0 0 0 0 0 0 0 0 0 0 0
0 0 0 0 0 0 0 0 0 0 0 0 0 0 0 0 2 1 0 1 0 0 0 0 0 0 0 1 0 0 0 0 0 0 0 0 0 0 0 0 0 0 0
0 0 0 0 0 0 0 0 0 0 0 0 1 1 1 2 3 2 3 0 0 0 0 0 0 0 0 2 0 0 0 4 1 3 0 0 0 0 0 0 0 0 0

GFSSE_con_sbcape_105.txt.gz
CAPE
1100 1134 1102 1042 1278 1500 1454 1576 1713 1853 1802 1893 1935 1952 1988 2039 2049 2031 2044 1931 1923 1892 1855 1780 1839 1772 1545 1285 1346 1184 1263 1112 1006 1060 1098 893 773 656 710 791 775 630 952
1284 1247 1116 962 1038 1540 1555 1693 1840 2093 2080 2114 2091 2079 2059 2092 2094 2085 2041 2011 1930 2023 1619 1916 2070 1989 1709 1497 1232 1145 1163 1004 979 999 992 874 789 721 630 787 711 670 821
1404 1323 1408 1279 1490 1609 1637 1858 2087 2378 2403 2351 2281 2239 2221 2185 2128 2135 2171 2114 2063 2091 1745 1815 1967 1817 1565 1409 1217 1129 1046 953 936 888 837 526 541 616 638 869 886 861 761
1391 1385 1587 1288 1542 1694 1686 1875 2184 2497 2525 2457 2410 2385 2356 2315 2233 2275 2159 2144 2137 2145 2052 1703 1750 1526 1593 1380 1212 1088 1014 893 660 447 163 276 223 610 577 520 586 634 647
1273 1311 1546 1431 1498 1734 1762 1839 2189 2335 2379 2393 2388 2500 2514 2408 2346 2183 1945 1696 2041 1951 2177 1860 1657 1654 1303 1124 818 842 855 575 316 183 78 277 186 558 543 464 568 554 564
1339 1299 1233 1381 1497 1722 1892 2001 2069 2224 2141 2227 2323 2493 2529 2523 2428 1943 1845 1809 1694 1579 1929 2050 1712 1433 1079 839 786 713 431 239 215 159 131 337 380 482 320 149 438 438 320
1565 1284 1245 1289 1481 1725 2012 2171 2160 2011 1999 2126 2251 2385 2463 2465 2373 1851 1475 1318 1437 1528 1605 1841 1583 1096 859 678 574 343 155 109 385 300 314 340 244 114 65 22 6 116 165
1564 1630 1770 1386 1458 1618 1786 1952 1970 1821 1717 1895 2101 2200 2347 2301 2010 1651 1402 1309 1127 1409 1539 1496 1238 898 676 502 285 106 46 85 298 320 256 224 246 122 29 1 15 51 20
1308 1452 1887 1874 1795 1576 1645 1614 1678 1656 1615 1683 1846 1803 1877 1752 1414 1523 1259 1250 1433 1210 1225 1293 1013 653 517 255 122 54 1 58 235 184 106 178 203 68 19 4 2 3 13
1272 1311 1446 2020 1976 2126 2136 1510 1482 1292 1264 1264 1362 1401 1144 1200 1184 1087 1245 1265 1300 1167 985 980 813 460 252 96 50 0 0 1 155 119 116 119 157 12 17 28 14 13 21
953 1347 1344 1560 2012 1927 2226 2049 1355 1190 920 804 992 795 614 1403 1290 1128 1089 666 818 867 1158 894 488 187 69 46 11 0 1 127 107 88 89 70 67 18 29 26 20 19 22
1371 1118 1281 1373 1576 1927 1833 2149 1698 1759 1506 1051 1162 1286 1328 1012 1062 1040 760 475 744 624 678 490 215 75 37 30 68 0 84 84 101 92 74 60 73 32 27 21 18 14 23
1393 1245 751 851 1307 1354 1539 1703 1693 1450 1170 1012 1215 748 558 260 347 523 601 536 727 529 914 201 156 116 29 38 5 10 31 75 73 52 37 45 58 42 50 25 26 23 23
1121 1158 698 625 1094 1119 1199 1245 1189 1215 832 901 625 948 750 324 176 263 232 240 353 727 635 139 241 35 0 35 0 0 0 3 24 19 30 16 41 42 50 37 35 28 23
831 1079 791 771 1006 795 458 691 917 736 400 413 622 315 732 498 115 482 237 192 444 580 596 66 4 2 0 4 0 0 0 0 4 16 25 17 29 51 52 36 23 20 30
377 602 695 830 841 579 288 109 428 226 103 88 244 341 370 695 539 100 139 242 303 214 275 1 0 0 0 4 0 0 0 0 0 14 33 32 14 53 75 41 21 20 30
406 340 182 554 694 566 436 29 95 268 286 50 5 5 102 224 82 30 171 272 145 2 2 0 0 0 0 3 0 0 0 0 0 12 24 23 12 39 45 50 34 37 29
149 145 100 76 427 484 276 32 72 169 227 154 28 9 8 21 20 101 155 10 5 3 1 0 0 0 0 8 0 0 0 0 1 9 21 12 42 23 11 28 37 36 28
0 46 97 113 230 269 170 21 2 9 11 56 92 6 9 7 9 75 103 7 2 3 0 1 1 0 1 4 0 0 0 1 1 0 28 8 35 32 23 22 18 21 26
0 0 39 153 192 144 4 2 5 4 4 8 8 12 15 4 7 38 31 1 2 1 2 2 0 0 5 5 1 4 2 5 3 29 8 36 34 27 29 21 19 10 4
0 0 9 75 119 13 0 0 2 6 3 5 12 7 3 7 19 8 4 1 6 1 1 1 1 0 12 47 9 8 12 7 13 5 26 46 31 32 16 15 11 9 5
0 0 1 26 18 130 16 17 21 13 4 4 9 4 1 12 12 2 2 1 1 0 2 0 0 1 2 0 10 6 9 7 20 11 33 37 26 22 20 7 24 18 12
0 0 0 2 2 103 87 4 4 1 4 4 3 8 7 26 5 3 1 4 2 0 2 0 0 0 1 1 28 29 12 22 12 22 34 24 15 12 13 11 3 3 5
0 0 0 4 3 30 5 3 3 1 2 0 0 1 18 54 10 3 1 4 3 3 2 0 1 0 0 6 23 7 29 7 17 7 10 7 10 5 0 13 0 1 0
0 0 0 2 4 3 5 3 3 1 3 3 2 0 8 30 17 1 1 2 1 1 0 0 0 0 4 43 43 0 0 22 18 11 7 7 9 3 1 1 2 1 0
0 0 3 3 4 4 6 4 1 2 2 3 2 2 7 1 1 15 2 3 0 0 0 2 3 1 2 36 39 9 16 23 7 11 17 21 17 4 6 11 6 1 8

GFSSE_con_sbcape_108.txt.gz
CAPE
754 1248 1028 1220 1289 1544 1674 1704 1794 1865 1894 1876 1983 2066 2101 2128 2144 2205 2233 2176 2107 2125 1888 1734 1915 1715 1441 1315 1600 1542 1421 1297 1255 1304 1231 1011 1001 906 891 1101 1033 780 940
808 1369 888 987 1388 1582 1712 1800 1890 1881 1964 2069 2100 2147 2158 2231 2286 2326 2321 2221 2189 2232 1801 1736 1979 1958 1566 1686 1596 1453 1311 1224 1222 1174 1175 951 900 799 802 995 941 849 915
1174 1513 1241 899 1363 1600 1744 1937 2172 2154 2258 2330 2277 2263 2321 2354 2375 2331 2215 2181 2186 2259 2025 1844 1924 1945 1750 1664 1355 1236 1286 1245 1107 1112 1165 781 845 833 911 1011 1001 964 875
1368 1752 1683 1073 1383 1653 1819 2086 2351 2442 2481 2457 2441 2464 2483 2469 2410 2404 2311 2178 2199 2327 2252 1975 1994 1924 1696 1470 1320 1256 1263 1133 983 963 609 554 750 808 778 729 754 792 864
1336 1747 1913 1130 1448 1667 1729 2044 2346 2533 2437 2454 2498 2593 2596 2565 2552 2494 2353 2200 2324 2393 2092 1987 1926 1856 1580 1282 1133 1091 1029 764 634 546 339 421 626 751 709 789 733 770 750
1334 1608 1280 1129 1452 1712 1789 2048 2317 2421 2370 2391 2436 2634 2703 2658 2630 2378 2080 2165 1986 1994 2219 2280 2011 1623 1284 1011 997 905 651 483 239 297 234 263 340 614 566 559 646 613 493
1394 1639 2084 1311 1453 1754 1936 1986 2205 2180 2217 2307 2458 2569 2617 2615 2296 2080 1922 2001 1936 2086 2016 1960 1838 1350 1068 941 861 578 410 344 548 426 354 458 637 564 487 360 341 438 357
1763 1959 2129 1490 1490 1618 1880 1946 1874 1964 2040 2212 2380 2456 2549 2309 1983 1884 1692 1826 1707 1776 1711 1764 1466 1012 960 840 599 339 224 233 319 265 280 483 444 448 238 77 161 203 146
2032 2136 2363 2249 1965 1424 1534 1732 1753 1655 1844 1988 2141 2280 2337 2127 1609 1590 1610 1470 1106 1429 1252 1486 1244 841 807 607 343 126 132 287 524 414 245 265 419 147 32 2 2 2 21
1975 2035 2293 2314 2221 2073 2151 1397 1513 1507 1476 1725 1959 1997 1736 1653 1425 1312 1325 1083 1020 1388 1179 1366 820 653 480 259 113 61 109 191 500 279 206 214 310 122 15 4 0 2 2
1796 1757 2030 2174 2206 2129 2128 1888 1253 1193 1293 1281 1598 1261 1173 2079 1768 1600 1156 949 1077 1039 1079 943 578 437 134 50 20 34 79 531 348 278 230 159 243 55 24 10 0 3 15
1827 1736 1749 2019 2120 2226 2043 2413 2277 2179 1913 2185 1913 1885 2031 1683 1588 1257 990 671 748 576 705 751 507 101 84 80 27 44 698 345 364 200 114 146 176 37 27 19 13 18 15
1409 1634 1662 2048 2172 2186 2127 1958 2267 2231 2343 2316 2214 2132 2045 1712 1581 1487 1612 1003 1002 642 610 834 383 321 150 67 32 59 342 381 270 195 45 99 163 35 33 14 28 22 27
1197 1528 1819 1830 2154 2171 1973 1929 1986 1776 2295 2027 2188 2038 1931 1678 1582 1436 1527 1013 874 760 835 835 281 426 207 54 43 194 206 315 38 87 24 40 104 37 33 30 25 38 38
1346 1661 1785 1586 2145 2081 2113 1740 1649 1882 1851 1717 1725 1866 1790 1435 1435 1269 987 899 887 828 1005 417 676 167 106 65 55 220 184 160 87 79 42 27 44 66 43 22 50 48 48
887 1464 1747 1653 1965 2066 2113 1468 1643 1612 1445 1730 1653 1435 1560 1621 1140 1443 1147 773 817 924 974 573 623 326 117 67 48 176 161 135 91 56 59 49 37 49 64 43 57 42 48
452 730 1430 1937 2022 2134 1885 1464 1485 1279 1214 1465 1144 818 1140 1222 1296 1180 1214 873 1027 664 617 494 128 182 86 10 98 137 132 122 96 42 34 37 45 28 38 52 52 49 42
6 167 753 1052 1644 2041 1721 1313 879 767 942 721 571 521 662 658 1069 1022 945 754 520 609 172 7 1 2 2 2 70 107 91 101 53 29 47 34 56 42 18 37 49 76 44
0 0 192 906 1124 1678 1732 1297 801 778 684 1039 725 458 219 475 707 550 695 282 129 16 4 4 2 0 2 0 62 140 104 92 40 31 50 58 45 54 24 21 49 41 34
0 0 0 207 833 1027 1771 1281 544 678 620 781 842 649 655 509 292 465 492 210 5 2 2 2 4 3 5 0 53 106 125 74 54 25 41 22 50 40 17 38 45 20 15
0 0 0 19 567 774 1003 605 296 299 357 308 708 544 583 379 490 151 191 58 3 2 2 5 7 4 9 5 72 127 131 84 32 22 39 40 44 37 44 56 48 21 12
0 0 0 109 521 763 552 303 501 385 266 359 424 641 306 306 215 29 10 12 2 5 10 15 3 2 1 20 68 52 42 29 58 42 65 46 47 40 33 57 31 19 20
0 0 0 116 404 711 677 267 416 421 287 251 257 355 285 165 69 11 14 12 6 3 3 2 2 4 12 36 82 47 24 38 65 54 44 46 45 42 68 54 35 31 33
0 0 2 67 302 539 628 250 468 522 288 306 109 84 101 59 27 18 34 14 4 1 2 2 3 4 7 23 38 69 104 51 26 33 48 38 40 41 44 49 41 30 25
0 31 41 91 231 200 476 311 536 771 682 546 397 160 15 29 38 28 6 3 1 2 1 4 7 8 3 1 11 13 73 50 75 9 32 23 28 31 35 34 21 11 8
0 0 204 165 135 52 134 343 582 926 702 285 24 15 6 12 31 12 4 4 5 6 2 5 5 3 1 2 8 5 77 114 62 36 43 24 3 7 21 21 24 15 15

GFSSE_con_sbcape_111.txt.gz
CAPE
803 1440 1222 1357 1491 1523 1660 1714 1807 1963 1960 1941 2044 2143 2156 2166 2180 2281 2255 2229 2276 2268 2196 1952 1885 1625 1541 1368 1602 1684 1549 1514 1441 1494 1514 1281 1015 923 938 1140 823 833 1033
668 1190 1054 1302 1512 1527 1597 1693 1897 2066 2098 2074 2136 2232 2243 2255 2302 2336 2316 2263 2336 2313 2085 1963 1822 1720 1604 1679 1660 1553 1463 1361 1316 1355 1417 1211 1079 872 863 977 1076 869 984
995 1315 1217 1222 1567 1583 1671 1819 2036 2204 2250 2264 2301 2324 2362 2408 2461 2462 2359 2276 2401 2442 2076 1933 1887 1852 1711 1703 1596 1527 1473 1358 1256 1257 1338 787 937 1087 1013 1137 1059 1034 869
1035 1458 1438 1104 1543 1748 1919 2107 2171 2327 2378 2394 2395 2453 2503 2495 2573 2542 2353 2151 2340 2487 2265 1988 2030 1907 1910 1582 1340 1447 1411 1289 1220 1054 797 630 794 1018 935 901 1059 959 897
939 1404 1757 1074 1388 1702 1934 2157 2291 2353 2392 2425 2424 2560 2629 2604 2617 2539 2236 2134 2360 2572 2515 2120 2046 1993 1754 1407 1317 1249 1299 1145 1098 923 718 639 671 886 926 943 933 660 720
828 1122 901 1088 1344 1672 1944 2205 2404 2394 2301 2328 2389 2612 2685 2712 2700 2536 2227 2244 2513 2642 2641 2416 2099 1692 1357 1208 1194 1145 981 902 764 611 329 468 620 699 714 789 843 566 514
919 1580 1886 1136 1399 1718 1888 2162 2334 2321 2263 2335 2429 2523 2631 2695 2684 2305 2222 2297 2238 2212 2173 1994 1744 1407 1200 1080 1053 830 629 558 516 511 312 494 737 707 636 510 429 516 485
1242 1815 2395 1315 1424 1630 1797 1893 2044 2082 2159 2258 2365 2494 2571 2564 2368 2203 2132 2112 1936 1987 2021 1816 1533 1263 1075 1003 830 551 351 291 371 446 588 569 707 645 541 436 305 396 291
1616 2065 2592 2123 1701 1365 1527 1662 1672 1827 1963 2086 2274 2307 2303 2195 1916 1934 1948 1588 1721 1849 1727 1725 1312 1005 984 879 536 350 218 218 467 557 467 592 563 584 334 193 63 76 94
1774 1954 2497 2496 2161 1998 1817 1475 1543 1544 1692 1854 1988 2016 1688 1469 1610 1465 1414 1319 1489 1364 1601 1498 965 783 726 512 262 210 197 145 675 370 507 458 543 317 118 7 1 0 1
1581 1705 2091 2293 2291 2352 2240 1836 1320 1353 1377 1550 1680 1636 1787 1956 1757 1649 1351 1025 798 871 1249 1199 837 608 350 139 108 102 171 590 219 271 490 280 557 154 31 12 2 0 0
1487 1338 1601 1950 2000 2097 1853 2332 1981 2012 1994 1774 1879 2230 2490 1875 1794 1633 1324 796 871 858 660 837 400 172 197 547 188 85 308 550 425 229 309 251 447 161 24 23 13 5 1
1299 1102 1035 1869 2079 2035 1630 1926 2056 2157 2142 2104 2097 2107 2137 2186 2265 1812 1936 1748 1497 625 740 602 514 633 629 425 385 212 238 343 116 153 108 193 281 102 12 21 18 8 12
870 1187 1150 1435 2018 2381 1689 1597 1731 2411 2221 2316 2293 3022 2586 2391 2119 1882 1513 1533 1580 1048 863 955 1197 1006 680 444 433 243 159 135 174 194 87 68 192 112 21 21 25 19 28
231 823 1320 1576 2089 2330 2400 1817 1907 2549 2156 2341 2127 2265 2290 1987 1940 1655 1696 1452 1223 953 1011 995 1040 945 640 299 300 196 120 120 106 126 108 17 47 84 21 15 33 31 28
5 340 1401 1855 2207 2257 2266 2363 2215 2376 2323 2158 2030 2035 2404 2228 2057 2127 1922 1681 1544 1258 1169 1270 1165 795 496 276 210 98 100 109 111 104 97 29 18 50 51 44 41 36 31
0 26 1339 1989 2569 2335 2228 2126 2024 1814 1827 2112 1822 2112 2111 2105 2088 1896 1616 1595 1580 1317 1145 1081 1007 968 658 157 86 98 94 206 127 75 62 34 41 31 42 68 72 43 33
0 4 254 1288 2129 2276 2605 2335 2029 1606 1674 1626 1729 1818 1744 1911 1939 1566 1434 1342 1453 1390 1210 880 723 412 181 49 82 72 69 105 150 77 46 27 59 57 35 45 49 43 53
0 0 11 1019 1605 2266 2695 2369 2362 1848 1543 1453 1343 1129 1390 1229 1292 1287 1303 1513 1456 970 792 596 47 84 20 18 21 37 59 102 101 41 33 30 62 57 45 27 27 26 30
0 0 0 74 1132 1735 2175 2609 2040 1548 1367 1309 1196 1144 1230 1226 1023 1232 1083 1260 988 373 80 20 3 1 0 2 17 32 46 103 86 49 51 38 51 31 48 22 43 21 10
0 0 0 0 221 1366 1347 1867 2212 1264 1031 1045 1386 1215 1045 917 820 687 608 652 376 28 7 4 2 4 3 5 16 35 48 91 135 62 96 45 49 32 28 37 36 19 8
0 0 0 0 0 258 965 1331 1772 772 714 878 1046 1291 1073 1033 694 607 625 206 2 3 5 5 1 1 1 2 8 6 38 70 114 49 69 65 43 25 41 33 33 21 7
0 0 0 0 4 232 789 1315 998 819 595 686 736 1025 995 898 593 721 539 153 4 3 3 3 2 1 2 1 0 9 10 50 60 88 92 80 102 57 45 14 48 45 42
0 0 2 0 45 213 814 1132 773 739 542 542 782 785 823 804 663 404 314 18 3 2 3 5 13 1 0 0 0 29 0 12 61 84 104 146 98 50 84 29 37 22 41
0 0 0 130 135 222 571 1073 952 616 877 1028 959 895 512 634 371 452 170 10 5 3 3 1 3 0 0 0 1 3 12 16 113 91 75 90 55 31 39 45 53 69 71
0 0 0 83 276 261 563 833 986 697 1233 1132 1210 1031 394 590 571 242 97 18 18 6 5 2 2 1 6 5 16 7 9 38 78 110 105 92 36 73 30 58 63 70 58

GFSSE_con_sbcape_114.txt.gz
CAPE
1261 980 1316 1467 1530 1633 1657 1743 1891 1680 1855 1910 1954 2038 2059 2105 2179 2170 2212 2293 2452 2474 2241 1941 2079 1740 1558 1585 1652 1625 1661 1535 1499 1532 1508 1407 1044 998 1103 1076 975 728 1081
1190 1145 1199 1408 1558 1666 1639 1648 1738 1872 1967 2022 2049 2123 2103 2166 2228 2230 2251 2302 2341 2545 2263 2010 2058 1713 1597 1708 1659 1600 1507 1380 1323 1399 1498 1512 1296 1041 1037 1144 1001 875 984
1044 1029 1089 1279 1546 1656 1677 1839 2031 2198 2129 2131 2150 2196 2199 2270 2295 2309 2232 2268 2326 2604 2269 2123 1938 1779 1797 1671 1507 1567 1472 1373 1282 1306 1201 725 948 1182 1131 1150 1086 1073 944
1258 1182 1123 1213 1493 1675 1755 2006 2203 2329 2234 2214 2244 2291 2310 2352 2402 2355 2253 2152 2406 2558 2266 2102 2067 2003 1919 1679 1483 1413 1423 1320 1263 1184 747 728 680 1026 1085 1014 1013 949 828
1152 1344 1241 1161 1393 1706 1841 2059 2163 2247 2174 2250 2256 2388 2466 2494 2479 2441 2182 2070 2458 2667 2545 2245 2190 1932 1728 1470 1409 1410 1336 1242 1147 1024 587 660 635 1017 1146 1081 872 790 780
1043 1646 717 1050 1353 1732 1966 2204 2224 2227 2074 2148 2220 2386 2543 2617 2552 2406 2059 2074 2556 2771 2399 2654 1852 1632 1472 1322 1297 1284 1120 1074 994 620 494 746 533 955 805 804 852 795 631
1743 1656 1109 1012 1349 1720 2039 2287 2327 2192 2114 2130 2244 2357 2451 2558 2447 2241 2001 2101 2208 2190 2141 1888 1839 1483 1287 1230 1225 1065 885 785 650 242 345 554 515 854 742 696 704 597 555
2743 2263 1322 1173 1355 1541 1867 2022 2073 2056 2061 2090 2176 2248 2436 2431 2024 2158 2029 2074 1966 1929 2046 1681 1535 1338 1176 1098 1035 876 699 455 258 314 298 535 729 771 725 583 572 503 337
2608 2751 1810 1579 1433 1307 1354 1536 1770 1900 1980 1816 2085 2072 2260 2067 1736 1743 1906 1850 1590 1676 1539 1433 1264 1128 1071 996 804 670 482 186 117 365 453 351 878 751 544 497 276 128 121
2192 2885 2326 2022 1723 1612 1437 1251 1460 1624 1804 1876 1983 1828 2083 1676 1625 1527 1575 1494 1418 1481 1356 1434 1048 875 903 641 531 364 262 102 57 263 367 295 771 694 503 235 145 12 5
1895 2154 2557 2313 2019 1899 1731 1440 1097 1333 1526 1664 1770 1809 1520 1972 1789 1672 1443 1209 1264 1178 1156 1353 842 687 601 466 328 178 51 142 289 145 324 361 639 542 326 100 18 6 7
1756 1653 2176 2266 2207 2197 1824 1729 1638 1602 1513 1712 1917 1851 1660 2077 1839 1537 1370 961 891 564 869 852 646 495 285 233 82 129 95 294 142 219 193 263 449 346 158 17 14 11 16
1671 1337 1418 2251 2482 2216 1593 2062 1851 1909 1720 1637 1771 1955 2009 1959 1765 1395 1382 953 899 555 626 441 234 365 531 472 213 138 155 154 119 197 165 266 322 288 160 19 22 18 12
1320 1260 1055 1943 2427 2289 1844 1959 1942 1756 1924 1775 1768 1788 2041 2039 1872 1737 1452 1297 1110 792 575 527 520 433 638 370 308 282 107 204 94 149 134 202 303 330 150 47 26 27 14
651 1184 1012 1517 2232 2462 2506 1713 1900 2110 2022 1950 1952 1983 1947 2080 1854 1735 1536 1381 1109 955 676 618 616 709 494 357 240 312 122 69 81 28 54 124 118 250 93 38 34 34 11
16 810 1257 1334 2133 2369 2350 2321 1777 2540 2037 2066 2000 2013 2383 2123 1819 1606 1534 1365 1259 1128 933 681 699 584 540 378 313 247 122 72 59 54 92 86 89 87 51 35 35 35 27
0 10 1442 1715 2271 2454 2514 2236 2365 1965 2296 1883 2050 1989 2116 2154 2000 1650 1520 1454 1260 985 790 703 597 578 423 286 201 129 68 30 56 67 52 46 35 25 17 47 53 55 47
0 0 1441 1650 2445 2417 2401 2342 1988 1978 2086 2157 1872 1673 1764 2059 1959 1577 1376 1306 1234 882 746 686 548 341 270 91 127 30 9 14 35 63 36 21 21 5 16 39 53 64 65
0 0 119 1846 2736 2570 2335 2494 2258 1993 1912 1611 1880 1816 1682 1757 1817 1485 1436 1287 1200 804 601 471 422 304 188 87 42 15 1 17 14 57 25 32 36 2 7 35 44 42 45
0 0 205 1592 2110 2692 2393 2266 2500 2078 1726 1557 1496 1486 1336 1102 1538 1258 1004 1282 1158 813 472 354 185 245 73 22 34 21 13 11 21 14 16 33 28 12 16 14 22 28 26
0 0 0 110 1684 2088 2201 2444 2297 2233 1636 1381 1322 1223 956 935 1117 985 896 915 740 429 58 38 2 3 2 3 1 12 9 15 10 24 30 20 9 9 16 11 11 12 9
0 1 3 0 0 756 1635 1611 2030 2081 1750 1291 1119 1224 1163 1169 1089 671 838 539 438 100 1 1 0 0 0 2 2 10 14 5 1 18 23 41 4 15 37 22 17 6 0
2 19 0 0 1 43 2 1101 1439 1254 829 607 627 681 1257 1064 859 672 497 273 75 0 0 1 0 0 0 1 0 1 0 0 8 13 23 25 10 4 18 26 20 2 0
4 23 0 31 31 34 376 428 1295 917 750 613 563 533 998 914 695 589 522 103 0 0 1 1 1 0 0 0 1 0 0 0 0 6 23 27 13 0 10 31 18 6 2
0 4 9 37 112 92 316 546 1182 1020 857 500 356 382 448 596 586 402 488 65 1 0 0 0 1 0 0 0 0 0 0 0 0 0 2 36 36 12 14 8 12 11 6
8 27 13 0 0 195 328 577 1163 849 701 492 570 456 468 593 548 555 282 35 1 1 0 0 0 0 0 0 0 0 0 0 0 0 2 31 34 36 31 25 34 16 7

GFSSE_con_sbcape_117.txt.gz
CAPE
748 1053 1194 1418 1522 1580 1743 1586 1453 1584 1689 1816 1852 1888 1936 2006 1950 2054 2179 2322 2396 2448 2144 1966 1951 1689 1726 1629 1663 1608 1564 1464 1278 1590 1518 1543 1195 1117 1223 1238 1087 842 1125
812 1095 1198 1389 1494 1553 1616 1728 1557 1687 1862 1944 1966 1935 1949 2010 2004 2068 2208 2419 2514 2526 2131 1957 1891 1727 1711 1638 1703 1634 1533 1411 1316 1363 1519 1676 1479 1227 1163 1178 1064 1045 1144
899 1097 1200 1278 1457 1520 1643 1709 1876 1970 2052 2063 2052 1992 2060 2118 2159 2110 2141 2269 2613 2709 2359 2077 1936 1898 1655 1624 1537 1544 1481 1324 1276 1251 1226 835 1066 1363 1155 1237 1225 1186 1065
806 971 1057 1185 1381 1526 1647 1788 1975 2189 2175 2125 2150 2150 2203 2233 2238 2221 2117 2028 2324 2566 2548 2192 2012 1924 1666 1542 1468 1449 1408 1339 1229 1181 639 532 862 1274 1250 1124 1191 1055 895
876 915 1090 1133 1342 1553 1753 1900 2014 2121 2058 2087 2148 2286 2315 2360 2367 2329 2004 2016 2482 2593 2514 2248 2187 2004 1632 1360 1312 1316 1271 1239 1086 615 461 463 635 1147 1214 986 985 893 860
1018 943 898 1104 1294 1600 1862 1965 2012 1925 1667 1987 2093 2335 2426 2505 2502 2243 1895 2082 2609 2686 2705 2573 2381 1828 1337 1209 1205 1183 1107 978 614 218 282 884 579 1020 997 793 696 761 761
964 684 833 1066 1341 1688 2027 2057 1978 1624 1585 1961 2062 2277 2400 2450 2319 2065 1820 2016 2099 2065 2555 2199 1988 1500 1214 1089 1125 1045 948 822 134 33 155 344 801 1013 768 771 761 786 505
818 702 853 1100 1330 1663 1960 1975 1885 1809 1857 1936 2042 2121 2285 2208 2019 1956 1788 1870 1932 1901 1703 1675 1546 1329 1156 1061 1034 871 778 600 59 159 280 194 894 881 938 760 768 637 458
1204 761 863 1048 1188 1444 1624 1762 1741 1726 1783 1863 1989 2049 2128 2024 1839 1880 1771 1823 1587 1384 1373 1317 1179 1113 1048 983 893 767 588 237 45 67 0 363 879 984 755 726 518 339 280
1433 985 874 845 846 832 1077 1521 1599 1628 1700 1638 1840 1795 2018 1783 1534 1593 1695 1612 1541 1241 1220 1172 1047 974 977 874 745 619 150 79 80 176 269 269 758 909 722 542 392 85 13
1984 1342 1140 1042 897 787 769 1110 1350 1483 1606 1452 1720 1280 1558 1382 1320 1323 1341 1281 1378 1146 1096 942 770 794 783 536 456 294 53 36 42 187 136 313 746 807 625 521 167 31 2
1681 1689 1470 1191 1105 1004 1214 864 737 1054 1041 1142 1440 1187 1251 1417 1311 1362 1227 1142 1190 1005 984 839 673 504 350 129 113 128 67 158 47 90 105 315 762 686 593 379 128 25 10
1347 1743 1645 1498 1331 1278 1442 768 852 811 861 1064 1311 1263 1045 1417 1312 1147 880 771 675 585 594 573 337 130 108 1 0 10 2 74 98 21 14 191 538 597 444 237 146 61 18
1291 1189 1640 1537 1516 1457 999 1028 1004 1046 911 911 943 1147 1173 1205 1068 804 682 480 337 51 201 110 0 94 161 103 24 0 33 62 30 20 20 58 233 568 307 227 136 71 31
1216 1029 1356 1529 1644 1548 1036 1497 1198 1218 1221 1167 1044 1107 1196 1226 1087 915 724 581 521 188 113 115 43 31 97 104 110 89 16 17 4 9 13 35 55 258 463 227 183 81 37
1196 949 826 1376 1698 1552 1437 1082 1111 1168 1263 1196 1114 1222 995 1280 1101 958 814 642 493 416 136 191 104 71 133 29 70 149 1 6 10 0 2 8 24 106 233 270 155 88 41
12 889 503 1298 1592 1569 1313 1328 979 1413 1324 1326 1240 1308 1422 1314 1114 943 800 657 570 469 237 135 120 87 88 88 39 184 0 0 4 35 61 38 27 71 101 163 189 104 54
0 176 477 1229 1729 1971 1584 1262 1227 1485 1440 1231 1386 1220 1516 1494 1214 944 878 707 543 329 108 178 112 42 43 35 0 0 0 0 27 27 38 9 20 15 8 41 81 67 70
0 0 810 1243 1639 1796 1625 1530 1211 1018 1449 1333 1165 1202 1005 1398 1282 958 869 678 582 291 115 52 10 24 71 31 1 8 1 0 19 51 41 4 0 0 3 27 12 34 54
0 0 556 1244 1764 1879 1850 1534 1328 1171 923 943 1360 1241 975 1032 1291 891 807 709 591 196 5 32 82 0 21 12 31 7 0 0 1 17 28 5 0 0 6 16 11 26 33
0 0 59 1832 1802 1733 1583 1579 1428 1553 1169 762 612 1044 1113 1088 1216 1011 852 564 682 329 188 91 87 50 1 0 3 3 2 7 2 3 2 1 3 6 10 0 1 32 32
0 0 0 903 1908 1911 1823 1635 1501 1310 1152 1163 579 474 678 609 883 1078 902 464 245 170 132 13 0 0 0 1 0 0 1 1 1 8 0 0 13 0 1 0 1 3 15
0 0 0 0 137 850 1488 1197 737 580 265 526 415 380 432 441 604 793 574 286 146 9 1 0 0 0 0 1 0 0 0 0 0 1 0 3 1 7 7 1 1 2 4
0 0 0 0 0 0 0 477 957 972 798 361 301 297 342 731 743 725 494 183 8 0 0 0 0 0 0 0 4 0 0 0 0 1 0 2 0 1 7 6 2 9 2
0 0 1 0 0 0 0 0 588 505 751 166 113 223 198 506 719 658 444 110 10 0 0 0 1 0 0 0 5 0 0 0 0 0 0 0 5 3 13 12 15 7 2
0 0 0 0 0 0 0 0 644 477 341 166 87 100 189 242 492 275 426 104 26 0 0 0 0 0 0 0 0 0 0 0 0 0 0 0 0 2 14 18 13 6 0

GFSSE_con_sbcape_120.txt.gz
CAPE
794 881 1183 1541 1578 1453 1347 1341 1387 1415 1614 1699 1748 1850 1881 1969 2002 2109 2226 2272 2254 2298 1873 1795 1961 2055 1751 1529 1847 1730 1543 1392 1388 1544 1800 1707 1573 1548 1395 1461 1274 1044 1236
888 949 1121 1423 1640 1629 1493 1440 1484 1564 1780 1848 1833 1826 1817 1909 2020 2194 2307 2383 2429 2243 1970 1870 1787 1858 1792 1759 1801 1703 1406 1475 1470 1606 1801 1681 1596 1487 1333 1231 1266 1156 1238
951 1001 1139 1279 1492 1689 1772 1640 1710 1837 1929 1908 1927 1884 1930 1970 2060 2230 2342 2424 2499 2374 2027 1952 1906 1723 1739 1748 1587 1521 1611 1514 1378 1438 1339 897 1307 1362 1290 1327 1393 1254 1085
986 1010 1076 1187 1391 1548 1678 1748 1827 2022 2003 2020 2012 2018 2081 2087 2052 2153 2245 2348 2568 2581 2151 2023 1919 1729 1690 1698 1494 1537 1541 1405 1280 1036 645 889 1210 1224 1322 1247 1127 1148 1140
979 1013 1052 1156 1300 1482 1567 1766 1894 2007 1940 1954 2006 2176 2238 2268 2196 2076 1885 2044 2189 2405 2483 2111 2012 1716 1558 1373 1329 1409 1391 1188 782 424 264 717 904 1257 1224 1163 1154 1082 1067
843 902 976 1084 1271 1558 1765 1861 1975 1912 1806 1825 1954 2181 2339 2383 2299 1990 1755 2105 2377 2484 2593 2415 2079 1670 1232 1168 1184 1248 1137 533 149 230 361 819 742 1217 1203 1092 1102 1022 914
715 779 862 1028 1366 1688 1975 2011 1903 1783 1745 1785 1973 2123 2295 2357 2265 1827 1664 2086 2249 2442 2324 2134 1847 1391 1149 1086 1098 916 691 294 57 97 184 347 889 1351 1211 959 853 860 892
557 710 837 1080 1434 1720 1897 1864 1615 1325 1625 1732 1926 2043 2202 2167 2008 1749 1622 1864 1865 2075 2039 1842 1506 1292 1079 1025 1000 718 252 212 128 163 186 244 846 1127 928 947 869 714 600
520 643 779 1070 1412 1610 1693 1675 1506 1460 1614 1701 1831 1951 2018 1854 1783 1645 1575 1705 1715 1657 1621 1532 1252 1159 1050 988 940 387 125 62 40 6 257 386 1098 950 991 839 568 401 353
519 588 633 792 1066 1343 1485 1494 1502 1551 1569 1653 1709 1828 1826 1643 1613 1607 1503 1542 1436 1337 1386 1264 1144 1064 1015 943 842 227 66 20 0 0 163 400 1044 873 950 727 467 319 101
671 523 558 667 612 595 1026 1387 1420 1461 1454 1537 1618 1724 1657 1325 1275 1454 1376 1388 1303 1094 1128 1041 956 964 920 801 614 17 1 0 46 124 67 489 1022 949 933 688 365 151 55
1008 670 595 604 531 423 1063 1186 1164 1379 1292 1100 1234 1157 1166 1105 926 1136 1200 1163 1190 951 923 750 725 864 671 295 58 27 0 0 35 5 37 351 895 881 940 597 303 88 25
1511 1046 860 649 545 576 811 606 747 873 686 699 1053 689 968 1134 1031 944 736 796 798 777 675 541 415 379 356 27 0 0 0 8 0 36 37 335 759 945 863 576 284 90 33
1839 1577 1135 821 736 704 649 498 579 659 606 707 1101 837 822 1053 882 748 523 428 398 179 309 184 67 32 54 0 0 0 0 0 0 0 49 292 455 725 746 538 309 156 38
1634 1799 1449 1077 932 912 843 523 585 606 635 654 750 885 848 891 984 506 394 276 162 0 21 3 0 0 25 0 0 0 0 0 0 0 0 120 299 594 784 439 371 267 102
1304 1376 1636 1417 1212 1114 1085 1006 780 726 668 618 645 892 937 877 909 463 374 348 227 0 0 0 0 0 2 7 0 0 0 0 0 0 0 28 93 190 376 537 265 288 175
1150 1221 1444 1507 1412 1371 1134 1258 1009 983 967 853 810 794 860 890 801 660 399 337 284 176 0 0 0 0 0 0 0 0 0 0 0 0 0 7 42 85 79 153 272 322 182
1117 994 904 1581 1531 1504 1282 1034 940 1058 1114 1086 905 916 881 854 807 585 495 398 239 149 24 18 2 0 10 12 0 5 0 0 0 1 2 1 3 46 45 62 132 192 186
0 835 731 1157 1481 1552 1339 1125 907 1106 1174 1087 1059 1026 1066 999 853 729 630 323 197 95 56 48 28 45 16 2 0 1 1 1 0 5 16 3 1 17 20 50 117 96 108
0 0 492 793 1342 1649 1515 1216 843 1116 1139 1016 1178 1155 884 1227 878 760 572 379 250 58 0 1 1 0 93 97 1 9 1 2 0 1 28 7 2 0 0 13 16 50 68
0 0 342 691 1181 1617 1649 1480 921 1055 938 1021 1052 1152 906 986 1058 701 606 589 498 243 19 0 0 5 9 11 1 2 2 2 1 0 11 2 2 0 0 0 5 15 16
0 0 384 927 1256 1557 1681 1748 1329 883 752 949 923 924 984 733 884 1007 782 652 700 318 11 14 107 4 1 2 3 0 8 1 12 1 1 4 0 0 0 6 18 0 0
0 7 997 1562 1622 1609 1540 907 359 265 149 347 294 615 802 733 721 917 809 454 487 364 294 185 99 20 0 1 1 0 1 7 5 3 1 4 0 0 0 17 5 0 3
0 0 0 91 157 101 450 817 642 1152 1278 709 649 509 344 523 481 578 498 260 312 264 243 73 7 16 0 2 14 1 0 0 1 0 1 1 0 0 0 4 4 0 0
0 0 0 0 0 0 0 0 657 830 612 52 72 242 369 318 483 607 445 386 219 66 18 9 0 0 0 0 3 0 0 0 0 0 0 2 1 0 0 0 6 0 0
0 0 0 0 0 0 0 0 0 0 64 100 102 99 18 166 543 546 507 249 171 24 0 0 0 0 0 0 0 2 0 1 0 0 0 1 0 1 0 1 0 0 0

GFSSE_con_sbcape_123.txt.gz
CAPE
565 825 1175 1331 1417 1332 1271 1184 1210 1297 1478 1661 1721 1782 1858 1944 2032 2099 2176 2196 2197 2204 1876 1753 2155 2108 1871 1655 1825 1690 1572 1484 1656 1758 1925 1691 1641 1645 1488 1486 1400 1109 1315
678 966 1204 1364 1404 1371 1377 1286 1337 1454 1604 1737 1757 1788 1815 1946 2066 2175 2222 2284 2257 2020 1846 1835 1962 1789 1721 1749 1776 1747 1736 1589 1570 1478 1602 1831 1581 1600 1452 1387 1383 1245 1303
815 986 1241 1374 1434 1459 1517 1498 1567 1699 1761 1778 1759 1799 1885 2055 2179 2240 2305 2337 2312 2221 1934 1917 1913 1850 1735 1775 1740 1739 1715 1591 1543 1464 1284 1003 1177 1392 1334 1367 1400 1495 1306
918 954 1131 1332 1498 1554 1558 1586 1680 1834 1829 1805 1813 1863 1963 2108 2229 2299 2338 2278 2361 2387 2075 1943 1767 1746 1699 1649 1618 1617 1490 1387 1276 1072 900 1017 897 1409 1395 1339 1365 1314 1255
965 985 1019 1187 1446 1636 1591 1650 1742 1819 1755 1766 1802 1965 2018 2121 2282 2312 2219 2169 2445 2498 2173 1902 1721 1649 1530 1339 1391 1427 1256 1011 675 369 394 627 941 1336 1348 1254 1282 1205 1162
984 962 1012 1095 1261 1550 1715 1786 1838 1728 1598 1658 1777 2012 2121 2138 2176 2035 1983 1998 2568 2626 2470 1972 1668 1511 1166 1089 1195 1142 673 566 287 259 526 951 760 1318 1319 1225 1297 1146 915
887 863 938 1066 1222 1488 1825 1929 1857 1652 1535 1614 1821 1954 2113 2146 2020 1806 1860 1934 2087 2520 2502 2199 1672 1273 1067 1013 1023 760 337 357 109 276 357 357 896 1467 1372 1183 1001 981 1016
752 811 917 1046 1274 1554 1764 1828 1692 1571 1521 1600 1761 1870 2037 2057 1796 1667 1802 1909 1930 2077 1950 1651 1325 1163 1019 976 787 445 178 237 130 157 245 375 873 1431 1395 1064 931 879 932
636 736 840 1062 1354 1579 1672 1561 1427 1469 1502 1577 1688 1760 1853 1799 1568 1534 1715 1847 1774 1820 1640 1436 1159 1012 970 921 476 167 109 84 53 126 189 505 1262 1391 1181 836 627 623 707
535 641 825 1029 1242 1400 1399 1261 1084 1307 1415 1503 1609 1612 1606 1564 1502 1441 1534 1728 1572 1602 1522 1314 1023 954 923 864 250 130 55 30 0 68 140 439 1323 1181 1187 839 617 428 298
455 557 651 830 970 1088 1249 1233 1100 1273 1330 1404 1486 1502 1320 1122 1242 1338 1281 1496 1473 1327 1257 1202 930 891 875 652 113 125 0 1 0 0 67 659 1120 1106 1152 852 574 340 157
417 387 561 696 538 616 1027 1316 1351 1356 1365 1388 1391 1279 1097 889 896 1139 1157 1290 1285 1028 1059 875 796 699 617 7 0 24 0 0 0 0 6 557 1061 1169 1095 839 505 210 103
351 387 443 547 511 748 1050 938 881 1008 1031 1199 986 839 907 813 709 822 807 908 862 785 627 578 443 292 226 0 0 0 0 0 0 0 0 427 1183 1081 963 878 455 214 110
391 358 436 421 449 477 654 584 636 729 740 817 1080 450 698 1075 665 547 505 480 458 399 316 182 41 26 0 0 0 0 0 0 0 0 0 240 793 976 911 830 495 251 125
977 558 512 413 421 435 439 484 507 454 569 547 778 667 706 931 878 532 352 207 162 53 124 32 0 0 0 0 0 0 0 0 0 0 0 175 483 749 1057 848 567 316 170
1528 1215 644 507 446 458 485 377 428 494 620 521 657 904 733 892 844 463 273 168 55 5 2 13 0 0 0 0 0 0 0 0 0 0 0 15 263 389 487 883 571 373 230
1474 1592 1267 748 503 503 560 381 316 403 411 439 564 740 914 699 601 408 335 169 100 0 0 0 0 0 0 0 0 0 0 0 0 0 0 0 0 11 132 338 493 580 338
1078 1163 1594 1450 923 702 688 747 582 467 479 444 416 535 759 773 574 381 311 228 60 14 0 0 0 0 0 0 1 1 1 0 0 0 0 0 0 30 51 59 185 222 224
914 1032 1029 1603 1408 1183 989 1049 941 775 765 704 568 557 595 719 710 550 436 181 33 46 10 7 1 0 0 0 1 0 1 1 0 0 0 0 0 13 42 26 64 73 79
171 891 923 1440 1579 1493 1375 909 615 691 783 728 817 779 646 678 727 661 496 163 103 30 30 14 59 0 14 33 1 1 1 0 0 1 2 2 0 5 17 37 44 47 81
0 0 626 805 1398 1521 1466 992 803 1110 957 796 903 948 780 867 674 697 662 258 219 168 24 9 0 12 41 79 2 5 1 2 3 5 2 10 4 0 0 9 11 23 19
0 0 97 516 1024 1454 1587 1402 1304 1260 1009 1023 832 1013 882 938 799 801 689 499 567 448 39 20 131 63 95 55 29 3 14 1 2 7 15 21 14 5 0 0 0 8 14
0 0 0 291 658 1269 1508 906 367 317 218 295 538 908 1009 733 899 936 679 584 394 369 142 72 142 133 54 26 0 3 5 3 5 6 7 24 7 1 0 0 0 1 7
0 0 0 50 143 380 643 669 855 931 859 815 865 1088 659 663 758 925 679 514 566 508 346 186 176 152 53 52 9 0 0 0 4 4 4 17 22 6 1 0 0 0 9
0 0 0 0 0 0 0 1 5 80 76 16 200 552 321 586 587 696 788 590 508 402 395 232 83 48 17 9 9 1 0 0 0 0 2 2 12 14 0 0 0 0 10
0 0 0 0 0 0 0 0 0 0 0 4 65 283 203 223 408 469 548 545 587 271 172 64 23 17 7 0 0 0 0 5 2 0 2 3 1 1 1 1 0 0 0

GFSSE_con_sbcape_126.txt.gz
CAPE
410 838 1102 1349 1357 1206 1079 1054 1182 1315 1626 1886 1944 1962 1937 1940 1959 2071 2116 2098 2121 2162 1771 1763 2156 1988 1916 1957 1851 1679 1584 1573 1751 1768 1989 1760 1657 1523 1483 1606 1402 1256 1553
497 1005 1119 1367 1393 1283 1196 1163 1253 1446 1699 1878 1918 1925 1905 1934 2026 2128 2123 2165 2161 2081 1747 1725 2089 1917 1679 1755 1807 1752 1726 1586 1570 1600 1469 1634 1651 1538 1388 1391 1464 1288 1487
712 1073 1169 1321 1407 1392 1377 1369 1463 1680 1805 1863 1864 1875 1968 2057 2124 2169 2173 2155 2119 2109 1871 1876 1776 1694 1699 1783 1786 1767 1709 1576 1406 1519 1330 766 1228 1455 1404 1437 1497 1571 1317
916 1106 1188 1290 1390 1495 1429 1500 1556 1752 1816 1826 1887 1975 2058 2153 2225 2263 2224 2109 2162 2210 1875 1849 1784 1660 1639 1686 1605 1573 1528 1366 1203 1131 701 904 1329 1445 1443 1433 1458 1462 1341
971 1169 1241 1286 1369 1503 1505 1584 1617 1649 1644 1709 1856 2093 2196 2258 2325 2350 2160 2106 2262 2327 1869 1757 1630 1533 1484 1340 1297 1324 1177 919 813 502 455 778 1179 1303 1507 1408 1389 1212 953
970 1138 1235 1283 1391 1543 1632 1704 1722 1592 1510 1593 1782 2023 2234 2344 2365 2250 2012 2181 2347 2313 2068 1668 1527 1382 1142 1097 978 898 742 589 402 414 495 1001 1064 1494 1496 1337 1286 1197 1045
964 944 1130 1219 1464 1595 1776 1842 1749 1529 1434 1568 1775 1869 2068 2242 2174 1972 1867 2239 2250 2314 2110 1866 1466 1154 1034 1012 753 548 524 373 225 291 419 559 816 1423 1321 1228 1237 1037 889
903 884 995 1126 1390 1604 1758 1774 1609 1407 1390 1524 1719 1800 1942 1932 1777 1785 1676 1915 2138 2177 1894 1473 1127 1022 962 919 692 271 344 282 151 197 255 474 1060 1392 1393 1167 1117 922 934
732 835 872 1056 1232 1446 1693 1632 1451 1340 1335 1475 1621 1717 1804 1565 1449 1618 1660 1680 1822 1764 1483 1138 916 835 872 735 558 154 191 176 79 99 210 332 1319 1396 1422 1013 815 1014 796
567 669 830 938 1141 1289 1451 1421 1264 1269 1274 1389 1466 1551 1575 1393 1267 1386 1630 1634 1681 1520 1304 1035 756 744 767 405 248 136 83 44 17 43 101 490 1556 1524 1327 923 785 773 714
499 666 755 843 1031 1089 1203 1275 1121 1198 1198 1303 1339 1358 1219 1152 1130 1192 1320 1547 1470 1488 1213 925 655 660 680 223 166 26 33 0 0 0 30 544 1253 1253 1177 920 739 548 376
445 473 633 686 801 873 1029 1264 1101 1326 1314 1325 1279 1149 937 813 898 966 1057 1376 1279 1227 1129 877 589 517 328 21 14 11 0 0 0 0 0 536 1397 1316 1122 798 720 469 259
278 352 503 610 648 768 900 979 989 1192 1188 1107 1127 1078 991 558 738 849 713 924 864 828 616 545 312 152 19 0 0 0 0 0 0 0 0 343 1063 1338 1028 1051 654 330 220
119 254 454 477 357 524 812 798 757 911 926 959 886 758 784 821 585 560 577 540 541 326 268 104 24 3 0 1 0 0 0 0 0 0 0 180 676 1208 1136 1155 742 448 209
35 185 362 337 295 427 643 705 701 809 717 891 921 622 749 737 760 368 325 313 317 136 67 3 0 0 0 0 0 0 0 0 0 0 0 0 375 760 1145 1130 938 556 319
154 99 319 374 391 433 534 555 534 588 585 555 595 789 656 853 741 660 211 161 111 56 25 0 0 0 0 0 0 0 0 0 0 0 0 0 81 168 586 897 846 662 449
950 280 404 387 310 390 438 307 334 368 407 308 389 634 601 656 646 451 319 141 63 1 9 0 0 0 0 0 0 0 0 0 0 0 0 0 0 16 105 407 550 724 593
1212 1016 640 504 371 338 429 249 199 218 218 190 274 466 474 412 388 244 277 213 16 0 0 0 0 0 0 0 0 0 1 0 0 0 0 0 0 0 1 67 109 371 485
1015 1190 1295 740 422 371 380 340 215 165 205 141 135 329 416 410 292 279 210 82 12 0 0 1 1 0 0 0 1 1 1 1 0 0 0 0 0 0 0 41 77 79 49
582 944 1351 1398 873 506 431 559 512 381 374 312 301 292 286 502 427 295 215 62 65 68 16 0 18 0 1 0 0 2 1 2 0 0 0 0 0 0 3 47 35 8 25
165 702 847 1589 1513 1010 788 749 707 686 655 605 491 426 338 410 502 482 455 111 100 112 138 50 50 8 10 10 1 1 4 2 2 0 0 11 17 14 13 37 18 12 10
0 391 785 1111 1585 1412 1242 1008 788 884 874 835 831 588 502 486 460 601 617 312 200 182 82 73 69 19 46 29 23 2 8 0 2 1 3 8 20 33 12 5 11 11 17
0 0 178 745 1238 1525 1484 1009 295 326 504 787 713 836 717 627 532 612 541 435 276 378 199 119 152 150 82 35 0 11 0 0 0 1 2 2 16 22 26 1 1 0 4
0 0 0 150 371 790 969 1010 969 1126 1099 892 1047 1005 851 703 763 715 630 454 371 419 192 135 168 245 114 64 30 0 0 0 0 0 0 0 4 24 5 2 1 0 0
0 0 0 0 0 0 256 523 631 608 391 37 124 219 98 321 516 731 593 537 487 494 312 109 97 175 110 104 62 1 0 0 0 0 0 8 6 20 37 14 2 1 0
0 0 0 0 0 0 0 0 0 0 1 79 139 8 0 10 180 386 667 663 695 644 487 220 165 170 81 55 46 3 3 6 0 0 0 0 0 3 39 27 1 1 0

GFSSE_con_sbcape_132.txt.gz
CAPE
983 1778 1251 1343 1392 1340 1395 1534 1681 1677 1671 1746 1878 1836 1852 1912 1979 2011 2068 2048 2078 2246 1779 1693 2144 2332 2238 1659 1859 2066 1779 2029 2040 2159 2093 1741 1621 1427 1465 1425 1391 1417 1648
1049 1714 1240 1328 1347 1340 1461 1530 1692 1766 1848 1921 1899 1884 1913 1978 2054 2080 2087 2166 2270 2328 1642 1619 2213 2372 1802 1722 1766 1757 1713 1709 1772 1858 1909 1774 1650 1133 1125 1198 1130 1492 1738
1350 1740 1727 1315 1336 1413 1559 1752 1941 2103 2115 2080 2017 1977 2028 2096 2160 2121 2160 2159 2261 2265 1875 1678 1893 1801 1706 1821 1759 1796 1756 1628 1636 1746 1796 1362 1164 1398 1472 1536 1672 1530 1683
1583 1890 1828 1306 1367 1475 1574 1815 2058 2303 2249 2125 2084 2097 2155 2240 2201 2188 2182 2112 2221 2257 1978 1766 1829 1791 1725 1715 1651 1582 1545 1342 1182 1285 1378 1092 1094 1427 1373 1429 1396 1159 1502
1743 1895 1992 1367 1384 1538 1633 1849 2052 2197 2082 2065 2083 2246 2311 2376 2302 2258 2109 2078 2297 2395 2202 1886 1857 1734 1567 1383 1295 1293 1239 1066 1088 1192 1156 1325 1363 1383 1384 1343 1276 1351 1312
1865 1913 1426 1337 1453 1565 1711 1894 2047 2013 1960 1983 2052 2278 2425 2480 2379 2211 2004 2132 2387 2477 2387 2028 1746 1503 1161 1062 1001 970 884 836 803 962 1069 1157 1385 1376 1363 1640 1595 1238 1116
2086 2136 2132 1326 1494 1619 1855 1938 1893 1825 1827 1939 2084 2206 2349 2454 2316 2073 1964 2126 2231 2317 2206 1970 1588 1211 969 853 805 674 638 719 944 843 998 1134 1499 1491 1484 1360 1385 1437 1177
2291 2387 2353 1461 1530 1646 1804 1797 1643 1620 1720 1896 2063 2173 2282 2291 2117 1998 1976 2062 1997 1977 1810 1504 1203 1029 791 698 545 376 456 592 740 924 945 1145 1395 1639 1460 1268 1324 1114 1051
2451 2665 2682 2258 1886 1553 1664 1555 1428 1446 1595 1791 1978 2103 2193 2078 1904 1904 1976 1974 1900 1690 1427 1184 985 780 618 477 342 140 269 470 910 883 745 1020 1215 1583 1310 1084 966 1118 899
2350 2597 2752 2560 2342 2247 2117 1305 1258 1290 1400 1591 1775 1926 1896 1748 1696 1774 1879 1918 1708 1437 1178 1025 783 673 473 194 132 69 88 205 778 813 838 1126 1196 1038 1273 1020 896 1069 964
2195 2443 2655 2635 2502 2454 2367 1868 1119 1116 1234 1346 1539 1576 1605 2040 2157 2115 1867 1790 1524 1106 934 800 627 600 394 104 28 26 45 558 576 674 836 676 1302 1052 1154 936 1120 913 781
2186 2251 2431 2579 2469 2412 2080 2300 2026 1755 1747 1841 1881 2161 2038 2060 2115 2008 1771 1529 1350 900 716 592 468 344 358 1019 816 74 680 639 734 648 714 741 1370 1146 1186 1120 927 523 553
1705 1944 2046 2360 2429 2337 1974 2126 2070 2064 1871 1926 1998 2107 1968 2131 2232 2075 2258 2090 1979 955 1061 692 836 1015 950 1079 1003 852 776 946 702 720 372 423 983 1278 1253 833 656 471 511
526 1742 1763 1864 2204 2312 1842 1970 2032 2160 2194 2062 2139 2494 2446 2320 2273 2145 2128 1959 1909 1566 1363 920 830 917 1254 1191 1148 1123 1093 867 738 655 446 43 529 1205 1117 876 701 734 590
0 1154 1535 1641 1947 2103 2017 1731 1992 2089 2119 2083 2183 2693 2461 2311 2353 2192 2238 2018 1916 1828 1511 1547 1339 1311 1342 1164 1077 1177 1111 1020 885 651 572 0 3 575 1102 1073 890 884 622
0 321 1199 1448 1728 1830 1804 1849 1935 2082 2050 2048 2107 2274 2502 2326 2359 2328 2268 2110 2286 2131 1741 1705 1575 1487 1300 1155 1128 1076 1009 895 871 764 654 545 0 33 375 956 813 795 692
0 91 507 1372 1523 1619 1552 1913 1836 1729 1596 1815 1851 1903 1996 2339 2325 2258 2122 2219 1971 2100 1973 1764 1549 1472 1307 1189 1147 1171 1065 984 852 857 770 616 378 0 0 93 483 675 687
0 0 188 824 1251 1420 1477 1709 1771 1697 1625 1548 1841 1937 2002 1858 2215 2104 1917 1940 2028 2262 1906 1843 1662 1509 1267 1212 1223 1139 1069 1017 960 939 878 762 665 644 97 0 54 351 443
0 0 0 863 1235 1336 1359 1585 1852 1688 1749 1813 1666 1698 1729 1782 1936 1856 1800 1607 2162 2015 1682 1768 1683 1560 1395 1217 1161 1199 1199 1060 768 739 901 748 727 673 675 72 0 17 102
0 0 0 376 1389 1485 1476 1614 1677 1680 1749 1717 1804 1924 1863 1473 1775 1585 1675 1294 1874 1972 1757 1611 1562 1654 1507 1522 988 1014 1205 974 765 596 897 712 721 534 716 711 705 241 0
0 0 0 56 1517 1865 1647 1746 1568 1500 1162 1361 1444 1309 1501 1260 1324 1380 1474 1396 1955 1821 1728 1382 1483 1381 1483 1381 1338 818 805 1000 764 639 776 707 507 565 639 699 578 604 232
0 0 0 0 1238 1717 1817 1886 1881 1912 1333 1117 1068 1144 1240 1039 1165 1094 1470 1785 1704 1697 1816 1119 1504 1329 1349 1400 1128 1004 857 552 515 856 658 541 591 485 318 451 457 532 585
0 0 0 0 566 1603 1746 1851 1766 1978 1419 1124 1201 1328 1595 1587 1351 987 1385 1672 1648 1581 1512 1066 1189 1160 929 945 1555 963 1006 769 677 599 547 559 473 237 497 382 501 474 471
0 0 0 0 114 1568 1717 1679 1606 1755 1413 1274 1534 1313 1363 1553 1531 1715 1863 1637 1682 1365 1188 1032 1142 1413 1658 991 845 1489 1340 979 629 548 386 522 530 366 215 177 303 430 206
0 0 0 0 0 1366 1974 1764 1878 1743 1730 1518 1396 1594 1836 1570 1566 1631 1680 1735 1115 1154 833 691 445 1058 1829 1881 1045 1030 1422 742 316 380 514 347 363 297 402 624 386 272 76
92 38 6 0 2 1171 1984 2082 2163 1939 2040 2394 2234 2392 2046 1854 1469 1526 838 381 292 48 30 64 759 877 983 1503 1477 1436 1262 949 752 577 349 452 633 553 450 443 426 246 193